[[{"header":{"parameterUnit":"m.s-1","parameterCategory":1,"la1":31.0,"la2":29.5877,"lo1":-88.7671,"lo2":-86.6584,"dy":0.0162,"dx":0.0185,"nx":115,"ny":88,"refTime":"2024-07-04T18:00:00:Z","depth":0,"parameterNumber":2,"parameterNumberName":"U-component_of_WINDS"},"data":[0.0,0.0,0.0,0.0,0.0,0.0,0.0,0.0,0.0,0.0,0.0,0.0,0.0,0.0,0.0,0.0,0.0,0.0,0.0,0.0,0.0,0.0,0.0,0.0,0.0,0.0,0.0,0.0,0.0,0.0,0.0,0.0,0.0,0.0,0.0,0.0,0.0,0.0,0.0,0.0,0.0,0.0,0.0,0.0,0.0,0.0,0.0,0.0,0.0,0.0,0.0,0.0,0.0,0.0,0.0,0.0,0.0,0.0,0.0,0.0,0.0,0.0,0.0,0.0,0.0,0.0,0.0,0.0,0.0,0.0,0.0,0.0,0.0,0.0,0.0,0.0,0.0,0.0,0.0,0.0,0.0,0.0,0.0,0.0,0.0,0.0,0.0,0.0,0.0,0.0,0.0,0.0,0.0,0.0,0.0,0.0,0.0,0.0,0.0,0.0,0.0,0.0,0.0,0.0,0.0,0.0,0.0,0.0,0.0,0.0,0.0,0.0,0.0,0.0,0.0,0.0,0.0,0.0,0.0,0.0,0.0,0.0,0.0,0.0,0.0,0.0,0.0,0.0,0.0,0.0,0.0,0.0,0.0,0.0,0.0,0.0,0.0,0.0,0.0,0.0,0.0,0.0,0.0,0.0,0.0,0.0,0.0,0.0,0.0,0.0,0.0,0.0,0.0,0.0,0.0,0.0,0.0,0.0,0.0,0.0,0.0,0.0,0.0,0.0,0.0,0.0,0.0,0.0,0.0,0.0,0.0,0.0,0.0,0.0,0.0,0.0,0.0,0.0,0.0,0.0,0.0,0.0,0.0,0.0,0.0,0.0,0.0,0.0,0.0,0.0,0.0,0.0,0.0,0.0,0.0,0.0,0.0,0.0,0.0,0.0,0.0,0.0,0.0,0.0,0.0,0.0,0.0,0.0,0.0,0.0,0.0,0.0,0.0,0.0,0.0,0.0,0.0,0.0,0.0,0.0,0.0,0.0,0.0,0.0,0.0,0.0,0.0,0.0,0.0,0.0,0.0,0.0,0.0,0.0,0.0,0.0,0.0,0.0,0.0,0.0,0.0,0.0,0.0,0.0,0.0,0.0,0.0,0.0,0.0,0.0,0.0,0.0,0.0,0.0,0.0,0.0,0.0,0.0,0.0,0.0,0.0,0.0,0.0,0.0,0.0,0.0,0.0,0.0,0.0,0.0,0.0,0.0,0.0,0.0,0.0,0.0,0.0,0.0,0.0,0.0,0.0,0.0,0.0,0.0,0.0,0.0,0.0,0.0,0.0,0.0,0.0,0.0,0.0,0.0,0.0,0.0,0.0,0.0,0.0,0.0,0.0,0.0,0.0,0.0,0.0,0.0,0.0,0.0,0.0,0.0,0.0,0.0,0.0,0.0,0.0,0.0,0.0,0.0,0.0,0.0,0.0,0.0,0.0,0.0,0.0,0.0,0.0,0.0,0.0,0.0,0.0,0.0,0.0,0.0,0.0,0.0,0.0,0.0,0.0,0.0,0.0,0.0,0.0,0.0,0.0,0.0,0.0,0.0,0.0,0.0,0.0,0.0,0.0,0.0,0.0,0.0,0.0,0.0,0.0,0.0,0.0,0.0,0.0,0.0,0.0,0.0,0.0,0.0,0.0,0.0,0.0,0.0,0.0,0.0,0.0,0.0,0.0,0.0,0.0,0.0,0.0,0.0,0.0,0.0,0.0,0.0,0.0,0.0,0.0,0.0,0.0,0.0,0.0,0.0,0.0,0.0,0.0,0.0,0.0,0.0,0.0,0.0,0.0,0.0,0.0,0.0,0.0,0.0,0.0,0.0,0.0,0.0,0.0,0.0,0.0,0.0,0.0,0.0,0.0,0.0,0.0,0.0,0.0,0.0,0.0,0.0,0.0,0.0,0.0,0.0,0.0,0.0,0.0,0.0,0.0,0.0,0.0,0.0,0.0,0.0,0.0,0.0,0.0,0.0,0.0,0.0,0.0,0.0,0.0,0.0,0.0,0.0,0.0,0.0,0.0,0.0,0.0,0.0,0.0,0.0,0.0,0.0,0.0,0.0,0.0,0.0,0.0,0.0,0.0,0.0,0.0,0.0,0.0,0.0,0.0,0.0,0.0,0.0,0.0,0.0,0.0,0.0,0.0,0.0,0.0,0.0,0.0,0.0,0.0,0.0,0.0,0.0,0.0,0.0,0.0,0.0,0.0,0.0,0.0,0.0,0.0,0.0,0.0,0.0,0.0,0.0,0.0,0.0,0.0,0.0,0.0,0.0,0.0,0.0,0.0,0.0,0.0,0.0,0.0,0.0,0.0,0.0,0.0,0.0,0.0,0.0,0.0,0.0,0.0,0.0,0.0,0.0,0.0,0.0,0.0,0.0,0.0,0.0,0.0,0.0,0.0,0.0,0.0,0.0,0.0,0.0,0.0,0.0,0.0,0.0,0.0,0.0,0.0,0.0,0.0,0.0,0.0,0.0,0.0,0.0,0.0,0.0,0.0,0.0,0.0,0.0,0.0,0.0,0.0,0.0,0.0,0.0,0.0,0.0,0.0,0.0,0.0,0.0,0.0,0.0,0.0,0.0,0.0,0.0,0.0,0.0,0.0,0.0,0.0,0.0,0.0,0.0,0.0,0.0,0.0,0.0,0.0,0.0,0.0,0.0,0.0,0.0,0.0,0.0,0.0,0.0,0.0,0.0,0.0,0.0,0.0,0.0,0.0,0.0,0.0,0.0,0.0,0.0,0.0,0.0,0.0,0.0,0.0,0.0,0.0,0.0,0.0,0.0,0.0,0.0,0.0,0.0,0.0,0.0,0.0,0.0,0.0,0.0,0.0,0.0,0.0,0.0,0.0,0.0,0.0,0.0,0.0,0.0,0.0,0.0,0.0,0.0,0.0,0.0,0.0,0.0,0.0,0.0,0.0,0.0,0.0,0.0,0.0,0.0,0.0,0.0,0.0,0.0,0.0,0.0,0.0,0.0,0.0,0.0,0.0,0.0,0.0,0.0,0.0,0.0,0.0,0.0,0.0,0.0,0.0,0.0,0.0,0.0,0.0,0.0,0.0,0.0,0.0,0.0,0.0,0.0,0.0,0.0,0.0,0.0,0.0,0.0,0.0,0.0,0.0,0.0,0.0,0.0,0.0,0.0,0.0,0.0,0.0,0.0,0.0,0.0,0.0,0.0,0.0,0.0,0.0,0.0,0.0,0.0,0.0,0.0,0.0,0.0,0.0,0.0,0.0,0.0,0.0,0.0,0.0,0.0,0.0,0.0,0.0,0.0,0.0,0.0,0.0,0.0,0.0,0.0,0.0,0.0,0.0,0.0,0.0,0.0,0.0,0.0,0.0,0.0,0.0,0.0,0.0,0.0,0.0,0.0,0.0,0.0,0.0,0.0,0.0,0.0,0.0,0.0,0.0,0.0,0.0,0.0,0.0,0.0,0.0,0.0,0.0,0.0,0.0,0.0,0.0,0.0,0.0,0.0,0.0,0.0,0.0,0.0,0.0,0.0,0.0,0.0,0.0,0.0,0.0,0.0,0.0,0.0,0.0,0.0,0.0,0.0,0.0,0.0,0.0,0.0,0.0,0.0,0.0,0.0,0.0,0.0,0.0,0.0,0.0,0.0,0.0,0.0,0.0,0.0,0.0,0.0,0.0,0.0,0.0,0.0,0.0,0.0,0.0,0.0,0.0,0.0,0.0,0.0,0.0,0.0,0.0,0.0,0.0,0.0,0.0,0.0,0.0,0.0,0.0,0.0,0.0,0.0,0.0,0.0,0.0,0.0,0.0,0.0,0.0,0.0,0.0,0.0,0.0,0.0,0.0,0.0,0.0,0.0,0.0,0.0,0.0,0.0,0.0,0.0,0.0,0.0,0.0,0.0,0.0,0.0,0.0,0.0,0.0,0.0,0.0,0.0,0.0,0.0,0.0,0.0,0.0,0.0,0.0,0.0,0.0,0.0,0.0,0.0,0.0,0.0,0.0,0.0,0.0,0.0,0.0,0.0,0.0,0.0,0.0,0.0,0.0,0.0,0.0,0.0,0.0,0.0,0.0,0.0,0.0,0.0,0.0,0.0,0.0,0.0,0.0,0.0,0.0,0.0,0.0,0.0,0.0,0.0,0.0,0.0,0.0,0.0,0.0,0.0,0.0,0.0,0.0,0.0,0.0,0.0,0.0,0.0,0.0,0.0,0.0,0.0,0.0,0.0,0.0,0.0,0.0,0.0,0.0,0.0,0.0,0.0,0.0,0.0,0.0,0.0,0.0,0.0,0.0,0.0,-0.0,0.0,0.0,0.0,0.0,0.0,0.0,0.0,0.0,0.0,0.0,0.0,0.0,0.0,0.0,0.0,0.0,0.0,0.0,0.0,0.0,0.0,0.0,0.0,0.0,0.0,0.0,0.0,0.0,0.0,0.0,0.0,0.0,0.0,0.0,0.0,0.0,0.0,0.0,0.0,0.0,0.0,0.0,0.0,0.0,0.0,0.0,0.0,0.0,0.0,0.0,0.0,0.0,0.0,0.0,0.0,0.0,0.0,0.0,0.0,0.0,0.0,0.0,0.0,0.0,0.0,0.0,0.0,0.0,0.0,0.0,0.0,0.0,0.0,0.0,0.0,0.0,0.0,0.0,0.0,0.0,0.0,0.0,0.0,0.0,0.0,0.0,0.0,0.0,0.0,0.0,0.0,0.0,0.0,0.0,0.0,0.0,0.0,0.0,0.0,0.0,0.0,0.0,0.0,0.0,0.0,0.0,0.0,0.0,0.0,0.0,0.0247,0.0225,0.0202,0.0225,0.0225,0.0,0.0,0.0,0.0,0.0,0.0,0.0,0.0,0.0,0.0,0.0,0.0,0.0,0.0,0.0,0.0,0.0,0.0,0.0,0.0,0.0,0.0,0.0,0.0,0.0,0.0,0.0,0.0,0.0,0.0,0.0,0.0,0.0,0.0,0.0,0.0,0.0,0.0,0.0,0.0,0.0,0.0,0.0,0.0,0.0,0.0,0.0,0.0,0.0,0.0,0.0,0.0,0.0,0.0,0.0,0.0,0.0,0.0,0.0,0.0,0.0,0.0,0.0,0.0,0.0,0.0,0.0,0.0,0.0,0.0,0.0,0.0,0.0,0.0,0.0,0.0,0.0,0.0,0.0,0.0,0.0,0.0,0.0,0.0,0.0,0.0,0.0,0.0,0.0,0.0,0.0,0.0,0.0,0.0,0.0,0.0,0.0,0.0,0.0,0.0,0.0,0.0,0.0,0.0,0.0,0.0,0.0,0.0,0.0,0.0,0.0,0.0,0.0494,0.0494,0.0463,0.0,0.0,0.0,0.0,0.0,0.0,0.0,0.0,0.0,0.0,0.0,0.0,0.0,0.0,0.0,0.0,0.0,0.0,0.0,0.0,0.0,0.0,0.0,0.0,0.0,0.0,0.0,0.0,0.0,0.0,0.0,0.0,0.0,0.0,0.0,0.0,0.0,0.0,0.0,0.0,0.0,0.0,0.0,0.0,0.0,0.0,0.0,0.0,0.0,0.0,0.0,0.0,0.0,0.0,0.0,0.0,0.0,0.0,0.0,0.0,0.0,0.0,0.0,0.0,0.0,0.0,0.0,0.0,0.0,0.0,0.0,0.0,0.0,0.0,0.0,0.0,0.0,0.0,0.0,0.0,0.0,0.0,0.0,0.0,0.0,0.0,0.0,0.0,0.0,0.0,0.0,0.0,0.0,0.0,0.0,0.0,0.0,0.0,0.0,0.0,0.0,0.0,0.0,0.0,0.0,0.0,0.0,0.0,0.0,0.0,0.0797,0.0696,0.0796,0.0,0.0657,0.0,0.0,0.0,0.0,0.0,0.0,0.0,0.0,0.0,0.0,0.0,0.0,0.0,0.0,0.0,0.0,0.0,0.0,0.0,0.0,0.0,0.0,0.0,0.0,0.0,0.0,0.0,0.0,0.0,0.0,0.0,0.0,0.0,0.0,0.0,0.0,0.0,0.0,0.0,0.0,0.0,0.0,0.0,0.0,0.0,0.0,0.0,0.0,0.0,0.0,0.0,0.0,0.0,0.0,0.0,0.0,0.0,0.0,0.0,0.0,0.0,0.0,0.0,0.0,0.0,0.0,0.0,0.0,0.0,0.0,0.0,0.0,0.0,0.0,0.0,0.0,0.0,0.0,0.0,0.0,0.0,0.0,0.0,0.0,0.0,0.0,0.0,0.0,0.0,0.0,0.0,0.0,0.0,0.0,0.0,0.0,0.0,0.0,0.0,0.0,0.0,0.0,0.0,0.0,0.0,0.0,0.0,0.0,0.0,0.0,0.0,0.1099,0.116,0.114,0.0,0.0,0.0,0.0,0.0,0.0,0.0,0.0,0.0,0.0,0.0,0.0,0.0,0.0,0.0,0.0,0.0,0.0,0.0,0.0,0.0,0.0,0.0,0.0,0.0,0.0,0.0,0.0,0.0,0.0,0.0,0.0,0.0,0.0,0.0,0.0,0.0,0.0,0.0,0.0,0.0,0.0,0.0,0.0,0.0,0.0,0.0,0.0,0.0,0.0,0.0,0.0,0.0,0.0,0.0,0.0,0.0,0.0,0.0,0.0,0.0,0.0,0.0,0.0,0.0,0.0,0.0,0.0,0.0,0.0,0.0,0.0,0.0,0.0,0.0,0.0,0.0,0.0,0.0,0.0,0.0,0.0,0.0,0.0,0.0,0.0,0.0,0.0,0.0,0.0,0.0,0.0,0.0,0.0,0.0,0.0,0.0,0.0,0.0,0.0,0.0,0.0,0.0,0.0,0.0,0.0,0.0,0.0,0.0,0.0,0.1389,0.0,0.1467,0.1476,0.1394,0.1226,0.0,0.0,0.0,0.0,0.0,0.0,0.0,0.0,0.0,0.0,0.0,0.0,0.0,0.0,0.0,0.0,0.0,0.0,0.0,0.0,0.0,0.0,0.0,0.0,0.0,0.0,0.0,0.0,0.0,0.0,0.0,0.0,0.0,0.0,0.0,0.0,0.0,0.0,0.0,0.0,0.0,0.0,0.0,0.0,0.0,0.0,0.0,0.0,0.0,0.0,0.0,0.0,0.0,0.0,0.0,0.0,0.0,0.0,0.0,0.0,0.0,0.0,0.0,0.0,0.0,0.0,0.0,0.0,0.0,0.0,0.0,0.0,0.0,0.0,0.0,0.0,0.0,0.0,0.0,0.0,0.0,0.0,0.0,0.0,0.0,0.0,0.0,0.0,0.0,0.0,0.0,0.0,0.0,0.0,0.0,0.0,0.0,0.0,0.0,0.0,0.0,0.0,0.0,0.0,0.0,0.0,0.0,0.0,0.0,0.157,0.163,0.1685,0.1628,0.1515,0.0,0.0,0.0,0.0,0.0,0.0,0.0,0.0,0.0,0.0,0.0,0.0,0.0,0.0,0.0,0.0,0.0,0.0,0.0,0.0,0.0,0.0,0.0,0.0,0.0,0.0,0.0,0.0,0.0,0.0,0.0,0.0,0.0,0.0,0.0,0.0,0.0,0.0,0.0,0.0,0.0,0.0,0.0,0.0,0.0,0.0,0.0,0.0,0.0,0.0,0.0,0.0,0.0,0.0,0.0,0.0,0.0,0.0,0.0,0.0,0.0,0.0,0.0,0.0,0.0,0.0,0.0,0.0,0.0,0.0,0.0,0.0,0.0,0.0,0.0,0.0,0.0,0.0,0.0,0.0,0.0,0.0,0.0,0.0,0.0,0.0,0.0,0.0,0.0,0.0,0.0,0.0,0.0,0.0,0.0,0.0,0.0,0.0,0.0,0.0,0.0,0.0,0.0,0.0,0.0,0.0,0.0,0.0,0.0,0.1694,0.183,0.1932,0.1942,0.1878,0.18,0.0,0.0,0.0,0.0,0.0,0.0,0.0,0.0,0.0,0.0,0.0,0.0,0.0,0.0,0.0,0.0,0.0,0.0,0.0,0.0,0.0,0.0,0.0,0.0,0.0,0.0,0.0,0.0,0.0,0.0,0.0,0.0,0.0,0.0,0.0,0.0,0.0,0.0,0.0,0.0,0.0,0.0,0.0,0.0,0.0,0.0,0.0,0.0,0.0,0.0,0.0,0.0,0.0,0.0,0.0,0.0,0.0,0.0,0.0,0.0,0.0,0.0,0.0,0.0,0.0,0.0,0.0,0.0,0.0,0.0,0.0,0.0,0.0,0.0,0.0,0.0,0.0,0.0,0.0,0.0,0.0,0.0,0.0,0.0,0.0,0.0,0.0,0.0,0.0,0.0,0.0,0.0,0.0,0.0,0.0,0.0,0.0,0.0,0.0,0.0,0.0,0.0,0.0,0.0,0.0,0.0,0.0,0.0,0.0,0.1869,0.0,0.2114,0.0,0.2039,0.1952,0.0,0.0,0.0,0.0,0.0,0.0,0.0,0.0,0.0,0.0,0.0,0.0,0.0,0.0,0.0,0.0,0.0,0.0,0.0,0.0,0.0,0.0,0.0,0.0,0.0,0.0,0.0,0.0,0.0,0.0,0.0,0.0,0.0,0.0,0.0,0.0,0.0,0.0,0.0,0.0,0.0,0.0,0.0,0.0,0.0,0.0,0.0,0.0,0.0,0.0,0.0,0.0,0.0,0.0,0.0,0.0,0.0,0.0,0.0,0.0,0.0,0.0,0.0,0.0,0.0,0.0,0.0,0.0,0.0,0.0,0.0,0.0,0.0,0.0,0.0,0.0,0.0,0.0,0.0,0.0,0.0,0.0,0.0,0.0,0.0,0.0,0.0,0.0,0.0,0.0,0.0,0.0,0.0,0.0,0.0,0.0,0.0,0.0,0.0,0.0,0.0,0.0,0.0,0.0,0.0,0.0,0.0,0.0,0.1732,0.199,0.2061,0.213,0.2117,0.2114,0.1999,0.0,0.0,0.0,0.0,0.0,0.0,0.0,0.0,0.0,0.0,0.0,0.0,0.0,0.0,0.0,0.0,0.0,0.0,0.0,0.0,0.0,0.0,0.0,0.0,0.0,0.0,0.0,0.0,0.0,0.0,0.0,0.0,0.0,0.0,0.0,0.0,0.0,0.0,0.0,0.0,0.0,0.0,0.0,0.0,0.0,0.0,0.0,0.0,0.0,0.0,0.0,0.0,0.0,0.0,0.0,0.0,0.0,0.0,0.0,0.0,0.0,0.0,0.0,0.0,0.0,0.0,0.0,0.0,0.0,0.0,0.0,0.0,0.0,0.0,0.0,0.0,0.0,0.0,0.0,0.0,0.0,0.0,0.0,0.0,0.0,0.0,0.0,0.0,0.0,0.0,0.0,0.0,0.0,0.0,0.0,0.0,0.0,0.0,0.0,0.0,0.0,0.0,0.0,0.0,0.0,0.0,0.0,0.0,0.0,0.2058,0.2256,0.2317,0.2243,0.216,0.2002,0.0,0.0,0.0,0.0,0.0,0.0,0.0,0.0,0.0,0.0,0.0,0.0,0.0,0.0,0.0,0.0,0.0,0.0,0.0,0.0,0.0,0.0,0.0,0.0,0.0,0.0,0.0,0.0,0.0,0.0,0.0,0.0,0.0,0.0,0.0,0.0,0.0,0.0,0.0,0.0,0.0,0.0,0.0,0.0,0.0,0.0,0.0,0.0,0.0,0.0,0.0,0.0,0.0,0.0,0.0,0.0,0.0,0.0,0.0,0.0,0.0,0.0,0.0,0.0,0.0,0.0,0.0,0.0,0.0,0.0,0.0,0.0,0.0,0.0,0.0,0.0,0.0,0.0,0.0,0.0,0.0,0.0,0.0,0.0,0.0,0.0,0.0,0.0,0.0,0.0,0.0,0.0,0.0,0.0,0.0,0.0,0.0,0.0,0.0,0.0,0.0,0.0,0.0,0.0,0.0,0.0,0.0,0.0,0.0,0.2414,0.2514,0.2536,0.2427,0.2307,0.2145,0.1894,0.0,0.0,0.0,0.0,0.0,0.0,0.0,0.0,0.0,0.0,0.0,0.0,0.0,0.0,0.0,0.0,0.0,0.0,0.0,0.0,0.0,0.0,0.0,0.0,0.0,0.0,0.0,0.0,0.0,0.0,0.0,0.0,0.0,0.0,0.0,0.0,0.0,0.0,0.0,0.0,0.0,0.0,0.0,0.0,0.0,0.0,0.0,0.0,0.0,0.0,0.0,0.0,0.0,0.0,0.0,0.0,0.0,0.0,0.0,0.0,0.0,0.0,0.0,0.0,0.0,0.0,0.0,0.0,0.0,0.0,0.0,0.0,0.0,0.0,0.0,0.0,0.0,0.0,0.0,0.0,0.0,0.0,0.0,0.0,0.0,0.0,0.0,0.0,0.0,0.0,0.0,0.0,0.0,0.0,0.0,0.0,0.0,0.0,0.0,0.0,0.0,0.0,0.0,0.0,0.0,0.0,0.0,0.0,0.2918,0.2778,0.2721,0.2702,0.2588,0.2351,0.0,0.0,0.0,0.0,0.0,0.0,0.0,0.0,0.0,0.0,0.0,0.0,0.0,0.0,0.0,0.0,0.0,0.0,0.0,0.0,0.0,0.0,0.0,0.0,0.0,0.0,0.0,0.0,0.0,0.0,0.0,0.0,0.0,0.0,0.0,0.0,0.0,0.0,0.0,0.0,0.0,0.0,0.0,0.0,0.0,0.0,0.0,0.0,0.0,0.0,0.0,0.0,0.0,0.0,0.0,0.0,0.0,0.0,0.0,0.0,0.0,0.0,0.0,0.0,0.0,0.0,0.0,0.0,0.0,0.0,0.0,0.0,0.0,0.0,0.0,0.0,0.0,0.0,0.0,0.0,0.0,0.0,0.0,0.0,0.0,0.0,0.0,0.0,0.0,0.0,0.0,0.0,0.0,0.0,0.0,0.0,0.0,0.0,0.0,0.0,0.0,0.0,0.0,0.0,0.0,0.0,0.0,0.0,0.0,0.299,0.314,0.3131,0.2914,0.2835,0.2644,0.0,0.0,0.0,0.0,0.0,0.0,0.0,0.0,0.0,0.0,0.0,0.0,0.0,0.0,0.0,0.0,0.0,0.0,0.0,0.0,0.0,0.0,0.0,0.0,0.0,0.0,0.0,0.0,0.0,0.0,0.0,0.0,0.0,0.0,0.0,0.0,0.0,0.0,0.0,0.0,0.0,0.0,0.0,0.0,0.0,0.0,0.0,0.0,0.0,0.0,0.0,0.0,0.0,0.0,0.0,0.0,0.0,0.0,0.0,0.0,0.0,0.0,0.0,0.0,0.0,0.0,0.0,0.0,0.0,0.0,0.0,0.0,0.0,0.0,0.0,0.0,0.0,0.0,0.0,0.0,0.0,0.0,0.0,0.0,0.0,0.0,0.0,0.0,0.0,0.0,0.0,0.0,0.0,0.0,0.0,0.0,0.0,0.0,0.0,0.0,0.0,0.0,0.0,0.0,0.0,0.0,0.0,0.0,0.2812,0.3067,0.3354,0.3414,0.3275,0.3061,0.2775,0.0,0.0,0.0,0.0,0.0,0.0,0.0,0.0,0.0,0.0,0.0,0.0,0.0,0.0,0.0,0.0,0.0,0.0,0.0,0.0,0.0,0.0,0.0,0.0,0.0,0.0,0.0,0.0,0.0,0.0,0.0,0.0,0.0,0.0,0.0,0.0,0.0,0.0,0.0,0.0,0.0,0.0,0.0,0.0,0.0,0.0,0.0,0.0,0.0,0.0,0.0,0.0,0.0,0.0,0.0,0.0,0.0,0.0,0.0,0.0,0.0,0.0,0.0,0.0,0.0,0.0,0.0,0.0,0.0,0.0,0.0,0.0,0.0,0.0,0.0,0.0,0.0,0.0,0.0,0.0,0.0,0.0,0.0,0.0,0.0,0.0,0.0,0.0,0.0,0.0,0.0,0.0,0.0,0.0,0.0,0.0,0.0,0.0,0.0,0.0,0.0,0.0,0.0,0.0,0.0,0.0,0.0,0.0,0.3061,0.3237,0.3463,0.3585,0.3577,0.3259,0.2874,0.0,0.0,0.0,0.0,0.0,0.0,0.0,0.0,0.0,0.0,0.0,0.0,0.0,0.0,0.0,0.0,0.0,0.0,0.0,0.0,0.0,0.0,0.0,0.0,0.0,0.0,0.0,0.0,0.0,0.0,0.0,0.0,0.0,0.0,0.0,0.0,0.0,0.0,0.0,0.0,0.0,0.0,0.0,0.0,0.0,0.0,0.0,0.0,0.0,0.0,0.0,0.0,0.0,0.0,0.0,0.0,0.0,0.0,0.0,0.0,0.0,0.0,0.0,0.0,0.0,0.0,0.0,0.0,0.0,0.0,0.0,0.0,0.0,0.0,0.0,0.0,0.0,0.0,0.0,0.0,0.0,0.0,0.0,0.0,0.0,0.0,0.0,0.0,0.0,0.0,0.0,0.0,0.0,0.0,0.0,0.0,0.0,0.0,0.0,0.0,0.0,0.0,0.0,0.0,0.0,0.0,0.0,0.0,0.3102,0.3357,0.3509,0.3585,0.3583,0.3417,0.3205,0.0,0.0,0.0,0.0,0.0,0.0,0.0,0.0,0.0,0.0,0.0,0.0,0.0,0.0,0.0,0.0,0.0,0.0,0.0,0.0,0.0,0.0,0.0,0.0,0.0,0.0,0.0,0.0,0.0,0.0,0.0,0.0,0.0,0.0,0.0,0.0,0.0,0.0,0.0,0.0,0.0,0.0,0.0,0.0,0.0,0.0,0.0,0.0,0.1449,0.0,0.0,0.0,0.0,0.0,0.0,0.0,0.0,0.0,0.0,0.0,0.0,0.0,0.0,0.0,0.0,0.0,0.0,0.0,0.0,0.0,0.0,0.0,0.0,0.0,0.0,0.0,0.0,0.0,0.0,0.0,0.0,0.0,0.0,0.0,0.0,0.0,0.0,0.0,0.0,0.0,0.0,0.0,0.0,0.0,0.0,0.0,0.0,0.0,0.0,0.0,0.0,0.0,0.0,0.0,0.0,0.0,0.0,0.0,0.3195,0.3479,0.3602,0.3661,0.3659,0.3547,0.3401,0.0,0.0,0.0,0.0,0.0,0.0,0.0,0.0,0.0,0.0,0.0,0.0,0.0,0.0,0.0,0.0,0.0,0.0,0.0,0.0,0.0,0.0,0.0,0.0,0.0,0.0,0.0,0.0,0.0,0.0,0.0,0.0,0.0,0.0,0.0,0.0,0.0,0.0,0.0,0.0,0.0,0.0,0.0,0.0,0.0,0.0,0.0,0.0,0.0,0.0,0.0,0.0,0.0,0.0,0.0,0.0,0.0,0.0,0.0,0.0,0.0,0.0,0.0,0.0,0.0,0.0,0.0,0.0,0.0,0.0,0.0,0.0,0.0,0.0,0.0,0.0,0.0,0.0,0.0,0.0,0.0,0.0,0.0,0.0,0.0,0.0,0.0,0.0,0.0,0.0,0.0,0.0,0.0,0.0,0.0,0.0,0.0,0.0,0.0,0.0,0.0,0.0,0.0,0.0,0.0,0.0,0.0,0.3047,0.3343,0.3602,0.3762,0.3812,0.3809,0.3626,0.3451,0.3251,0.0,0.0,0.0,0.0,0.0,0.0,0.0,0.0,0.0,0.0,0.0,0.0,0.0,0.0,0.0,0.0,0.0,0.0,0.0,0.0,0.0,0.0,0.0,0.0,0.0,0.0,0.0,0.0,0.0,0.0,0.0,0.0,0.0,0.0,0.0,0.0,0.0,0.0,0.1813,0.2084,0.0,0.0,0.0,0.0,0.0,0.0,0.0,0.0,0.1875,0.0,0.0,0.0,0.0,0.0,0.0,0.0,0.0,0.0,0.0,0.0,0.0,0.0,0.0,0.0,0.0,0.0,0.0,0.0,0.0,0.0,0.0,0.0,0.0,0.0,0.0,0.0,0.0,0.0,0.0,0.0,0.0,0.0,0.0,0.0,0.0,0.0,0.0,0.0,0.0,0.0,0.0,0.0,0.0,0.0,0.0,0.0,0.0,0.0,0.0,0.0,0.0,0.0,0.0,0.0,0.0,0.2876,0.3091,0.3381,0.3773,0.3801,0.3812,0.3807,0.3545,0.3259,0.2963,0.0,0.0,0.0,0.0,0.0,0.0,0.0,0.0,0.0,0.0,0.0,0.0,0.0,0.0,0.0,0.0,0.0,0.0,0.0,0.0,0.0,0.0,0.0,0.0,0.0,0.0,0.0,0.0,0.0,0.0,0.0,0.0,0.0,0.0,0.0,0.0,0.0,0.0,0.0,0.2246,0.239,0.0,0.0,0.0,0.0,0.0,0.0,0.0,0.0,0.2053,0.0,0.0,0.0,0.0,0.0,0.0,0.0,0.0,0.0,0.0,0.0,0.0,0.0,0.0,0.0,0.0,0.0,0.0,0.0,0.0,0.0,0.0,0.0,0.0,0.0,0.0,0.0,0.0,0.0,0.0,0.0,0.0,0.0,0.0,0.0,0.0,0.0,0.0,0.0,0.0,0.0,0.0,0.0,0.0,0.0,0.0,0.0,0.0,0.0,0.0,0.0,0.0,0.0,0.0,0.0,0.2898,0.3099,0.3422,0.383,0.3846,0.3906,0.3963,0.3674,0.3302,0.0,0.0,0.0,0.0,0.0,0.0,0.0,0.0,0.0,0.0,0.0,0.0,0.0,0.0,0.0,0.0,0.0,0.0,0.0,0.0,0.0,0.0,0.0,0.0,0.0,0.0,0.0,0.0,0.0,0.0,0.0,0.0,0.0,0.0,0.0,0.0,0.0,0.0,0.0,0.0,0.2344,0.2601,0.273,0.0,0.0,0.0,0.0,0.0,0.0,0.2811,0.2606,0.0,0.0,0.0,0.0,0.0,0.0,0.0,0.0,0.0,0.0,0.0,0.0,0.0,0.0,0.0,0.0,0.0,0.0,0.0,0.0,0.0,0.0,0.0,0.0,0.0,0.0,0.0,0.0,0.0,0.0,0.0,0.0,0.0,0.0,0.0,0.0,0.0,0.0,0.0,0.0,0.0,0.0,0.0,0.0,0.0,0.0,0.0,0.0,0.0,0.0,0.0,0.0,0.0,0.0,0.0,0.2904,0.3123,0.3474,0.3851,0.396,0.396,0.4058,0.3708,0.335,0.0,0.0,0.0,0.0,0.0,0.0,0.0,0.0,0.0,0.0,0.0,0.0,0.0,0.0,0.0,0.0,0.0,0.0,0.0,0.0,0.0,0.0,0.0,0.0,0.0,0.0,0.0,0.0,0.0,0.0,0.0,0.0,0.0,0.0,0.0,0.0,0.0,0.0,0.0,0.0,0.0,0.2777,0.287,0.3111,0.0,0.0,0.0,0.0,0.3519,0.3302,0.0,0.0,0.0,0.0,0.0,0.0,0.0,0.0,0.0,0.0,0.0,0.0,0.0,0.0,0.0,0.0,0.0,0.0,0.0,0.0,0.0,0.0,0.0,0.0,0.0,0.0,0.0,0.0,0.0,0.0,0.0,0.0,0.0,0.0,0.0,0.0,0.0,0.0,0.0,0.0,0.0,0.0,0.0,0.0,0.0,0.0,0.0,0.0,0.0,0.0,0.0,0.0,0.0,0.0,0.0,0.0,0.2904,0.3207,0.3561,0.3856,0.3977,0.4045,0.3936,0.359,0.3206,0.0,0.0,0.0,0.0,0.0,0.0,0.0,0.0,0.0,0.0,0.0,0.0,0.0,0.0,0.0,0.0,0.0,0.0,0.0,0.0,0.0,0.0,0.0,0.0,0.0,0.0,0.0,0.0,0.0,0.0,0.0,0.0,0.0,0.0,0.0,0.0,0.0,0.0,0.0,0.0,0.0,0.2923,0.315,0.3497,0.3828,0.0,0.0,0.4026,0.4107,0.3671,0.0,0.0,0.0,0.0,0.0,0.0,0.0,0.0,0.0,0.0,0.0,0.0,0.0,0.0,0.0,0.0,0.0,0.0,0.0,0.0,0.0,0.0,0.0,0.0,0.0,0.0,0.0,0.0,0.0,0.0,0.0,0.0,0.0,0.0,0.0,0.0,0.0,0.0,0.0,0.0,0.0,0.0,0.0,0.0,0.0,0.0,0.0,0.0,0.0,0.0,0.0,0.0,0.0,0.0,0.0,0.2419,0.2909,0.3286,0.3645,0.3864,0.4053,0.3998,0.3811,0.353,0.3146,0.0,0.0,0.0,0.0,0.0,0.0,0.0,0.0,0.0,0.0,0.0,0.0,0.0,0.0,0.0,0.0,0.0,0.0,0.0,0.0,0.0,0.0,0.0,0.0,0.0,0.0,0.0,0.0,0.0,0.0,0.0,0.0,0.0,0.0,0.0,0.0,0.0,0.0,0.0,0.0,0.0,0.0,0.3271,0.3578,0.0,0.0,0.0,0.4289,0.4313,0.0,0.0,0.0,0.0,0.0,0.0,0.0,0.0,0.0,0.0,0.0,0.0,0.0,0.0,0.0,0.0,0.0,0.0,0.0,0.0,0.0,0.0,0.0,0.0,0.0,0.0,0.0,0.0,0.0,0.0,0.0,0.0,0.0,0.0,0.0,0.0,0.0,0.0,0.0,0.0,0.0,0.0,0.0,0.0,0.0,0.0,0.0,0.0,0.0,0.0,0.0,0.0,0.0,0.0,0.0,0.0,0.0,0.2911,0.3384,0.3743,0.3912,0.4099,0.4025,0.3689,0.35,0.0,0.0,0.0,0.0,0.0,0.0,0.0,0.0,0.0,0.0,0.0,0.0,0.0,0.0,0.0,0.0,0.0,0.0,0.0,0.0,0.0,0.0,0.0,0.0,0.0,0.0,0.0,0.1319,0.0,0.0,0.0,0.0,0.0,0.0,0.0,0.0,0.0,0.0,0.0,0.0,0.0,0.0,0.3134,0.3352,0.37,0.3977,0.0,0.0,0.4414,0.4349,0.414,0.3923,0.0,0.0,0.0,0.0,0.0,0.0,0.0,0.0,0.0,0.0,0.0,0.0,0.0,0.0,0.0,0.0,0.0,0.0,0.0,0.0,0.0,0.0,0.0,0.0,0.0,0.0,0.0,0.0,0.0,0.0,0.0,0.0,0.0,0.0,0.0,0.0,0.0,0.0,0.0,0.0,0.0,0.0,0.0,0.0,0.0,0.0,0.0,0.0,0.0,0.0,0.0,0.0,0.0,0.0,0.0,0.2986,0.3501,0.386,0.4096,0.4224,0.4108,0.3694,0.3515,0.3137,0.0,0.0,0.0,0.0,0.0,0.0,0.0,0.0,0.0,0.0,0.0,0.0,0.0,0.0,0.0,0.0,0.0,0.0,0.0,0.0,0.0,0.0,0.0,0.0,0.0,0.0,0.0,0.0,0.0,0.0,0.0,0.0,0.0,0.0,0.0,0.0,0.0,0.0,0.0,0.0,0.0,0.3251,0.3373,0.3866,0.411,0.0,0.0,0.4446,0.422,0.4003,0.3859,0.3939,0.0,0.0,0.0,0.0,0.0,0.0,0.0,0.0,0.0,0.0,0.0,0.0,0.0,0.0,0.0,0.0,0.0,0.0,0.0,0.0,0.0,0.0,0.0,0.0,0.0,0.0,0.0,0.0,0.0,0.0,0.0,0.0,0.0,0.0,0.0,0.0,0.0,0.0,0.0,0.0,0.0,0.0,0.0,0.0,0.0,0.0,0.0,0.0,0.0,0.0,0.0,0.0,0.0,0.2748,0.315,0.3623,0.395,0.4113,0.4103,0.3954,0.3547,0.3258,0.279,0.0,0.0,0.0,0.0,0.0,0.0,0.0,0.0,0.0,0.0,0.0,0.0,0.0,0.0,0.0,0.0,0.0,0.0,0.0,0.0,0.0,0.0,0.0,0.0,0.0,0.0,0.0,0.0,0.0915,0.0785,0.0694,0.0,0.0,0.0,0.0,0.0,0.0,0.0,0.0,0.0,0.0,0.3485,0.3602,0.3955,0.0,0.0,0.4383,0.441,0.4327,0.41,0.3898,0.3897,0.3793,0.0,0.0,0.0,0.0,0.0,0.0,0.0,0.0,0.0,0.0,0.0,0.0,0.0,0.0,0.0,0.0,0.0,0.0,0.0,0.0,0.0,0.0,0.0,0.0,0.0,0.0,0.0,0.0,0.0,0.0,0.0,0.0,0.0,0.0,0.0,0.0,0.0,0.0,0.0,0.0,0.0,0.0,0.0,0.0,0.0,0.0,0.0,0.0,0.0,0.0,0.0,0.0,0.2831,0.327,0.3655,0.3887,0.404,0.3924,0.3713,0.3286,0.3003,0.2518,0.0,0.0,0.0,0.0,0.0,0.0,0.0,0.0,0.0,0.0,0.0,0.0,0.0,0.0,0.0,0.0,0.0,0.0,0.0,0.0,0.0,0.0,0.0,0.0,0.0,0.0,0.0,0.0,0.0832,0.0768,0.0779,0.0,0.0,0.0,0.0,0.0,0.0,0.0,0.0,0.0,0.0,0.3637,0.3845,0.4062,0.4183,0.4238,0.4299,0.4327,0.4234,0.4104,0.3926,0.3863,0.0,0.0,0.0,0.0,0.0,0.0,0.0,0.0,0.0,0.0,0.0,0.0,0.0,0.0,0.0,0.0,0.0,0.0,0.0,0.0,0.0,0.0,0.0,0.0,0.0,0.0,0.0,0.1982,0.0,0.0,0.1636,0.0,0.0,0.0,0.0,0.0,0.0,0.0,0.0,0.0,0.0,0.0,0.0,0.0,0.0,0.0,0.0,0.0,0.0,0.0,0.0,0.0,0.0,0.2743,0.3395,0.3589,0.3806,0.3946,0.3694,0.3385,0.3095,0.2754,0.2332,0.2009,0.0,0.0,0.0,0.0,0.0,0.0,0.0,0.0,0.0,0.0,0.0,0.0,0.0,0.0,0.0,0.0,0.0,0.0,0.0,0.0,0.0,0.0,0.0,0.0,0.0,0.0,0.0805,0.0753,0.0755,0.0,0.0,0.0,0.0,0.0,0.0,0.0,0.0,0.0,0.0,0.358,0.3672,0.3837,0.4061,0.4133,0.3941,0.4067,0.4125,0.3933,0.387,0.3931,0.0,0.0,0.0,0.0,0.0,0.0,0.0,0.0,0.0,0.0,0.0,0.0,0.0,0.0,0.0,0.0,0.0,0.0,0.0,0.0,0.0,0.0,0.0,0.0,0.0,0.0,0.0,0.2078,0.2172,0.0,0.0,0.0,0.0,0.0,0.0,0.0,0.0,0.0,0.0,0.0,0.3512,0.3604,0.0,0.0,0.0,0.0,0.0,0.0,0.0,0.0,0.0,0.0,0.0,0.0,0.2988,0.3408,0.3428,0.3494,0.3625,0.3228,0.2874,0.2649,0.2322,0.1939,0.1523,0.0,0.0,0.0,0.0,0.0,0.0,0.0,0.0,0.0,0.0,0.0,0.0,0.0,0.0,0.0,0.0,0.0,0.0,0.0,0.0,0.0,0.0,0.0,0.0,0.0,0.0872,0.0,0.0,0.0,0.0,0.0,0.0,0.0,0.0,0.0,0.0,0.0,0.2821,0.3142,0.3299,0.3473,0.3673,0.387,0.3981,0.0,0.0,0.0,0.0,0.0,0.0,0.0,0.0,0.0,0.0,0.0,0.0,0.0,0.0,0.433,0.4353,0.4588,0.4789,0.4789,0.0,0.0,0.0,0.0,0.0,0.0,0.0,0.0,0.0,0.0,0.0,0.0,0.0,0.0,0.2392,0.0,0.2356,0.0,0.0,0.0,0.0,0.0,0.0,0.0,0.0,0.3566,0.3737,0.3939,0.3931,0.3933,0.0,0.3687,0.3433,0.0,0.0,0.0,0.0,0.0,0.0,0.0,0.0,0.3086,0.3339,0.3266,0.3199,0.3222,0.2824,0.2554,0.235,0.1898,0.1478,0.0998,0.092,0.08,0.0,0.0,0.0,0.0,0.0,0.0,0.0,0.0,0.0,0.0,0.0,0.0,0.0,0.0,0.0,0.0,0.0,0.0,0.0,0.0,0.0,0.0,0.0,0.0872,0.0,0.0,0.0,0.0,0.0,0.0,0.0,0.0,0.0,0.2181,0.2323,0.2544,0.2889,0.3078,0.3232,0.3463,0.0,0.0,0.0,0.0,0.0,0.0,0.0,0.3682,0.3612,0.3723,0.3899,0.3902,0.4024,0.4254,0.4459,0.0,0.0,0.4356,0.4482,0.4591,0.4587,0.4587,0.4604,0.4659,0.4912,0.498,0.0,0.0,0.0,0.0,0.0,0.0,0.0,0.0,0.2794,0.281,0.0,0.2792,0.0,0.0,0.0,0.0,0.0,0.3107,0.0,0.0,0.4053,0.4217,0.4219,0.4206,0.4209,0.4209,0.4021,0.4032,0.4017,0.3374,0.0,0.0,0.0,0.0,0.0,0.0,0.303,0.3083,0.2933,0.2819,0.2693,0.2565,0.2363,0.2157,0.1509,0.088,0.0415,0.0343,0.0326,0.0355,0.0226,0.0,0.0,0.0,0.0,0.0,0.0,0.0,0.0,0.0,0.0,0.0,0.0,0.0,0.0,0.0,0.0,0.0,0.0,0.0,0.0,0.0931,0.0,0.0,0.0,0.0,0.0,0.0,0.0,0.0,0.0,0.0,0.1951,0.205,0.2236,0.2693,0.0,0.0,0.0,0.0,0.3711,0.3567,0.3792,0.4,0.3998,0.3998,0.3998,0.3996,0.0,0.0,0.3937,0.3939,0.3937,0.4007,0.4135,0.4261,0.4273,0.4112,0.4042,0.4151,0.4163,0.424,0.4415,0.4547,0.4609,0.3366,0.0,0.0,0.0,0.0,0.2979,0.2974,0.3062,0.3043,0.3136,0.322,0.3184,0.0,0.0,0.0,0.0,0.0,0.0,0.3727,0.3908,0.4142,0.4292,0.4436,0.4288,0.4182,0.4242,0.407,0.4002,0.3958,0.3711,0.3573,0.3558,0.0,0.0,0.0,0.0,0.3068,0.3148,0.2615,0.2406,0.2711,0.2068,0.1696,0.1454,0.1192,0.0768,0.0126,-0.0419,-0.0513,-0.0218,-0.0197,0.0,0.0,0.0,0.0,0.0,0.0,0.0,0.0,0.0,0.0,0.0,0.0,0.0,0.0,0.0,0.0,0.0,0.0,0.0,0.0824,0.0891,0.0972,0.0,0.0,0.0,0.0,0.0,0.0,0.0,0.0,0.0,0.0649,0.1429,0.1921,0.0,0.0,0.2473,0.2488,0.2651,0.2805,0.3022,0.3262,0.0,0.3564,0.364,0.357,0.3425,0.3477,0.3462,0.352,0.3683,0.3817,0.3828,0.381,0.3741,0.3496,0.3783,0.3915,0.3846,0.3705,0.3644,0.3742,0.3751,0.3749,0.3865,0.3552,0.3426,0.3322,0.3228,0.332,0.3356,0.336,0.3416,0.344,0.3581,0.3523,0.3546,0.3507,0.345,0.0,0.0,0.0,0.3902,0.4118,0.4196,0.438,0.4428,0.4318,0.4291,0.4341,0.4148,0.4137,0.4227,0.4142,0.3975,0.3853,0.0,0.0,0.3288,0.3077,0.2905,0.2849,0.2369,0.2042,0.1896,0.1239,0.072,0.049,0.0475,0.0266,-0.0197,-0.062,-0.0774,-0.0642,-0.0583,-0.0525,0.0,0.0,0.0,0.0,0.0,0.0,0.0,0.0,0.0,0.0,0.0,0.0727,0.0,0.0,0.0,0.0,0.0727,0.0548,0.0387,0.0515,0.0,0.0,0.0,0.0,0.0,0.0,0.0,0.0257,-0.0,-0.021,-0.0438,0.0146,0.0729,0.0875,0.1239,0.1603,0.1748,0.0,0.2071,0.2442,0.2761,0.2938,0.3039,0.3199,0.3211,0.3242,0.3283,0.3329,0.3374,0.3547,0.3691,0.3644,0.3551,0.3456,0.3177,0.34,0.3577,0.3375,0.3276,0.3201,0.3201,0.3127,0.3127,0.432,0.4291,0.3965,0.3771,0.3689,0.3771,0.3805,0.3805,0.3805,0.3805,0.3882,0.3797,0.3744,0.3658,0.3658,0.0,0.3665,0.384,0.4003,0.4172,0.4261,0.4303,0.4303,0.4294,0.4292,0.4292,0.4283,0.4365,0.4601,0.4341,0.4175,0.3934,0.3739,0.3453,0.3017,0.3026,0.2712,0.2122,0.2053,0.1615,0.066,0.0073,-0.0289,-0.0562,-0.0561,-0.0554,-0.0539,-0.0511,-0.0619,-0.0986,-0.0847,-0.0778,-0.0721,0.0,0.0,0.0,0.0,0.0,0.0,0.0,0.0,0.0,0.0,0.0,0.0,0.0,0.0,0.0,0.019,0.0,-0.0143,-0.01,0.0,0.0,0.0,0.0058,-0.0062,-0.0064,-0.0133,-0.0211,0.0,0.0,-0.126,-0.1288,-0.0956,-0.0074,0.0221,0.0443,0.0811,0.0981,0.1299,0.1687,0.2181,0.2464,0.2507,0.276,0.2941,0.3155,0.3275,0.3265,0.335,0.3435,0.3441,0.3262,0.3357,0.3437,0.3188,0.309,0.2951,0.2859,0.288,0.2871,0.2881,0.2803,0.2651,0.4508,0.45,0.4416,0.4285,0.414,0.4161,0.4171,0.4171,0.4173,0.4173,0.4169,0.4106,0.4024,0.394,0.3938,0.3938,0.3942,0.4057,0.4193,0.4199,0.4282,0.4322,0.4318,0.4255,0.4224,0.422,0.4151,0.4032,0.3948,0.3906,0.3639,0.3307,0.3483,0.3409,0.326,0.3165,0.2461,0.1276,0.0994,0.054,-0.0154,-0.0682,-0.1038,-0.1012,-0.0991,-0.0969,-0.0944,-0.0913,-0.0885,-0.0988,-0.0924,-0.086,-0.0749,-0.0734,0.0,0.0,0.0,0.0,0.0,0.0,0.0,0.0,0.0,-0.0039,0.0158,0.0,0.0131,0.0,-0.0046,-0.0244,-0.0361,-0.0393,0.0,0.0,-0.0878,-0.0853,-0.0882,-0.0976,-0.1013,-0.0989,-0.11,-0.1292,-0.1568,-0.158,-0.1576,-0.155,-0.1139,-0.0813,-0.057,-0.0327,-0.0082,0.041,0.1151,0.1824,0.1831,0.2336,0.2761,0.2773,0.2776,0.2775,0.286,0.3109,0.3275,0.3106,0.3189,0.3193,0.2947,0.2944,0.2846,0.2533,0.2408,0.2458,0.2456,0.2267,0.2163,0.4689,0.4689,0.4689,0.463,0.453,0.4455,0.4422,0.4422,0.4422,0.442,0.4418,0.4369,0.432,0.4277,0.4275,0.4275,0.4279,0.4328,0.4328,0.4293,0.4338,0.4336,0.4297,0.4251,0.4142,0.4054,0.4006,0.3809,0.3545,0.3599,0.3413,0.2904,0.3045,0.2707,0.2109,0.2051,0.158,0.0548,-0.0,-0.055,-0.0785,-0.1163,-0.1287,-0.1168,-0.115,-0.1115,-0.1061,-0.1029,-0.0999,-0.1029,-0.0923,-0.0876,-0.083,-0.0783,-0.0738,0.0,0.0,0.0,0.0,0.0,0.0,0.0,0.0,0.0,0.0,0.0,-0.0465,-0.0681,-0.0706,-0.0797,-0.1027,-0.1017,-0.1124,-0.1493,-0.1538,-0.1516,-0.1569,-0.1595,-0.1633,-0.1614,-0.1654,-0.1768,-0.1874,-0.1894,-0.1992,-0.2078,-0.1904,-0.1719,-0.1603,-0.1598,-0.1429,-0.084,-0.0168,0.0422,0.0936,0.1462,0.1905,0.2252,0.2339,0.2512,0.2773,0.2946,0.303,0.2943,0.2944,0.2858,0.2686,0.26,0.2513,0.2332,0.2126,0.2089,0.2149,0.2044,0.1945,0.4832,0.4832,0.4832,0.4832,0.4822,0.4671,0.4606,0.4606,0.4606,0.46,0.4589,0.4589,0.4583,0.4571,0.4571,0.4571,0.4571,0.4571,0.4528,0.436,0.4266,0.4227,0.4154,0.4154,0.4064,0.3798,0.3789,0.3602,0.3148,0.3437,0.3141,0.253,0.2398,0.1696,0.0509,0.0509,0.0335,-0.0164,-0.0959,-0.1342,-0.1342,-0.1338,-0.123,-0.1176,-0.1168,-0.1129,-0.0983,-0.1012,-0.0982,-0.1015,-0.0926,-0.0897,-0.0925,-0.0841,-0.0813,0.0,-0.0759,0.0,0.0,0.0,0.0,0.0,0.0,0.0,0.0,-0.0996,-0.1122,-0.1502,-0.1388,-0.1437,-0.1689,-0.1709,-0.1821,-0.1901,-0.1918,-0.1953,-0.2029,-0.2045,-0.2065,-0.2106,-0.2067,-0.2095,-0.2183,-0.2219,-0.2243,-0.2327,-0.2325,-0.2298,-0.2398,-0.2637,-0.247,-0.178,-0.1611,-0.1114,-0.0087,0.0354,0.0805,0.1523,0.1878,0.2244,0.2688,0.2778,0.2781,0.278,0.2596,0.2419,0.2424,0.2332,0.2241,0.2147,0.1939,0.1818,0.1952,0.1933,0.185,0.4832,0.4832,0.4832,0.4832,0.483,0.4798,0.4785,0.4785,0.4785,0.4747,0.4683,0.4683,0.4643,0.4575,0.4571,0.4571,0.4571,0.4379,0.4277,0.426,0.3789,0.3594,0.3581,0.3391,0.3203,0.32,0.3336,0.3312,0.2946,0.2976,0.232,0.098,0.0977,0.0709,0.0089,0.0,0.0,0.0,-0.1228,-0.1294,-0.1293,-0.1349,-0.124,-0.1204,-0.1179,0.0,-0.1106,-0.1053,-0.1022,-0.1016,-0.0988,0.0,0.0,0.0,0.0,0.0,0.0,0.0,0.0,0.0,0.0,0.0,-0.153,-0.1483,-0.1264,-0.1449,-0.1586,-0.164,-0.1678,-0.1725,-0.1862,-0.1936,-0.1985,-0.2003,-0.204,-0.207,-0.2089,-0.2122,-0.2065,-0.2072,-0.2113,-0.2231,-0.241,-0.2419,-0.2516,-0.27,-0.2785,-0.2776,-0.2756,-0.2837,-0.2748,-0.2395,-0.221,-0.1951,-0.1158,-0.0805,-0.0269,0.0628,0.1166,0.1525,0.2155,0.2334,0.2334,0.2334,0.2244,0.2244,0.2244,0.2244,0.2064,0.1885,0.1789,0.1772,0.1821,0.1619,0.1431,0.4832,0.4832,0.4832,0.4832,0.0,0.4832,0.4832,0.4832,0.4832,0.481,0.4771,0.4771,0.4745,0.4702,0.4606,0.451,0.451,0.4116,0.3997,0.4159,0.3675,0.3367,0.3146,0.3049,0.2954,0.2953,0.3112,0.2708,0.1758,0.1832,0.1269,0.0269,-0.0179,-0.0448,-0.0718,-0.1166,-0.1414,-0.1369,-0.134,-0.1318,-0.1303,-0.1288,-0.1258,-0.1213,-0.1197,0.0,0.0,0.0,0.0,0.0,0.0,0.0,0.0,0.0,0.0,-0.1233,-0.1294,-0.1356,-0.1419,-0.1478,-0.158,-0.1647,-0.1846,-0.1806,-0.1556,-0.1676,-0.1806,-0.1926,-0.1974,-0.2101,-0.2312,-0.2366,-0.2325,-0.2351,-0.2378,-0.249,-0.2518,-0.2456,-0.2474,-0.2479,-0.2518,-0.2641,-0.2732,-0.276,-0.2866,-0.2961,-0.2959,-0.2958,-0.2954,-0.2909,-0.2875,-0.2694,-0.2694,-0.2515,-0.2155,-0.1705,-0.1166,-0.0359,0.0269,0.0897,0.1615,0.1795,0.1795,0.1795,0.1885,0.1974,0.1974,0.1885,0.1705,0.1615,0.1615,0.161,0.1592,0.1488,0.1391,0.4736,0.4736,0.4634,0.4634,0.4634,0.4634,0.4634,0.4634,0.0,0.0,0.0,0.4634,0.4533,0.4533,0.4336,0.4237,0.4237,0.3731,0.3701,0.3949,0.3355,0.2835,0.26,0.2502,0.2502,0.2502,0.2591,0.19,0.0468,0.0371,0.0092,-0.0271,-0.1078,-0.1436,-0.1436,-0.1436,-0.1423,-0.1398,-0.137,-0.1343,-0.1318,-0.1308,-0.1279,-0.1228,-0.1217,-0.1176,-0.1103,-0.1163,-0.1136,-0.1087,-0.1275,-0.1467,-0.1659,-0.1628,-0.1648,-0.165,-0.1684,-0.1708,-0.1776,-0.175,-0.1784,-0.1871,-0.2136,-0.217,-0.1854,-0.1975,-0.2103,-0.2299,-0.2354,-0.2488,-0.2704,-0.2719,-0.2744,-0.2794,-0.28,-0.2823,-0.2877,-0.289,-0.2894,-0.2906,-0.2947,-0.2974,-0.2976,-0.3014,-0.3146,-0.3048,-0.3038,-0.3049,-0.3038,-0.2969,-0.2917,-0.2917,-0.2921,-0.291,-0.2817,-0.2364,-0.1814,-0.1183,-0.0636,0.0091,0.0997,0.1179,0.1179,0.1457,0.1633,0.1726,0.1725,0.1637,0.1451,0.1451,0.1446,0.1353,0.1352,0.1259,0.1253,0.4437,0.4437,0.4234,0.4133,0.4133,0.4133,0.4031,0.383,0.4236,0.4438,0.4437,0.393,0.3728,0.3728,0.353,0.3533,0.3836,0.3432,0.3325,0.3218,0.1709,0.0904,0.0801,0.0601,0.0401,0.05,0.0887,0.0781,-0.0,-0.0753,-0.1201,-0.1287,-0.1357,-0.1436,-0.1436,-0.1436,-0.1433,-0.1428,-0.1399,-0.1382,-0.1377,-0.1328,-0.1299,-0.1288,-0.1239,-0.1207,-0.1193,-0.1386,-0.1438,-0.1499,-0.1641,-0.1784,-0.1927,-0.186,-0.1794,-0.1793,-0.18,-0.1876,-0.2022,-0.207,-0.2215,-0.246,-0.2495,-0.2479,-0.2184,-0.2427,-0.2574,-0.2668,-0.2635,-0.276,-0.2773,-0.2815,-0.2846,-0.286,-0.2861,-0.2884,-0.2939,-0.3037,-0.3057,-0.301,-0.3126,-0.3132,-0.3038,-0.3048,-0.3155,-0.3055,-0.3165,-0.3151,-0.3153,-0.3035,-0.3025,-0.3023,-0.3025,-0.3119,-0.3012,-0.2833,-0.2353,-0.1889,-0.1602,-0.0941,0.0376,0.0376,0.0376,0.1227,0.1318,0.1414,0.1508,0.1513,0.1414,0.1317,0.1303,0.129,0.0921,0.0728,0.0809,0.3934,0.3934,0.3935,0.3734,0.3632,0.3835,0.3835,0.3734,0.3127,0.3429,0.414,0.3835,0.3228,0.252,0.2421,0.2422,0.2623,0.1917,0.1716,0.1615,0.0707,-0.0101,-0.0606,-0.0808,-0.0909,-0.0808,-0.0601,-0.0595,-0.0883,-0.1253,-0.1521,-0.1504,-0.1475,-0.1452,-0.1436,-0.1525,-0.1615,-0.1614,-0.16,-0.1583,-0.1651,-0.1705,-0.1762,-0.174,-0.1683,-0.1565,-0.1469,-0.1585,-0.1554,-0.1314,-0.175,-0.2042,-0.2262,-0.2141,-0.2157,-0.2085,-0.2213,-0.2246,-0.2402,-0.2456,-0.2512,-0.2646,-0.2681,-0.2688,-0.2495,-0.2709,-0.2741,-0.2744,-0.2797,-0.2834,-0.2832,-0.2858,-0.2887,-0.2917,-0.292,-0.2944,-0.2995,-0.3008,-0.3113,-0.3048,-0.3079,-0.3098,-0.3098,-0.3127,-0.3146,-0.3149,-0.3245,-0.3442,-0.3537,-0.3439,-0.3318,-0.316,-0.3144,-0.3144,-0.3052,-0.3049,-0.2762,-0.2381,-0.2382,-0.2002,-0.1048,-0.1049,-0.0572,-0.0,0.0286,0.0477,0.0572,0.0668,0.0668,0.0667,0.0664,0.0565,0.0375,0.0093,0.0182,0.3428,0.3124,0.3128,0.3029,0.2725,0.3029,0.313,0.2928,0.1815,0.1816,0.2725,0.2927,0.2321,0.1311,0.1109,0.1008,0.0907,0.0303,-0.0,-0.0202,-0.0404,-0.0909,-0.1718,-0.1718,-0.1617,-0.1617,-0.1617,-0.1605,-0.1583,-0.1575,-0.1556,-0.1622,-0.1596,-0.1572,-0.1638,-0.1811,-0.1898,-0.1897,-0.1889,-0.1958,-0.1927,-0.2004,-0.2069,-0.2033,-0.2072,-0.1949,-0.1756,-0.1882,-0.177,-0.1435,-0.1887,-0.2342,-0.2571,-0.2533,-0.2481,-0.2489,-0.2568,-0.2621,-0.2625,-0.2666,-0.2699,-0.2713,-0.2756,-0.2789,-0.2803,-0.2804,-0.2804,-0.2808,-0.2845,-0.2877,-0.289,-0.2894,-0.2916,-0.3063,-0.2978,-0.3004,-0.3057,-0.3068,-0.3078,-0.309,-0.3131,-0.3161,-0.3169,-0.3202,-0.3323,-0.3423,-0.3635,-0.3835,-0.3934,-0.3835,-0.3584,-0.3418,-0.3186,-0.3097,-0.309,-0.3095,-0.3,-0.2799,-0.2996,-0.2811,-0.2423,-0.2226,-0.1934,-0.1453,-0.1064,-0.0775,-0.058,-0.0387,-0.0387,-0.0291,-0.0193,-0.0383,-0.0761,-0.0847,-0.0648,0.3128,0.1815,0.1513,0.121,0.1008,0.1109,0.0806,0.0403,0.0202,-0.0202,-0.0403,-0.0,0.0302,0.0101,-0.0403,-0.0706,-0.0806,-0.0907,-0.1311,-0.2018,-0.2021,-0.2123,-0.2224,-0.1819,-0.1617,-0.1617,-0.1617,-0.1615,-0.1609,-0.1585,-0.1654,-0.1816,-0.1904,-0.1995,-0.2177,-0.2141,-0.2123,-0.2123,-0.2356,-0.2332,-0.2146,-0.2107,-0.1996,-0.1906,-0.2035,-0.201,-0.192,-0.2169,-0.2247,-0.216,-0.2403,-0.2655,-0.2655,-0.2662,-0.2665,-0.2662,-0.2677,-0.2684,-0.2685,-0.2688,-0.2719,-0.2767,-0.2781,-0.2808,-0.2856,-0.2865,-0.2867,-0.2868,-0.2872,-0.2988,-0.3035,-0.3043,-0.3068,-0.3126,-0.3136,-0.3064,-0.3117,-0.3131,-0.3151,-0.3209,-0.321,-0.3222,-0.3217,-0.3428,-0.3633,-0.3833,-0.4036,-0.4135,-0.4135,-0.4033,-0.3932,-0.3809,-0.3509,-0.3306,-0.3203,-0.3213,-0.3198,-0.3102,-0.3209,-0.31,-0.2994,-0.2998,-0.301,-0.2582,-0.2398,-0.1896,-0.1598,-0.1404,-0.13,-0.0994,-0.0986,-0.1267,-0.2016,-0.2097,-0.1699,0.1412,0.0605,-0.0,-0.0504,-0.1008,-0.0504,-0.0605,-0.1008,-0.1412,-0.1917,-0.2219,-0.1816,-0.1714,-0.1917,-0.1917,-0.2017,-0.2017,-0.1917,-0.2017,-0.2422,-0.2322,-0.2322,-0.2222,-0.2121,-0.2019,-0.1918,-0.1716,-0.1817,-0.2017,-0.2103,-0.2075,-0.2137,-0.2231,-0.2218,-0.2292,-0.2459,-0.2448,-0.2446,-0.2677,-0.274,-0.2643,-0.2597,-0.2571,-0.2475,-0.2517,-0.2488,-0.2485,-0.2543,-0.2608,-0.2608,-0.2694,-0.2694,-0.2778,-0.2694,-0.2694,-0.2694,-0.2726,-0.2762,-0.2797,-0.28,-0.2811,-0.2837,-0.3012,-0.3024,-0.305,-0.3266,-0.3383,-0.3383,-0.329,-0.3318,-0.3473,-0.3484,-0.3512,-0.3376,-0.3393,-0.3322,-0.3187,-0.3194,-0.3206,-0.3228,-0.3332,-0.3433,-0.3433,-0.3633,-0.3935,-0.4137,-0.4338,-0.4437,-0.4435,-0.4334,-0.4236,-0.4237,-0.4036,-0.3732,-0.3533,-0.3433,-0.3332,-0.3232,-0.323,-0.323,-0.323,-0.323,-0.3229,-0.323,-0.2927,-0.2522,-0.2115,-0.2118,-0.2017,-0.1711,-0.181,-0.1989,-0.237,-0.2444,-0.2224,-0.0504,-0.0706,-0.1211,-0.1817,-0.2321,-0.1714,-0.1613,-0.1917,-0.2522,-0.2927,-0.313,-0.2927,-0.2928,-0.313,-0.2928,-0.2826,-0.2826,-0.2725,-0.2623,-0.2623,-0.2522,-0.2522,-0.2522,-0.2422,-0.2422,-0.2422,-0.2118,-0.2118,-0.2422,-0.2422,-0.2404,-0.2476,-0.247,-0.2553,-0.2522,-0.2699,-0.2785,-0.278,-0.292,-0.3068,-0.2955,-0.2918,-0.289,-0.2872,-0.2831,-0.2808,-0.2894,-0.2851,-0.2827,-0.2914,-0.2828,-0.2743,-0.2828,-0.2828,-0.2743,-0.2745,-0.2782,-0.2914,-0.296,-0.2962,-0.3051,-0.3142,-0.3229,-0.3326,-0.335,-0.3577,-0.3718,-0.3858,-0.376,-0.3789,-0.3832,-0.394,-0.3874,-0.3643,-0.3657,-0.3581,-0.3422,-0.3432,-0.3429,-0.3432,-0.3633,-0.3736,-0.3836,-0.3935,-0.4236,-0.4537,-0.464,-0.4738,-0.4937,-0.4836,-0.4638,-0.464,-0.4539,-0.4336,-0.3835,-0.3734,-0.3635,-0.3534,-0.3432,-0.3332,-0.323,-0.323,-0.323,-0.323,-0.3029,-0.2927,-0.2725,-0.2623,-0.2623,-0.2623,-0.2622,-0.262,-0.2711,-0.2687,-0.2772,-0.2321,-0.222,-0.2321,-0.2321,-0.2422,-0.2321,-0.2422,-0.2623,-0.2725,-0.2928,-0.313,-0.313,-0.323,-0.323,-0.313,-0.313,-0.313,-0.313,-0.313,-0.313,-0.2927,-0.2927,-0.313,-0.2624,-0.2725,-0.3029,-0.2725,-0.2624,-0.2725,-0.2522,-0.2521,-0.2821,-0.2818,-0.2919,-0.3106,-0.3061,-0.3135,-0.3032,-0.3075,-0.3019,-0.3063,-0.2958,-0.2931,-0.2888,-0.2872,-0.2867,-0.2867,-0.2867,-0.2862,-0.2864,-0.2858,-0.286,-0.2862,-0.2861,-0.2857,-0.2861,-0.2955,-0.3047,-0.3136,-0.3227,-0.332,-0.3502,-0.3597,-0.3621,-0.3689,-0.3805,-0.396,-0.4281,-0.4287,-0.4201,-0.4109,-0.4013,-0.3942,-0.3906,-0.3924,-0.3927,-0.383,-0.3833,-0.3934,-0.3934,-0.3934,-0.4137,-0.4338,-0.4338,-0.464,-0.4939,-0.524,-0.534,-0.5436,-0.5536,-0.5338,-0.524,-0.514,-0.4839,-0.4236,-0.4034,-0.3934,-0.3833,-0.3633,-0.3433,-0.3332,-0.323,-0.323,-0.323,-0.313,-0.313,-0.313,-0.313,-0.313,-0.313,-0.3128,-0.3128,-0.313,-0.313,-0.3217,-0.255,-0.2725,-0.2826,-0.2927,-0.2927,-0.2927,-0.2928,-0.3029,-0.3029,-0.313,-0.323,-0.323,-0.323,-0.323,-0.323,-0.323,-0.323,-0.323,-0.323,-0.323,-0.313,-0.313,-0.313,-0.3029,-0.3029,-0.313,-0.3029,-0.3029,-0.3029,-0.2927,-0.2928,-0.3029,-0.3029,-0.313,-0.3226,-0.3209,-0.3198,-0.3192,-0.3138,-0.3097,-0.3071,-0.3037,-0.3004,-0.2984,-0.2913,-0.2875,-0.2875,-0.2875,-0.2875,-0.2875,-0.2875,-0.2875,-0.2875,-0.3051,-0.3139,-0.3139,-0.323,-0.3409,-0.3408,-0.3496,-0.3519,-0.3655,-0.3841,-0.3965,-0.4042,-0.4383,-0.4636,-0.4795,-0.5055,-0.5081,-0.4984,-0.4686,-0.4501,-0.4423,-0.4334,-0.4338,-0.4338,-0.4237,-0.4034,-0.4034,-0.4135,-0.4437,-0.4738,-0.4939,-0.5039,-0.5338,-0.5536,-0.5539,-0.5636,-0.5737,-0.5737,-0.5539,-0.5539,-0.5539,-0.5135,-0.4537,-0.4237,-0.4034,-0.3833,-0.3531,-0.3429,-0.3331,-0.3331,-0.323,-0.323,-0.323,-0.3232,-0.3332,-0.3332,-0.3433,-0.3534,-0.3533,-0.3534,-0.3432,-0.3432,-0.2771,-0.2932,-0.313,-0.323,-0.323,-0.323,-0.323,-0.323,-0.323,-0.323,-0.323,-0.323,-0.323,-0.323,-0.323,-0.323,-0.323,-0.323,-0.323,-0.323,-0.323,-0.323,-0.323,-0.323,-0.323,-0.323,-0.323,-0.323,-0.323,-0.323,-0.323,-0.323,-0.323,-0.323,-0.323,-0.323,-0.323,-0.3222,-0.3189,-0.3161,-0.3139,-0.3101,-0.3068,-0.3136,-0.2971,-0.292,-0.2902,-0.2902,-0.2891,-0.2877,-0.2963,-0.3053,-0.3142,-0.3229,-0.3315,-0.3406,-0.3496,-0.3676,-0.3681,-0.3699,-0.3826,-0.4064,-0.4278,-0.442,-0.4604,-0.5057,-0.5201,-0.534,-0.5487,-0.5636,-0.5636,-0.5336,-0.5033,-0.4832,-0.4734,-0.474,-0.4742,-0.4435,-0.4334,-0.4435,-0.4537,-0.4839,-0.524,-0.5338,-0.5438,-0.5737,-0.5737,-0.5737,-0.5837,-0.5939,-0.5939,-0.5739,-0.5839,-0.5739,-0.5536,-0.5037,-0.4738,-0.4535,-0.4135,-0.3831,-0.3731,-0.3632,-0.3432,-0.3331,-0.3232,-0.3332,-0.3332,-0.3433,-0.3536,-0.3636,-0.3736,-0.3833,-0.3732,-0.363,-0.3731,-0.3288,-0.3137,-0.323,-0.323,-0.323,-0.323,-0.323,-0.323,-0.323,-0.323,-0.323,-0.323,-0.323,-0.323,-0.323,-0.323,-0.323,-0.323,-0.323,-0.323,-0.323,-0.323,-0.323,-0.323,-0.323,-0.323,-0.323,-0.323,-0.323,-0.323,-0.323,-0.323,-0.323,-0.323,-0.323,-0.323,-0.323,-0.3229,-0.3224,-0.3199,-0.3149,-0.3142,-0.3116,-0.307,-0.3148,-0.3119,-0.3059,-0.2961,-0.2939,-0.2983,-0.3153,-0.3321,-0.3517,-0.3609,-0.3599,-0.3605,-0.3687,-0.3774,-0.3967,-0.4118,-0.4438,-0.4663,-0.4902,-0.5086,-0.5273,-0.5496,-0.5534,-0.5603,-0.5627,-0.5737,-0.5939,-0.5737,-0.5432,-0.4926,-0.5035,-0.5039,-0.4937,-0.4834,-0.4935,-0.514,-0.514,-0.5338,-0.5536,-0.5636,-0.5739,-0.5939,-0.6042,-0.6039,-0.6237,-0.6339,-0.6237,-0.6042,-0.6039,-0.5937,-0.5837,-0.5536,-0.5436,-0.5238,-0.4738,-0.4336,-0.4336,-0.4237,-0.3937,-0.3836,-0.3633,-0.3633,-0.3533,-0.3633,-0.3736,-0.3836,-0.3935,-0.4034,-0.4033,-0.3932,-0.3932,-0.3311,-0.3289,-0.3248,-0.323,-0.323,-0.323,-0.323,-0.323,-0.323,-0.323,-0.323,-0.323,-0.323,-0.323,-0.323,-0.323,-0.323,-0.323,-0.323,-0.323,-0.323,-0.323,-0.323,-0.323,-0.323,-0.323,-0.323,-0.323,-0.323,-0.323,-0.323,-0.323,-0.323,-0.323,-0.323,-0.323,-0.323,-0.323,-0.323,-0.3219,-0.3203,-0.3202,-0.3191,-0.3176,-0.3174,-0.3244,-0.3376,-0.3139,-0.3108,-0.3273,-0.3368,-0.3555,-0.3742,-0.3928,-0.402,-0.402,-0.439,-0.4576,-0.4671,-0.4884,-0.5029,-0.5279,-0.5324,-0.5387,-0.5572,-0.5787,-0.5802,-0.5937,-0.6037,-0.6237,-0.6237,-0.6237,-0.6037,-0.5942,-0.5639,-0.5436,-0.5336,-0.5334,-0.5436,-0.5438,-0.5438,-0.5636,-0.5839,-0.5839,-0.5939,-0.6239,-0.6239,-0.6339,-0.6337,-0.6437,-0.6437,-0.6339,-0.6237,-0.6237,-0.6037,-0.5937,-0.5839,-0.5539,-0.5138,-0.4638,-0.474,-0.464,-0.444,-0.4239,-0.4036,-0.3935,-0.3732,-0.3835,-0.3937,-0.4138,-0.4336,-0.4336,-0.4336,-0.4234,-0.4334,-0.3342,-0.3315,-0.3255,-0.323,-0.323,-0.323,-0.323,-0.323,-0.323,-0.323,-0.323,-0.323,-0.323,-0.323,-0.323,-0.323,-0.323,-0.323,-0.323,-0.323,-0.323,-0.323,-0.323,-0.323,-0.323,-0.323,-0.323,-0.323,-0.323,-0.323,-0.323,-0.323,-0.323,-0.323,-0.323,-0.323,-0.323,-0.323,-0.323,-0.323,-0.323,-0.323,-0.323,-0.323,-0.3332,-0.3413,-0.357,-0.3528,-0.3578,-0.3634,-0.3716,-0.3906,-0.4286,-0.4472,-0.4567,-0.4664,-0.4946,-0.5133,-0.514,-0.5263,-0.5509,-0.5574,-0.562,-0.5763,-0.5922,-0.6039,-0.6142,-0.6139,-0.6237,-0.6437,-0.6437,-0.6437,-0.6439,-0.6445,-0.6039,-0.5737,-0.5636,-0.5534,-0.5636,-0.5737,-0.5739,-0.5839,-0.6039,-0.6139,-0.6239,-0.6337,-0.6437,-0.6437,-0.6437,-0.6437,-0.6437,-0.6437,-0.6337,-0.6337,-0.6337,-0.6239,-0.6139,-0.5839,-0.5438,-0.5037,-0.4836,-0.4738,-0.4638,-0.4338,-0.4137,-0.4036,-0.3934,-0.4137,-0.434,-0.4539,-0.4638,-0.4636,-0.4533,-0.4634,-0.4634,-0.3376,-0.3316,-0.3256,-0.323,-0.323,-0.323,-0.323,-0.323,-0.323,-0.323,-0.323,-0.323,-0.323,-0.323,-0.323,-0.323,-0.323,-0.323,-0.323,-0.323,-0.323,-0.323,-0.323,-0.323,-0.323,-0.323,-0.323,-0.323,-0.323,-0.323,-0.323,-0.323,-0.323,-0.323,-0.323,-0.323,-0.323,-0.323,-0.323,-0.323,-0.323,-0.323,-0.323,-0.3232,-0.3534,-0.3732,-0.3725,-0.4114,-0.4157,-0.3947,-0.4131,-0.4516,-0.4877,-0.5059,-0.5174,-0.5279,-0.5448,-0.546,-0.5473,-0.5545,-0.5694,-0.5902,-0.5976,-0.6142,-0.6334,-0.6337,-0.6339,-0.6337,-0.6437,-0.6437,-0.6437,-0.6437,-0.6437,-0.6337,-0.6137,-0.5939,-0.5737,-0.5636,-0.5837,-0.5942,-0.6042,-0.6139,-0.6337,-0.6337,-0.6337,-0.6437,-0.6437,-0.6437,-0.6437,-0.6437,-0.6437,-0.6437,-0.6437,-0.6437,-0.6437,-0.6239,-0.6139,-0.5939,-0.5639,-0.5236,-0.5035,-0.4937,-0.4836,-0.4537,-0.4438,-0.4336,-0.4236,-0.4437,-0.4539,-0.4537,-0.4636,-0.4734,-0.4832,-0.4832,-0.4935,-0.3376,-0.3316,-0.3256,-0.323,-0.323,-0.323,-0.323,-0.323,-0.323,-0.323,-0.323,-0.323,-0.323,-0.323,-0.323,-0.323,-0.323,-0.323,-0.323,-0.323,-0.323,-0.323,-0.323,-0.323,-0.323,-0.323,-0.323,-0.323,-0.323,-0.323,-0.323,-0.323,-0.323,-0.323,-0.323,-0.323,-0.323,-0.323,-0.323,-0.323,-0.323,-0.323,-0.3332,-0.3534,-0.3636,-0.3836,-0.4137,-0.474,-0.4726,-0.4384,-0.4672,-0.4967,-0.5152,-0.5347,-0.5438,-0.5536,-0.5743,-0.5849,-0.5854,-0.6072,-0.6187,-0.6291,-0.6216,-0.6334,-0.6437,-0.6437,-0.6437,-0.6437,-0.6437,-0.6437,-0.6437,-0.6437,-0.6437,-0.6437,-0.6337,-0.6237,-0.6137,-0.6237,-0.6237,-0.6237,-0.6239,-0.6337,-0.6337,-0.6437,-0.6437,-0.6437,-0.6437,-0.6437,-0.6437,-0.6437,-0.6437,-0.6437,-0.6437,-0.6437,-0.6337,-0.6239,-0.6039,-0.5939,-0.5639,-0.5338,-0.5238,-0.534,-0.5138,-0.4836,-0.4836,-0.4839,-0.4736,-0.4736,-0.4736,-0.4738,-0.4736,-0.4834,-0.4834,-0.4834,-0.4935,-0.3353,-0.3316,-0.3256,-0.323,-0.323,-0.323,-0.323,-0.323,-0.323,-0.323,-0.323,-0.323,-0.323,-0.323,-0.323,-0.323,-0.323,-0.323,-0.323,-0.323,-0.323,-0.323,-0.323,-0.323,-0.323,-0.323,-0.323,-0.323,-0.323,-0.323,-0.323,-0.323,-0.323,-0.323,-0.323,-0.323,-0.323,-0.323,-0.323,-0.323,-0.323,-0.3332,-0.3433,-0.3636,-0.3836,-0.4237,-0.4738,-0.5039,-0.5039,-0.4836,-0.5138,-0.5438,-0.5539,-0.5639,-0.5839,-0.5934,-0.6139,-0.6134,-0.6139,-0.6339,-0.6437,-0.6437,-0.6437,-0.6437,-0.6437,-0.6437,-0.6437,-0.6437,-0.6437,-0.6437,-0.6437,-0.6437,-0.6437,-0.6437,-0.6437,-0.6437,-0.6437,-0.6337,-0.6437,-0.6437,-0.6437,-0.6437,-0.6437,-0.6437,-0.6437,-0.6437,-0.6437,-0.6437,-0.6437,-0.6437,-0.6437,-0.6437,-0.6437,-0.6437,-0.6339,-0.6139,-0.5939,-0.5839,-0.5639,-0.5338,-0.5338,-0.5441,-0.5441,-0.524,-0.5338,-0.5338,-0.5236,-0.5135,-0.5037,-0.5037,-0.5035,-0.4935,-0.4834,-0.483,-0.4933,-0.3318,-0.3308,-0.3252,-0.323,-0.323,-0.323,-0.323,-0.323,-0.323,-0.323,-0.323,-0.323,-0.323,-0.323,-0.323,-0.323,-0.323,-0.323,-0.323,-0.323,-0.323,-0.323,-0.323,-0.323,-0.323,-0.323,-0.323,-0.323,-0.323,-0.323,-0.323,-0.323,-0.323,-0.323,-0.323,-0.323,-0.323,-0.323,-0.3232,-0.3332,-0.3332,-0.3534,-0.3736,-0.3836,-0.4237,-0.464,-0.5039,-0.524,-0.524,-0.534,-0.5539,-0.5739,-0.5942,-0.5942,-0.6139,-0.6237,-0.6337,-0.6337,-0.6437,-0.6437,-0.6437,-0.6437,-0.6437,-0.6437,-0.6437,-0.6437,-0.6437,-0.6437,-0.6437,-0.6437,-0.6437,-0.6437,-0.6437,-0.6437,-0.6437,-0.6437,-0.6437,-0.6437,-0.6437,-0.6437,-0.6437,-0.6437,-0.6437,-0.6437,-0.6437,-0.6437,-0.6437,-0.6437,-0.6437,-0.6437,-0.6437,-0.6437,-0.6437,-0.6437,-0.6239,-0.6139,-0.5939,-0.5741,-0.5441,-0.5238,-0.5138,-0.524,-0.5443,-0.5543,-0.5541,-0.5639,-0.5739,-0.5639,-0.5438,-0.5338,-0.5236,-0.5135,-0.4935,-0.4828,-0.4929,-0.3294,-0.3249,-0.3237,-0.323,-0.323,-0.323,-0.323,-0.323,-0.323,-0.323,-0.323,-0.323,-0.323,-0.323,-0.323,-0.323,-0.323,-0.323,-0.323,-0.323,-0.323,-0.323,-0.323,-0.323,-0.323,-0.323,-0.323,-0.323,-0.323,-0.323,-0.323,-0.323,-0.323,-0.323,-0.323,-0.3232,-0.323,-0.3232,-0.3433,-0.3536,-0.3534,-0.3734,-0.4036,-0.4237,-0.4738,-0.5039,-0.524,-0.5644,-0.5844,-0.5842,-0.5839,-0.5939,-0.6042,-0.6139,-0.6337,-0.6337,-0.6437,-0.6437,-0.6437,-0.6437,-0.6437,-0.6437,-0.6437,-0.6437,-0.6437,-0.6437,-0.6437,-0.6437,-0.6437,-0.6437,-0.6437,-0.6437,-0.6437,-0.6437,-0.6437,-0.6437,-0.6437,-0.6437,-0.6437,-0.6437,-0.6437,-0.6437,-0.6437,-0.6437,-0.6437,-0.6437,-0.6437,-0.6437,-0.6437,-0.6437,-0.6437,-0.6437,-0.6437,-0.6437,-0.6237,-0.6037,-0.5739,-0.5539,-0.5238,-0.5138,-0.5037,-0.5238,-0.5541,-0.5741,-0.5839,-0.5939,-0.6039,-0.5837,-0.5636,-0.5536,-0.5536,-0.5436,-0.5233,-0.5029,-0.5027,-0.3259,-0.3232,-0.323,-0.323,-0.323,-0.323,-0.323,-0.323,-0.323,-0.323,-0.323,-0.323,-0.323,-0.323,-0.323,-0.323,-0.323,-0.323,-0.323,-0.323,-0.323,-0.323,-0.3232,-0.3332,-0.3433,-0.3433,-0.3533,-0.3531,-0.3531,-0.3432,-0.3433,-0.3332,-0.3232,-0.3332,-0.3433,-0.3433,-0.3533,-0.3632,-0.3835,-0.3937,-0.3835,-0.4036,-0.4437,-0.4738,-0.5039,-0.524,-0.5641,-0.5842,-0.6039,-0.6139,-0.6139,-0.6139,-0.6239,-0.6339,-0.6437,-0.6437,-0.6437,-0.6437,-0.6437,-0.6437,-0.6437,-0.6437,-0.6437,-0.6437,-0.6437,-0.6437,-0.6437,-0.6437,-0.6437,-0.6437,-0.6437,-0.6437,-0.6437,-0.6437,-0.6437,-0.6437,-0.6437,-0.6437,-0.6437,-0.6437,-0.6437,-0.6437,-0.6437,-0.6437,-0.6437,-0.6437,-0.6437,-0.6437,-0.6437,-0.6437,-0.6437,-0.6437,-0.6437,-0.6337,-0.6234,-0.6034,-0.5536,-0.5236,-0.5037,-0.4935,-0.4834,-0.5236,-0.5739,-0.5837,-0.5839,-0.6137,-0.6237,-0.6034,-0.5837,-0.5839,-0.5739,-0.5737,-0.5636,-0.5432,-0.5434,-0.323,-0.323,-0.323,-0.323,-0.323,-0.323,-0.323,-0.323,-0.323,-0.323,-0.323,-0.323,-0.323,-0.323,-0.3232,-0.3332,-0.3432,-0.3432,-0.3533,-0.3632,-0.3533,-0.3533,-0.3533,-0.3633,-0.3835,-0.3836,-0.3935,-0.4034,-0.4135,-0.3935,-0.3835,-0.3736,-0.3534,-0.3633,-0.3736,-0.3736,-0.3935,-0.4236,-0.4336,-0.4437,-0.4334,-0.4537,-0.4836,-0.514,-0.534,-0.5541,-0.5842,-0.6042,-0.6139,-0.6337,-0.6437,-0.6437,-0.6437,-0.6437,-0.6437,-0.6437,-0.6437,-0.6437,-0.6437,-0.6437,-0.6437,-0.6437,-0.6437,-0.6437,-0.6437,-0.6437,-0.6437,-0.6437,-0.6437,-0.6437,-0.6437,-0.6437,-0.6437,-0.6437,-0.6437,-0.6437,-0.6437,-0.6437,-0.6437,-0.6437,-0.6437,-0.6437,-0.6437,-0.6437,-0.6437,-0.6437,-0.6437,-0.6437,-0.6437,-0.6437,-0.6437,-0.6437,-0.6437,-0.6239,-0.6137,-0.5934,-0.5536,-0.5236,-0.5035,-0.4935,-0.4832,-0.5233,-0.5634,-0.5737,-0.5937,-0.6237,-0.6437,-0.6237,-0.6137,-0.6042,-0.6039,-0.6037,-0.5937,-0.5737,-0.5839,-0.323,-0.323,-0.323,-0.323,-0.323,-0.323,-0.323,-0.323,-0.323,-0.323,-0.323,-0.323,-0.323,-0.3331,-0.3433,-0.3736,-0.4036,-0.4135,-0.4334,-0.4435,-0.4336,-0.4236,-0.4236,-0.4332,-0.4533,-0.4738,-0.4736,-0.4736,-0.4939,-0.4839,-0.4537,-0.4336,-0.4237,-0.4237,-0.4237,-0.4034,-0.4437,-0.4937,-0.5037,-0.5037,-0.5236,-0.5336,-0.5436,-0.5636,-0.5739,-0.5939,-0.6042,-0.6239,-0.6337,-0.6437,-0.6437,-0.6437,-0.6437,-0.6437,-0.6437,-0.6437,-0.6437,-0.6437,-0.6437,-0.6437,-0.6437,-0.6437,-0.6437,-0.6437,-0.6437,-0.6437,-0.6437,-0.6437,-0.6437,-0.6437,-0.6437,-0.6437,-0.6437,-0.6437,-0.6437,-0.6437,-0.6437,-0.6437,-0.6437,-0.6437,-0.6437,-0.6437,-0.6437,-0.6437,-0.6437,-0.6437,-0.6437,-0.6437,-0.6437,-0.6437,-0.6437,-0.6437,-0.6437,-0.6239,-0.6042,-0.5837,-0.5536,-0.5336,-0.5135,-0.4933,-0.5033,-0.5231,-0.5432,-0.5634,-0.5937,-0.6337,-0.6437,-0.6437,-0.6337,-0.6239,-0.6237,-0.6334,-0.6137,-0.6037,-0.6137,-0.323,-0.323,-0.323,-0.323,-0.323,-0.323,-0.323,-0.323,-0.323,-0.3332,-0.3332,-0.3433,-0.3534,-0.3836,-0.3937,-0.4338,-0.4738,-0.4937,-0.5135,-0.5138,-0.5037,-0.5037,-0.5138,-0.5233,-0.5632,-0.5932,-0.5827,-0.5729,-0.5939,-0.5739,-0.5539,-0.5238,-0.5138,-0.5138,-0.5238,-0.5236,-0.5434,-0.5934,-0.6037,-0.6134,-0.6234,-0.6134,-0.6037,-0.6037,-0.6137,-0.6239,-0.6237,-0.6339,-0.6437,-0.6437,-0.6437,-0.6437,-0.6437,-0.6437,-0.6437,-0.6437,-0.6437,-0.6437,-0.6437,-0.6437,-0.6437,-0.6437,-0.6437,-0.6437,-0.6437,-0.6437,-0.6437,-0.6437,-0.6437,-0.6437,-0.6437,-0.6437,-0.6437,-0.6437,-0.6437,-0.6437,-0.6437,-0.6437,-0.6437,-0.6437,-0.6437,-0.6437,-0.6437,-0.6437,-0.6437,-0.6437,-0.6437,-0.6437,-0.6437,-0.6437,-0.6437,-0.6437,-0.6437,-0.6339,-0.6142,-0.5939,-0.5737,-0.5539,-0.5336,-0.5133,-0.5233,-0.5434,-0.5534,-0.5634,-0.5937,-0.6337,-0.6437,-0.6437,-0.6437,-0.6437,-0.6337,-0.6337,-0.6337,-0.6437,-0.6437,-0.323,-0.3332,-0.3332,-0.3332,-0.333,-0.333,-0.3331,-0.333,-0.3432,-0.3534,-0.3736,-0.3836,-0.4137,-0.4539,-0.4839,-0.5138,-0.5639,-0.6037,-0.6234,-0.6334,-0.6234,-0.6132,-0.6234,-0.6434,-0.683,-0.7129,-0.7621,-0.7316,-0.6933,-0.6933,-0.6734,-0.6434,-0.6234,-0.6134,-0.6437,-0.6534,-0.693,-0.7232,-0.7537,-0.7537,-0.7132,-0.6933,-0.6734,-0.6734,-0.6637,-0.6637,-0.6736,-0.6637,-0.6537,-0.6539,-0.6539,-0.6439,-0.6437,-0.6437,-0.6437,-0.6437,-0.6437,-0.6437,-0.6437,-0.6437,-0.6437,-0.6437,-0.6437,-0.6437,-0.6437,-0.6437,-0.6437,-0.6437,-0.6437,-0.6437,-0.6437,-0.6437,-0.6437,-0.6437,-0.6437,-0.6437,-0.6437,-0.6437,-0.6437,-0.6437,-0.6437,-0.6437,-0.6437,-0.6437,-0.6437,-0.6437,-0.6437,-0.6437,-0.6437,-0.6437,-0.6437,-0.6437,-0.6437,-0.6437,-0.6239,-0.6139,-0.5939,-0.5839,-0.5639,-0.5434,-0.5536,-0.5636,-0.5737,-0.5837,-0.6037,-0.6437,-0.6437,-0.6437,-0.6437,-0.6437,-0.6437,-0.6437,-0.6437,-0.6437,-0.6437,-0.3332,-0.3536,-0.3536,-0.3734,-0.3932,-0.3932,-0.3932,-0.3932,-0.3932,-0.4034,-0.4338,-0.4537,-0.4836,-0.524,-0.5937,-0.6537,-0.7132,-0.7528,-0.7826,-0.8028,-0.7826,-0.7627,-0.7723,-0.7723,-0.8028,-0.8326,-0.9324,-0.9229,-0.8531,-0.8326,-0.8124,-0.7826,-0.7726,-0.7723,-0.7726,-0.7826,-0.8219,-0.8821,-0.9133,-0.8939,-0.8333,-0.8134,-0.8031,-0.7832,-0.7633,-0.7431,-0.7434,-0.7235,-0.7039,-0.6742,-0.6742,-0.6639,-0.6439,-0.6437,-0.6437,-0.6437,-0.6437,-0.6437,-0.6437,-0.6437,-0.6437,-0.6437,-0.6437,-0.6437,-0.6437,-0.6437,-0.6437,-0.6437,-0.6437,-0.6437,-0.6437,-0.6437,-0.6437,-0.6437,-0.6437,-0.6437,-0.6437,-0.6437,-0.6437,-0.6437,-0.6437,-0.6437,-0.6437,-0.6437,-0.6437,-0.6437,-0.6437,-0.6437,-0.6437,-0.6437,-0.6437,-0.6437,-0.6437,-0.6437,-0.6337,-0.6239,-0.6139,-0.6042,-0.5939,-0.5734,-0.5834,-0.5937,-0.6042,-0.6139,-0.6339,-0.6437,-0.6437,-0.6437,-0.6437,-0.6437,-0.6437,-0.6437,-0.6437,-0.6437,-0.6437,-0.3633,-0.3835,-0.4137,-0.4437,-0.4638,-0.4638,-0.4638,-0.4738,-0.4736,-0.4836,-0.5138,-0.5338,-0.5839,-0.6437,-0.7232,-0.7829,-0.8326,-0.8722,-0.9023,-0.9225,-0.9023,-0.8928,-0.8924,-0.9023,-0.9225,-0.9422,-0.9916,-1.0212,-0.9813,-0.9628,-0.9529,-0.8924,-0.8928,-0.8924,-0.892,-0.9023,-0.932,-0.962,-0.9727,-0.9628,-0.9327,-0.9126,-0.8928,-0.8726,-0.8524,-0.8326,-0.8131,-0.7932,-0.7633,-0.7335,-0.7235,-0.6933,-0.6634,-0.6537,-0.6539,-0.6437,-0.6437,-0.6437,-0.6437,-0.6437,-0.6437,-0.6437,-0.6437,-0.6437,-0.6437,-0.6437,-0.6437,-0.6437,-0.6437,-0.6437,-0.6437,-0.6437,-0.6437,-0.6437,-0.6437,-0.6437,-0.6437,-0.6437,-0.6437,-0.6437,-0.6437,-0.6437,-0.6437,-0.6437,-0.6437,-0.6437,-0.6437,-0.6437,-0.6437,-0.6437,-0.6437,-0.6437,-0.6437,-0.6437,-0.6437,-0.6337,-0.6339,-0.6239,-0.6239,-0.6137,-0.6134,-0.6237,-0.6239,-0.6342,-0.6339,-0.6437,-0.6437,-0.6437,-0.6437,-0.6437,-0.6437,-0.6437,-0.6437,-0.6437,-0.6437,-0.4036,-0.4334,-0.4736,-0.5138,-0.5438,-0.5541,-0.5541,-0.5539,-0.5539,-0.5739,-0.6037,-0.6539,-0.7138,-0.7836,-0.8524,-0.9019,-0.9225,-0.9723,-0.992,-1.0019,-0.992,-0.992,-0.9916,-1.0113,-1.0117,-1.0216,-1.0502,-1.0699,-1.0811,-1.0721,-1.0426,-0.9924,-0.9821,-0.992,-0.992,-1.0019,-1.0216,-1.031,-1.0314,-1.0314,-1.0117,-1.0015,-0.9719,-0.9517,-0.9414,-0.9217,-0.8829,-0.873,-0.8428,-0.7922,-0.7829,-0.7528,-0.6927,-0.6833,-0.6742,-0.6639,-0.6439,-0.6437,-0.6437,-0.6437,-0.6437,-0.6437,-0.6437,-0.6437,-0.6437,-0.6437,-0.6437,-0.6437,-0.6437,-0.6437,-0.6437,-0.6437,-0.6437,-0.6437,-0.6437,-0.6437,-0.6437,-0.6437,-0.6437,-0.6437,-0.6437,-0.6437,-0.6437,-0.6437,-0.6437,-0.6437,-0.6437,-0.6437,-0.6437,-0.6437,-0.6437,-0.6437,-0.6437,-0.6437,-0.6437,-0.6437,-0.6437,-0.6437,-0.6437,-0.6437,-0.6337,-0.6337,-0.6337,-0.6437,-0.6437,-0.6437,-0.6437,-0.6437,-0.6437,-0.6437,-0.6437,-0.6437,-0.6437,-0.6437,-0.6437,-0.464,-0.514,-0.514,-0.5636,-0.6339,-0.6337,-0.6337,-0.6437,-0.6334,-0.6637,-0.7235,-0.8031,-0.8733,-0.9339,-0.9624,-1.0015,-1.0216,-1.0609,-1.0708,-1.0806,-1.0806,-1.0609,-1.0605,-1.0703,-1.0708,-1.0708,-1.0895,-1.1096,-1.11,-1.11,-1.0904,-1.0703,-1.0609,-1.0703,-1.0703,-1.0609,-1.0801,-1.09,-1.09,-1.0904,-1.0806,-1.0605,-1.0507,-1.031,-1.0117,-0.992,-0.992,-0.9624,-0.932,-0.8609,-0.8718,-0.8425,-0.7726,-0.7431,-0.7238,-0.6939,-0.6637,-0.6537,-0.6537,-0.6437,-0.6437,-0.6437,-0.6437,-0.6437,-0.6437,-0.6437,-0.6437,-0.6437,-0.6437,-0.6437,-0.6437,-0.6437,-0.6437,-0.6437,-0.6437,-0.6437,-0.6437,-0.6437,-0.6437,-0.6437,-0.6437,-0.6437,-0.6437,-0.6437,-0.6437,-0.6437,-0.6437,-0.6437,-0.6437,-0.6437,-0.6437,-0.6437,-0.6437,-0.6437,-0.6437,-0.6437,-0.6437,-0.6437,-0.6437,-0.6437,-0.6337,-0.6437,-0.6437,-0.6437,-0.6437,-0.6437,-0.6437,-0.6437,-0.6437,-0.6437,-0.6437,-0.6437,-0.6437,-0.6437,-0.6437,-0.4939,-0.5741,-0.6239,-0.6839,-0.7437,-0.7537,-0.7633,-0.7633,-0.7633,-0.7935,-0.8435,-0.9023,-0.9517,-0.9924,-1.0524,-1.0712,-1.0708,-1.09,-1.11,-1.11,-1.11,-1.0998,-1.0998,-1.0998,-1.0998,-1.1096,-1.1194,-1.1194,-1.1194,-1.1194,-1.1194,-1.1096,-1.0998,-1.1002,-1.1002,-1.1002,-1.1096,-1.1096,-1.1194,-1.11,-1.1096,-1.1096,-1.0998,-1.0904,-1.0806,-1.0609,-1.0511,-1.0413,-1.0109,-0.9809,-0.9616,-0.9221,-0.8726,-0.8233,-0.7733,-0.7338,-0.7135,-0.6936,-0.6836,-0.6634,-0.6437,-0.6437,-0.6437,-0.6437,-0.6437,-0.6437,-0.6437,-0.6437,-0.6437,-0.6437,-0.6437,-0.6437,-0.6437,-0.6437,-0.6437,-0.6437,-0.6437,-0.6437,-0.6437,-0.6437,-0.6437,-0.6437,-0.6437,-0.6437,-0.6437,-0.6437,-0.6437,-0.6437,-0.6437,-0.6437,-0.6437,-0.6437,-0.6437,-0.6437,-0.6437,-0.6437,-0.6437,-0.6437,-0.6437,-0.6437,-0.6437,-0.6437,-0.6437,-0.6437,-0.6437,-0.6437,-0.6437,-0.6437,-0.6437,-0.6437,-0.6437,-0.6437,-0.6437,-0.6437,-0.6437,-0.534,-0.6239,-0.7235,-0.7836,-0.8137,-0.8535,-0.8634,-0.8634,-0.873,-0.9027,-0.9529,-0.9817,-1.0109,-1.0511,-1.0913,-1.111,-1.1002,-1.1096,-1.1194,-1.1194,-1.1194,-1.1194,-1.1194,-1.1194,-1.1194,-1.1194,-1.1194,-1.1194,-1.1194,-1.1194,-1.1194,-1.1194,-1.1194,-1.1194,-1.1194,-1.1194,-1.1194,-1.1194,-1.1194,-1.1194,-1.1194,-1.1194,-1.1194,-1.1194,-1.1096,-1.11,-1.0904,-1.0806,-1.0806,-1.0507,-1.0408,-1.022,-0.9826,-0.9327,-0.8623,-0.8127,-0.7832,-0.7637,-0.7534,-0.7036,-0.6637,-0.6539,-0.6539,-0.6539,-0.6437,-0.6437,-0.6437,-0.6437,-0.6437,-0.6437,-0.6437,-0.6437,-0.6437,-0.6437,-0.6437,-0.6437,-0.6437,-0.6437,-0.6437,-0.6437,-0.6437,-0.6437,-0.6437,-0.6437,-0.6437,-0.6437,-0.6437,-0.6437,-0.6437,-0.6437,-0.6437,-0.6437,-0.6437,-0.6437,-0.6437,-0.6437,-0.6437,-0.6437,-0.6437,-0.6437,-0.6437,-0.6437,-0.6437,-0.6437,-0.6437,-0.6437,-0.6437,-0.6437,-0.6437,-0.6437,-0.6437,-0.6437,-0.6437,-0.6437,-0.6437,-0.5934,-0.6534,-0.8031,-0.8627,-0.8531,-0.8935,-0.9232,-0.9232,-0.9426,-0.9727,-1.0117,-1.0507,-1.0806,-1.1012,-1.1203,-1.1198,-1.1198,-1.1194,-1.1194,-1.1194,-1.1194,-1.1194,-1.1194,-1.1194,-1.1194,-1.1194,-1.1194,-1.1194,-1.1194,-1.1194,-1.1194,-1.1194,-1.1194,-1.1194,-1.1194,-1.1194,-1.1194,-1.1194,-1.1194,-1.1194,-1.1194,-1.1194,-1.1194,-1.1194,-1.1194,-1.1194,-1.1096,-1.1096,-1.1096,-1.0998,-1.0801,-1.0811,-1.0833,-1.0019,-0.9414,-0.9118,-0.8825,-0.8726,-0.8722,-0.7733,-0.7238,-0.6939,-0.6939,-0.6739,-0.6539,-0.6437,-0.6437,-0.6437,-0.6437,-0.6437,-0.6437,-0.6437,-0.6437,-0.6437,-0.6437,-0.6437,-0.6437,-0.6437,-0.6437,-0.6437,-0.6437,-0.6437,-0.6437,-0.6437,-0.6437,-0.6437,-0.6437,-0.6437,-0.6437,-0.6437,-0.6437,-0.6437,-0.6437,-0.6437,-0.6437,-0.6437,-0.6437,-0.6437,-0.6437,-0.6437,-0.6437,-0.6437,-0.6437,-0.6437,-0.6437,-0.6437,-0.6437,-0.6437,-0.6437,-0.6437,-0.6437,-0.6437,-0.6437,-0.6437,-0.6437,-0.6334,-0.7528,-0.8425,-0.9023,-0.9521,-0.9821,-1.0019,-1.0019,-1.0314,-1.0511,-1.0609,-1.0904,-1.11,-1.1198,-1.1198,-1.1194,-1.1194,-1.1194,-1.1194,-1.1194,-1.1194,-1.1194,-1.1194,-1.1194,-1.1194,-1.1194,-1.1194,-1.1194,-1.1194,-1.1194,-1.1194,-1.1194,-1.1194,-1.1194,-1.1194,-1.1194,-1.1194,-1.1194,-1.1194,-1.1194,-1.1194,-1.1194,-1.1194,-1.1194,-1.1194,-1.1194,-1.1194,-1.1194,-1.1194,-1.1194,-1.0998,-1.1105,-1.1124,-1.0408,-1.001,-0.9719,-0.9521,-0.9324,-0.9324,-0.8832,-0.8435,-0.7939,-0.7437,-0.7235,-0.6936,-0.6739,-0.6639,-0.6437,-0.6437,-0.6437,-0.6437,-0.6437,-0.6437,-0.6437,-0.6437,-0.6437,-0.6437,-0.6437,-0.6437,-0.6437,-0.6437,-0.6437,-0.6437,-0.6437,-0.6437,-0.6437,-0.6437,-0.6437,-0.6437,-0.6437,-0.6437,-0.6437,-0.6437,-0.6437,-0.6437,-0.6437,-0.6437,-0.6437,-0.6437,-0.6437,-0.6437,-0.6437,-0.6437,-0.6437,-0.6437,-0.6437,-0.6437,-0.6437,-0.6437,-0.6437,-0.6437,-0.6437,-0.6437,-0.6437,-0.6437,-0.703,-0.8223,-0.9023,-0.9719,-1.0216,-1.0511,-1.0609,-1.0708,-1.0904,-1.09,-1.0998,-1.1096,-1.1194,-1.1194,-1.1194,-1.1194,-1.1194,-1.1194,-1.1194,-1.1194,-1.1194,-1.1194,-1.1194,-1.1194,-1.1194,-1.1194,-1.1194,-1.1194,-1.1194,-1.1194,-1.1194,-1.1194,-1.1194,-1.1194,-1.1194,-1.1194,-1.1194,-1.1194,-1.1194,-1.1194,-1.1194,-1.1194,-1.1194,-1.1194,-1.1194,-1.1194,-1.1194,-1.1194,-1.1194,-1.1194,-1.1194,-1.1198,-1.1105,-1.0909,-1.0605,-1.0413,-1.0314,-1.0117,-1.0019,-1.0019,-0.9525,-0.9031,-0.8428,-0.7829,-0.7434,-0.7039,-0.6736,-0.6537,-0.6437,-0.6437,-0.6437,-0.6437,-0.6437,-0.6437,-0.6437,-0.6437,-0.6437,-0.6437,-0.6437,-0.6437,-0.6437,-0.6437,-0.6437,-0.6437,-0.6437,-0.6437,-0.6437,-0.6437,-0.6437,-0.6437,-0.6437,-0.6437,-0.6437,-0.6437,-0.6437,-0.6437,-0.6437,-0.6437,-0.6437,-0.6437,-0.6437,-0.6437,-0.6437,-0.6437,-0.6437,-0.6437,-0.6437,-0.6437,-0.6437,-0.6437,-0.6437,-0.6437,-0.6437,-0.6437,-0.6437,-0.7932,-0.863,-0.9817,-1.0507,-1.0806,-1.0806,-1.09,-1.1194,-1.1194,-1.1194,-1.1194,-1.1194,-1.1194,-1.1194,-1.1194,-1.1194,-1.1194,-1.1194,-1.1194,-1.1194,-1.1194,-1.1194,-1.1194,-1.1194,-1.1194,-1.1194,-1.1194,-1.1194,-1.1194,-1.1194,-1.1194,-1.1194,-1.1194,-1.1194,-1.1194,-1.1194,-1.1194,-1.1194,-1.1194,-1.1194,-1.1194,-1.1194,-1.1194,-1.1194,-1.1194,-1.1194,-1.1194,-1.1194,-1.1194,-1.1194,-1.1194,-1.1194,-1.1194,-1.1194,-1.1194,-1.1194,-1.1096,-1.0904,-1.0806,-1.0708,-1.0609,-1.0019,-0.9324,-0.8524,-0.7829,-0.7434,-0.6936,-0.6637,-0.6437,-0.6437,-0.6437,-0.6437,-0.6437,-0.6437,-0.6437,-0.6437,-0.6437,-0.6437,-0.6437,-0.6437,-0.6437,-0.6437,-0.6437,-0.6437,-0.6437,-0.6437,-0.6437,-0.6437,-0.6437,-0.6437,-0.6437,-0.6437,-0.6437,-0.6437,-0.6437,-0.6437,-0.6437,-0.6437,-0.6437,-0.6437,-0.6437,-0.6437,-0.6437,-0.6437,-0.6437,-0.6437,-0.6437,-0.6437,-0.6437,-0.6437,-0.6437,-0.6437,-0.6437,-0.6437,-0.6437,-0.873,-0.9628,-1.0216,-1.0703,-1.1096,-1.1096,-1.11,-1.1194,-1.1194,-1.1194,-1.1194,-1.1194,-1.1194,-1.1194,-1.1194,-1.1194,-1.1194,-1.1194,-1.1194,-1.1194,-1.1194,-1.1194,-1.1194,-1.1194,-1.1194,-1.1194,-1.1194,-1.1194,-1.1194,-1.1194,-1.1194,-1.1194,-1.1194,-1.1194,-1.1194,-1.1194,-1.1194,-1.1194,-1.1194,-1.1194,-1.1194,-1.1194,-1.1194,-1.1194,-1.1194,-1.1194,-1.1194,-1.1194,-1.1194,-1.1194,-1.1194,-1.1194,-1.1194,-1.1194,-1.1194,-1.1194,-1.1194,-1.1194,-1.1096,-1.1096,-1.0998,-1.0806,-1.0113,-0.9225,-0.8428,-0.763,-0.7132,-0.6734,-0.6437,-0.6437,-0.6437,-0.6437,-0.6437,-0.6437,-0.6437,-0.6437,-0.6437,-0.6437,-0.6437,-0.6437,-0.6437,-0.6437,-0.6437,-0.6437,-0.6437,-0.6437,-0.6437,-0.6437,-0.6437,-0.6437,-0.6437,-0.6437,-0.6437,-0.6437,-0.6437,-0.6437,-0.6437,-0.6437,-0.6437,-0.6437,-0.6437,-0.6437,-0.6437,-0.6437,-0.6437,-0.6437,-0.6437,-0.6437,-0.6437,-0.6437,-0.6437,-0.6437,-0.6437,-0.6437,-0.6437,-0.9525,-1.0216,-1.0609,-1.0904,-1.1194,-1.1194,-1.1194,-1.1194,-1.1194,-1.1194,-1.1194,-1.1194,-1.1194,-1.1194,-1.1194,-1.1194,-1.1194,-1.1194,-1.1194,-1.1194,-1.1194,-1.1194,-1.1194,-1.1194,-1.1194,-1.1194,-1.1194,-1.1194,-1.1194,-1.1194,-1.1194,-1.1194,-1.1194,-1.1194,-1.1194,-1.1194,-1.1194,-1.1194,-1.1194,-1.1194,-1.1194,-1.1194,-1.1194,-1.1194,-1.1194,-1.1194,-1.1194,-1.1194,-1.1194,-1.1194,-1.1194,-1.1194,-1.1194,-1.1194,-1.1194,-1.1194,-1.1194,-1.1194,-1.1194,-1.1194,-1.1096,-1.09,-1.0413,-0.9521,-0.863,-0.7832,-0.7132,-0.6634,-0.6537,-0.6437,-0.6437,-0.6437,-0.6437,-0.6437,-0.6437,-0.6437,-0.6437,-0.6437,-0.6437,-0.6437,-0.6437,-0.6437,-0.6437,-0.6437,-0.6437,-0.6437,-0.6437,-0.6437,-0.6437,-0.6437,-0.6437,-0.6437,-0.6437,-0.6437,-0.6437,-0.6437,-0.6437,-0.6437,-0.6437,-0.6437,-0.6437,-0.6437,-0.6437,-0.6437,-0.6437,-0.6437,-0.6437,-0.6437,-0.6437,-0.6437,-0.6437,-0.6437,-0.6437,-0.6437,-0.6437,-1.0216,-1.0511,-1.0998,-1.1194,-1.1194,-1.1194,-1.1194,-1.1194,-1.1194,-1.1194,-1.1194,-1.1194,-1.1194,-1.1194,-1.1194,-1.1194,-1.1194,-1.1194,-1.1194,-1.1194,-1.1194,-1.1194,-1.1194,-1.1194,-1.1194,-1.1194,-1.1194,-1.1194,-1.1194,-1.1194,-1.1194,-1.1194,-1.1194,-1.1194,-1.1194,-1.1194,-1.1194,-1.1194,-1.1194,-1.1194,-1.1194,-1.1194,-1.1194,-1.1194,-1.1194,-1.1194,-1.1194,-1.1194,-1.1194,-1.1194,-1.1194,-1.1194,-1.1194,-1.1194,-1.1194,-1.1194,-1.1194,-1.1194,-1.1194,-1.1194,-1.0998,-1.0708,-1.0319,-0.9426,-0.863,-0.7932,-0.7232,-0.6634,-0.6437,-0.6437,-0.6437,-0.6437,-0.6437,-0.6437,-0.6437,-0.6437,-0.6437,-0.6437,-0.6437,-0.6437,-0.6437,-0.6437,-0.6437,-0.6437,-0.6437,-0.6437,-0.6437,-0.6437,-0.6437,-0.6437,-0.6437,-0.6437,-0.6437,-0.6437,-0.6437,-0.6437,-0.6437,-0.6437,-0.6437,-0.6437,-0.6437,-0.6437,-0.6437,-0.6437,-0.6437,-0.6437,-0.6437,-0.6437,-0.6437,-0.6437,-0.6437,-0.6437,-0.6437,-0.6437,-0.6437,-1.0712,-1.1012,-1.1105,-1.1194,-1.1194,-1.1194,-1.1194,-1.1194,-1.1194,-1.1194,-1.1194,-1.1194,-1.1194,-1.1194,-1.1194,-1.1194,-1.1194,-1.1194,-1.1194,-1.1194,-1.1194,-1.1194,-1.1194,-1.1194,-1.1194,-1.1194,-1.1194,-1.1194,-1.1194,-1.1194,-1.1194,-1.1194,-1.1194,-1.1194,-1.1194,-1.1194,-1.1194,-1.1194,-1.1194,-1.1194,-1.1194,-1.1194,-1.1194,-1.1194,-1.1194,-1.1194,-1.1194,-1.1194,-1.1194,-1.1194,-1.1194,-1.1194,-1.1194,-1.1194,-1.1194,-1.1194,-1.1194,-1.1194,-1.1194,-1.1194,-1.0998,-1.0609,-1.0117,-0.9324,-0.8528,-0.7928,-0.7332,-0.6736,-0.6437,-0.6437,-0.6437,-0.6437,-0.6437,-0.6437,-0.6437,-0.6437,-0.6437,-0.6437,-0.6437,-0.6437,-0.6437,-0.6437,-0.6437,-0.6437,-0.6437,-0.6437,-0.6437,-0.6437,-0.6437,-0.6437,-0.6437,-0.6437,-0.6437,-0.6437,-0.6437,-0.6437,-0.6437,-0.6437,-0.6437,-0.6437,-0.6437,-0.6437,-0.6437,-0.6437,-0.6437,-0.6437,-0.6437,-0.6437,-0.6437,-0.6437,-0.6437,-0.6437,-0.6437,-0.6437,-0.6437,-1.11,-1.1208,-1.1198,-1.1194,-1.1194,-1.1194,-1.1194,-1.1194,-1.1194,-1.1194,-1.1194,-1.1194,-1.1194,-1.1194,-1.1194,-1.1194,-1.1194,-1.1194,-1.1194,-1.1194,-1.1194,-1.1194,-1.1194,-1.1194,-1.1194,-1.1194,-1.1194,-1.1194,-1.1194,-1.1194,-1.1194,-1.1194,-1.1194,-1.1194,-1.1194,-1.1194,-1.1194,-1.1194,-1.1194,-1.1194,-1.1194,-1.1194,-1.1194,-1.1194,-1.1194,-1.1194,-1.1194,-1.1194,-1.1194,-1.1194,-1.1194,-1.1194,-1.1194,-1.1194,-1.1292,-1.1292,-1.1292,-1.1296,-1.1296,-1.1198,-1.0998,-1.0511,-1.0023,-0.9229,-0.8726,-0.8127,-0.7335,-0.6736,-0.6437,-0.6437,-0.6437,-0.6437,-0.6437,-0.6437,-0.6437,-0.6437,-0.6437,-0.6437,-0.6437,-0.6437,-0.6437,-0.6437,-0.6437,-0.6437,-0.6437,-0.6437,-0.6437,-0.6437,-0.6437,-0.6437,-0.6437,-0.6437,-0.6437,-0.6437,-0.6437,-0.6437,-0.6437,-0.6437,-0.6437,-0.6437,-0.6437,-0.6437,-0.6437,-0.6437,-0.6437,-0.6437,-0.6437,-0.6437,-0.6437,-0.6437,-0.6437,-0.6437,-0.6437,-0.6437,-0.6437,-1.1194,-1.1194,-1.1194,-1.1194,-1.1194,-1.1194,-1.1194,-1.1194,-1.1194,-1.1194,-1.1194,-1.1194,-1.1194,-1.1194,-1.1194,-1.1194,-1.1194,-1.1194,-1.1194,-1.1194,-1.1194,-1.1194,-1.1194,-1.1194,-1.1194,-1.1194,-1.1194,-1.1194,-1.1194,-1.1194,-1.1194,-1.1194,-1.1194,-1.1194,-1.1194,-1.1194,-1.1194,-1.1194,-1.1194,-1.1194,-1.1194,-1.1194,-1.1194,-1.1194,-1.1194,-1.1194,-1.1194,-1.1194,-1.1194,-1.1194,-1.1194,-1.1194,-1.1292,-1.1292,-1.1394,-1.1492,-1.1389,-1.1394,-1.1394,-1.1198,-1.0904,-1.0408,-0.9924,-0.9426,-0.8924,-0.8428,-0.7633,-0.7135,-0.6836,-0.6537,-0.6537,-0.6437,-0.6437,-0.6437,-0.6437,-0.6437,-0.6437,-0.6437,-0.6437,-0.6437,-0.6437,-0.6437,-0.6437,-0.6437,-0.6437,-0.6437,-0.6437,-0.6437,-0.6437,-0.6437,-0.6437,-0.6437,-0.6437,-0.6437,-0.6437,-0.6437,-0.6437,-0.6437,-0.6437,-0.6437,-0.6437,-0.6437,-0.6437,-0.6437,-0.6437,-0.6437,-0.6437,-0.6437,-0.6437,-0.6437,-0.6437,-0.6437,-0.6437,-0.6437,-0.6437,-1.1194,-1.1194,-1.1194,-1.1194,-1.1194,-1.1194,-1.1194,-1.1194,-1.1194,-1.1194,-1.1194,-1.1194,-1.1194,-1.1194,-1.1194,-1.1194,-1.1194,-1.1194,-1.1194,-1.1194,-1.1194,-1.1194,-1.1194,-1.1194,-1.1194,-1.1194,-1.1194,-1.1194,-1.1194,-1.1194,-1.1194,-1.1194,-1.1194,-1.1194,-1.1194,-1.1194,-1.1194,-1.1194,-1.1194,-1.1194,-1.1194,-1.1194,-1.1194,-1.1194,-1.1194,-1.1194,-1.1194,-1.1194,-1.1194,-1.1194,-1.1194,-1.1194,-1.1292,-1.1389,-1.159,-1.1688,-1.1585,-1.1585,-1.159,-1.1292,-1.0998,-1.0801,-1.0413,-1.0015,-0.9616,-0.9316,-0.8623,-0.8134,-0.7733,-0.6939,-0.6739,-0.6539,-0.6439,-0.6437,-0.6437,-0.6437,-0.6437,-0.6437,-0.6437,-0.6437,-0.6437,-0.6437,-0.6437,-0.6437,-0.6437,-0.6437,-0.6437,-0.6437,-0.6437,-0.6437,-0.6437,-0.6437,-0.6437,-0.6437,-0.6437,-0.6437,-0.6437,-0.6437,-0.6437,-0.6437,-0.6437,-0.6437,-0.6437,-0.6437,-0.6437,-0.6437,-0.6437,-0.6437,-0.6437,-0.6437,-0.6437,-0.6437,-0.6437,-0.6437,-0.6437]},{"header":{"parameterUnit":"m.s-1","parameterCategory":1,"la1":31.0,"la2":29.5877,"lo1":-88.7671,"lo2":-86.6584,"dy":0.0162,"dx":0.0185,"nx":115,"ny":88,"refTime":"2024-07-04T18:00:00:Z","depth":0,"parameterNumber":3,"parameterNumberName":"V-component_of_WINDS"},"data":[0.0,0.0,0.0,0.0,0.0,0.0,0.0,0.0,0.0,0.0,0.0,0.0,0.0,0.0,0.0,0.0,0.0,0.0,0.0,0.0,0.0,0.0,0.0,0.0,0.0,0.0,0.0,0.0,0.0,0.0,0.0,0.0,0.0,0.0,0.0,0.0,0.0,0.0,0.0,0.0,0.0,0.0,0.0,0.0,0.0,0.0,0.0,0.0,0.0,0.0,0.0,0.0,0.0,0.0,0.0,0.0,0.0,0.0,0.0,0.0,0.0,0.0,0.0,0.0,0.0,0.0,0.0,0.0,0.0,0.0,0.0,0.0,0.0,0.0,0.0,0.0,0.0,0.0,0.0,0.0,0.0,0.0,0.0,0.0,0.0,0.0,0.0,0.0,0.0,0.0,0.0,0.0,0.0,0.0,0.0,0.0,0.0,0.0,0.0,0.0,0.0,0.0,0.0,0.0,0.0,0.0,0.0,0.0,0.0,0.0,0.0,0.0,0.0,0.0,0.0,0.0,0.0,0.0,0.0,0.0,0.0,0.0,0.0,0.0,0.0,0.0,0.0,0.0,0.0,0.0,0.0,0.0,0.0,0.0,0.0,0.0,0.0,0.0,0.0,0.0,0.0,0.0,0.0,0.0,0.0,0.0,0.0,0.0,0.0,0.0,0.0,0.0,0.0,0.0,0.0,0.0,0.0,0.0,0.0,0.0,0.0,0.0,0.0,0.0,0.0,0.0,0.0,0.0,0.0,0.0,0.0,0.0,0.0,0.0,0.0,0.0,0.0,0.0,0.0,0.0,0.0,0.0,0.0,0.0,0.0,0.0,0.0,0.0,0.0,0.0,0.0,0.0,0.0,0.0,0.0,0.0,0.0,0.0,0.0,0.0,0.0,0.0,0.0,0.0,0.0,0.0,0.0,0.0,0.0,0.0,0.0,0.0,0.0,0.0,0.0,0.0,0.0,0.0,0.0,0.0,0.0,0.0,0.0,0.0,0.0,0.0,0.0,0.0,0.0,0.0,0.0,0.0,0.0,0.0,0.0,0.0,0.0,0.0,0.0,0.0,0.0,0.0,0.0,0.0,0.0,0.0,0.0,0.0,0.0,0.0,0.0,0.0,0.0,0.0,0.0,0.0,0.0,0.0,0.0,0.0,0.0,0.0,0.0,0.0,0.0,0.0,0.0,0.0,0.0,0.0,0.0,0.0,0.0,0.0,0.0,0.0,0.0,0.0,0.0,0.0,0.0,0.0,0.0,0.0,0.0,0.0,0.0,0.0,0.0,0.0,0.0,0.0,0.0,0.0,0.0,0.0,0.0,0.0,0.0,0.0,0.0,0.0,0.0,0.0,0.0,0.0,0.0,0.0,0.0,0.0,0.0,0.0,0.0,0.0,0.0,0.0,0.0,0.0,0.0,0.0,0.0,0.0,0.0,0.0,0.0,0.0,0.0,0.0,0.0,0.0,0.0,0.0,0.0,0.0,0.0,0.0,0.0,0.0,0.0,0.0,0.0,0.0,0.0,0.0,0.0,0.0,0.0,0.0,0.0,0.0,0.0,0.0,0.0,0.0,0.0,0.0,0.0,0.0,0.0,0.0,0.0,0.0,0.0,0.0,0.0,0.0,0.0,0.0,0.0,0.0,0.0,0.0,0.0,0.0,0.0,0.0,0.0,0.0,0.0,0.0,0.0,0.0,0.0,0.0,0.0,0.0,0.0,0.0,0.0,0.0,0.0,0.0,0.0,0.0,0.0,0.0,0.0,0.0,0.0,0.0,0.0,0.0,0.0,0.0,0.0,0.0,0.0,0.0,0.0,0.0,0.0,0.0,0.0,0.0,0.0,0.0,0.0,0.0,0.0,0.0,0.0,0.0,0.0,0.0,0.0,0.0,0.0,0.0,0.0,0.0,0.0,0.0,0.0,0.0,0.0,0.0,0.0,0.0,0.0,0.0,0.0,0.0,0.0,0.0,0.0,0.0,0.0,0.0,0.0,0.0,0.0,0.0,0.0,0.0,0.0,0.0,0.0,0.0,0.0,0.0,0.0,0.0,0.0,0.0,0.0,0.0,0.0,0.0,0.0,0.0,0.0,0.0,0.0,0.0,0.0,0.0,0.0,0.0,0.0,0.0,0.0,0.0,0.0,0.0,0.0,0.0,0.0,0.0,0.0,0.0,0.0,0.0,0.0,0.0,0.0,0.0,0.0,0.0,0.0,0.0,0.0,0.0,0.0,0.0,0.0,0.0,0.0,0.0,0.0,0.0,0.0,0.0,0.0,0.0,0.0,0.0,0.0,0.0,0.0,0.0,0.0,0.0,0.0,0.0,0.0,0.0,0.0,0.0,0.0,0.0,0.0,0.0,0.0,0.0,0.0,0.0,0.0,0.0,0.0,0.0,0.0,0.0,0.0,0.0,0.0,0.0,0.0,0.0,0.0,0.0,0.0,0.0,0.0,0.0,0.0,0.0,0.0,0.0,0.0,0.0,0.0,0.0,0.0,0.0,0.0,0.0,0.0,0.0,0.0,0.0,0.0,0.0,0.0,0.0,0.0,0.0,0.0,0.0,0.0,0.0,0.0,0.0,0.0,0.0,0.0,0.0,0.0,0.0,0.0,0.0,0.0,0.0,0.0,0.0,0.0,0.0,0.0,0.0,0.0,0.0,0.0,0.0,0.0,0.0,0.0,0.0,0.0,0.0,0.0,0.0,0.0,0.0,0.0,0.0,0.0,0.0,0.0,0.0,0.0,0.0,0.0,0.0,0.0,0.0,0.0,0.0,0.0,0.0,0.0,0.0,0.0,0.0,0.0,0.0,0.0,0.0,0.0,0.0,0.0,0.0,0.0,0.0,0.0,0.0,0.0,0.0,0.0,0.0,0.0,0.0,0.0,0.0,0.0,0.0,0.0,0.0,0.0,0.0,0.0,0.0,0.0,0.0,0.0,0.0,0.0,0.0,0.0,0.0,0.0,0.0,0.0,0.0,0.0,0.0,0.0,0.0,0.0,0.0,0.0,0.0,0.0,0.0,0.0,0.0,0.0,0.0,0.0,0.0,0.0,0.0,0.0,0.0,0.0,0.0,0.0,0.0,0.0,0.0,0.0,0.0,0.0,0.0,0.0,0.0,0.0,0.0,0.0,0.0,0.0,0.0,0.0,0.0,0.0,0.0,0.0,0.0,0.0,0.0,0.0,0.0,0.0,0.0,0.0,0.0,0.0,0.0,0.0,0.0,0.0,0.0,0.0,0.0,0.0,0.0,0.0,0.0,0.0,0.0,0.0,0.0,0.0,0.0,0.0,0.0,0.0,0.0,0.0,0.0,0.0,0.0,0.0,0.0,0.0,0.0,0.0,0.0,0.0,0.0,0.0,0.0,0.0,0.0,0.0,0.0,0.0,0.0,0.0,0.0,0.0,0.0,0.0,0.0,0.0,0.0,0.0,0.0,0.0,0.0,0.0,0.0,0.0,0.0,0.0,0.0,0.0,0.0,0.0,0.0,0.0,0.0,0.0,0.0,0.0,0.0,0.0,0.0,0.0,0.0,0.0,0.0,0.0,0.0,0.0,0.0,0.0,0.0,0.0,0.0,0.0,0.0,0.0,0.0,0.0,0.0,0.0,0.0,0.0,0.0,0.0,0.0,0.0,0.0,0.0,0.0,0.0,0.0,0.0,0.0,0.0,0.0,0.0,0.0,0.0,0.0,0.0,0.0,0.0,0.0,0.0,0.0,0.0,0.0,0.0,0.0,0.0,0.0,0.0,0.0,0.0,0.0,0.0,0.0,0.0,0.0,0.0,0.0,0.0,0.0,0.0,0.0,0.0,0.0,0.0,0.0,0.0,0.0,0.0,0.0,0.0,0.0,0.0,0.0,0.0,0.0,0.0,0.0,0.0,0.0,0.0,0.0,0.0,0.0,0.0,0.0,0.0,0.0,0.0,0.0,0.0,0.0,0.0,0.0,0.0,0.0,0.0,0.0,0.0,0.0,0.0,0.0,0.0,0.0,0.0,0.0,0.0,0.0,0.0,0.0,0.0,0.0,0.0,0.0,0.0,0.0,0.0,0.0,0.0,0.0,0.0,0.0,0.0,0.0,0.0,0.0,0.0,0.0,0.0,0.0,0.0,0.0,0.0,0.0,0.0,0.0,0.0,0.0,0.0,0.0,0.0,0.0,0.0,0.0,0.0,0.0,0.0,0.0,0.0,0.0,0.0,0.0,0.0,0.0,0.0,0.0,0.0,0.0,0.0,0.0,0.0,0.0,0.0,0.0,0.0,0.0,0.0,0.0,-1.0312,0.0,0.0,0.0,0.0,0.0,0.0,0.0,0.0,0.0,0.0,0.0,0.0,0.0,0.0,0.0,0.0,0.0,0.0,0.0,0.0,0.0,0.0,0.0,0.0,0.0,0.0,0.0,0.0,0.0,0.0,0.0,0.0,0.0,0.0,0.0,0.0,0.0,0.0,0.0,0.0,0.0,0.0,0.0,0.0,0.0,0.0,0.0,0.0,0.0,0.0,0.0,0.0,0.0,0.0,0.0,0.0,0.0,0.0,0.0,0.0,0.0,0.0,0.0,0.0,0.0,0.0,0.0,0.0,0.0,0.0,0.0,0.0,0.0,0.0,0.0,0.0,0.0,0.0,0.0,0.0,0.0,0.0,0.0,0.0,0.0,0.0,0.0,0.0,0.0,0.0,0.0,0.0,0.0,0.0,0.0,0.0,0.0,0.0,0.0,0.0,0.0,0.0,0.0,0.0,0.0,0.0,0.0,0.0,0.0,0.0,-1.031,-1.031,-1.031,-1.031,-1.031,0.0,0.0,0.0,0.0,0.0,0.0,0.0,0.0,0.0,0.0,0.0,0.0,0.0,0.0,0.0,0.0,0.0,0.0,0.0,0.0,0.0,0.0,0.0,0.0,0.0,0.0,0.0,0.0,0.0,0.0,0.0,0.0,0.0,0.0,0.0,0.0,0.0,0.0,0.0,0.0,0.0,0.0,0.0,0.0,0.0,0.0,0.0,0.0,0.0,0.0,0.0,0.0,0.0,0.0,0.0,0.0,0.0,0.0,0.0,0.0,0.0,0.0,0.0,0.0,0.0,0.0,0.0,0.0,0.0,0.0,0.0,0.0,0.0,0.0,0.0,0.0,0.0,0.0,0.0,0.0,0.0,0.0,0.0,0.0,0.0,0.0,0.0,0.0,0.0,0.0,0.0,0.0,0.0,0.0,0.0,0.0,0.0,0.0,0.0,0.0,0.0,0.0,0.0,0.0,0.0,0.0,0.0,0.0,0.0,0.0,0.0,0.0,-1.077,-1.077,-1.0615,0.0,0.0,0.0,0.0,0.0,0.0,0.0,0.0,0.0,0.0,0.0,0.0,0.0,0.0,0.0,0.0,0.0,0.0,0.0,0.0,0.0,0.0,0.0,0.0,0.0,0.0,0.0,0.0,0.0,0.0,0.0,0.0,0.0,0.0,0.0,0.0,0.0,0.0,0.0,0.0,0.0,0.0,0.0,0.0,0.0,0.0,0.0,0.0,0.0,0.0,0.0,0.0,0.0,0.0,0.0,0.0,0.0,0.0,0.0,0.0,0.0,0.0,0.0,0.0,0.0,0.0,0.0,0.0,0.0,0.0,0.0,0.0,0.0,0.0,0.0,0.0,0.0,0.0,0.0,0.0,0.0,0.0,0.0,0.0,0.0,0.0,0.0,0.0,0.0,0.0,0.0,0.0,0.0,0.0,0.0,0.0,0.0,0.0,0.0,0.0,0.0,0.0,0.0,0.0,0.0,0.0,0.0,0.0,0.0,0.0,-1.1398,-1.1385,-1.2142,0.0,-1.1563,0.0,0.0,0.0,0.0,0.0,0.0,0.0,0.0,0.0,0.0,0.0,0.0,0.0,0.0,0.0,0.0,0.0,0.0,0.0,0.0,0.0,0.0,0.0,0.0,0.0,0.0,0.0,0.0,0.0,0.0,0.0,0.0,0.0,0.0,0.0,0.0,0.0,0.0,0.0,0.0,0.0,0.0,0.0,0.0,0.0,0.0,0.0,0.0,0.0,0.0,0.0,0.0,0.0,0.0,0.0,0.0,0.0,0.0,0.0,0.0,0.0,0.0,0.0,0.0,0.0,0.0,0.0,0.0,0.0,0.0,0.0,0.0,0.0,0.0,0.0,0.0,0.0,0.0,0.0,0.0,0.0,0.0,0.0,0.0,0.0,0.0,0.0,0.0,0.0,0.0,0.0,0.0,0.0,0.0,0.0,0.0,0.0,0.0,0.0,0.0,0.0,0.0,0.0,0.0,0.0,0.0,0.0,0.0,0.0,0.0,0.0,-1.2255,-1.2623,-1.2409,0.0,0.0,0.0,0.0,0.0,0.0,0.0,0.0,0.0,0.0,0.0,0.0,0.0,0.0,0.0,0.0,0.0,0.0,0.0,0.0,0.0,0.0,0.0,0.0,0.0,0.0,0.0,0.0,0.0,0.0,0.0,0.0,0.0,0.0,0.0,0.0,0.0,0.0,0.0,0.0,0.0,0.0,0.0,0.0,0.0,0.0,0.0,0.0,0.0,0.0,0.0,0.0,0.0,0.0,0.0,0.0,0.0,0.0,0.0,0.0,0.0,0.0,0.0,0.0,0.0,0.0,0.0,0.0,0.0,0.0,0.0,0.0,0.0,0.0,0.0,0.0,0.0,0.0,0.0,0.0,0.0,0.0,0.0,0.0,0.0,0.0,0.0,0.0,0.0,0.0,0.0,0.0,0.0,0.0,0.0,0.0,0.0,0.0,0.0,0.0,0.0,0.0,0.0,0.0,0.0,0.0,0.0,0.0,0.0,0.0,-1.1734,0.0,-1.3396,-1.3474,-1.2992,-1.191,0.0,0.0,0.0,0.0,0.0,0.0,0.0,0.0,0.0,0.0,0.0,0.0,0.0,0.0,0.0,0.0,0.0,0.0,0.0,0.0,0.0,0.0,0.0,0.0,0.0,0.0,0.0,0.0,0.0,0.0,0.0,0.0,0.0,0.0,0.0,0.0,0.0,0.0,0.0,0.0,0.0,0.0,0.0,0.0,0.0,0.0,0.0,0.0,0.0,0.0,0.0,0.0,0.0,0.0,0.0,0.0,0.0,0.0,0.0,0.0,0.0,0.0,0.0,0.0,0.0,0.0,0.0,0.0,0.0,0.0,0.0,0.0,0.0,0.0,0.0,0.0,0.0,0.0,0.0,0.0,0.0,0.0,0.0,0.0,0.0,0.0,0.0,0.0,0.0,0.0,0.0,0.0,0.0,0.0,0.0,0.0,0.0,0.0,0.0,0.0,0.0,0.0,0.0,0.0,0.0,0.0,0.0,0.0,0.0,-1.2342,-1.3515,-1.5082,-1.5167,-1.4413,0.0,0.0,0.0,0.0,0.0,0.0,0.0,0.0,0.0,0.0,0.0,0.0,0.0,0.0,0.0,0.0,0.0,0.0,0.0,0.0,0.0,0.0,0.0,0.0,0.0,0.0,0.0,0.0,0.0,0.0,0.0,0.0,0.0,0.0,0.0,0.0,0.0,0.0,0.0,0.0,0.0,0.0,0.0,0.0,0.0,0.0,0.0,0.0,0.0,0.0,0.0,0.0,0.0,0.0,0.0,0.0,0.0,0.0,0.0,0.0,0.0,0.0,0.0,0.0,0.0,0.0,0.0,0.0,0.0,0.0,0.0,0.0,0.0,0.0,0.0,0.0,0.0,0.0,0.0,0.0,0.0,0.0,0.0,0.0,0.0,0.0,0.0,0.0,0.0,0.0,0.0,0.0,0.0,0.0,0.0,0.0,0.0,0.0,0.0,0.0,0.0,0.0,0.0,0.0,0.0,0.0,0.0,0.0,0.0,-1.2247,-1.3667,-1.4678,-1.5268,-1.4764,-1.3907,0.0,0.0,0.0,0.0,0.0,0.0,0.0,0.0,0.0,0.0,0.0,0.0,0.0,0.0,0.0,0.0,0.0,0.0,0.0,0.0,0.0,0.0,0.0,0.0,0.0,0.0,0.0,0.0,0.0,0.0,0.0,0.0,0.0,0.0,0.0,0.0,0.0,0.0,0.0,0.0,0.0,0.0,0.0,0.0,0.0,0.0,0.0,0.0,0.0,0.0,0.0,0.0,0.0,0.0,0.0,0.0,0.0,0.0,0.0,0.0,0.0,0.0,0.0,0.0,0.0,0.0,0.0,0.0,0.0,0.0,0.0,0.0,0.0,0.0,0.0,0.0,0.0,0.0,0.0,0.0,0.0,0.0,0.0,0.0,0.0,0.0,0.0,0.0,0.0,0.0,0.0,0.0,0.0,0.0,0.0,0.0,0.0,0.0,0.0,0.0,0.0,0.0,0.0,0.0,0.0,0.0,0.0,0.0,0.0,-1.309,0.0,-1.5284,0.0,-1.4742,-1.3887,0.0,0.0,0.0,0.0,0.0,0.0,0.0,0.0,0.0,0.0,0.0,0.0,0.0,0.0,0.0,0.0,0.0,0.0,0.0,0.0,0.0,0.0,0.0,0.0,0.0,0.0,0.0,0.0,0.0,0.0,0.0,0.0,0.0,0.0,0.0,0.0,0.0,0.0,0.0,0.0,0.0,0.0,0.0,0.0,0.0,0.0,0.0,0.0,0.0,0.0,0.0,0.0,0.0,0.0,0.0,0.0,0.0,0.0,0.0,0.0,0.0,0.0,0.0,0.0,0.0,0.0,0.0,0.0,0.0,0.0,0.0,0.0,0.0,0.0,0.0,0.0,0.0,0.0,0.0,0.0,0.0,0.0,0.0,0.0,0.0,0.0,0.0,0.0,0.0,0.0,0.0,0.0,0.0,0.0,0.0,0.0,0.0,0.0,0.0,0.0,0.0,0.0,0.0,0.0,0.0,0.0,0.0,0.0,-1.232,-1.3941,-1.4897,-1.54,-1.5303,-1.5284,-1.4452,0.0,0.0,0.0,0.0,0.0,0.0,0.0,0.0,0.0,0.0,0.0,0.0,0.0,0.0,0.0,0.0,0.0,0.0,0.0,0.0,0.0,0.0,0.0,0.0,0.0,0.0,0.0,0.0,0.0,0.0,0.0,0.0,0.0,0.0,0.0,0.0,0.0,0.0,0.0,0.0,0.0,0.0,0.0,0.0,0.0,0.0,0.0,0.0,0.0,0.0,0.0,0.0,0.0,0.0,0.0,0.0,0.0,0.0,0.0,0.0,0.0,0.0,0.0,0.0,0.0,0.0,0.0,0.0,0.0,0.0,0.0,0.0,0.0,0.0,0.0,0.0,0.0,0.0,0.0,0.0,0.0,0.0,0.0,0.0,0.0,0.0,0.0,0.0,0.0,0.0,0.0,0.0,0.0,0.0,0.0,0.0,0.0,0.0,0.0,0.0,0.0,0.0,0.0,0.0,0.0,0.0,0.0,0.0,0.0,-1.4878,-1.631,-1.6755,-1.6213,-1.5613,-1.4472,0.0,0.0,0.0,0.0,0.0,0.0,0.0,0.0,0.0,0.0,0.0,0.0,0.0,0.0,0.0,0.0,0.0,0.0,0.0,0.0,0.0,0.0,0.0,0.0,0.0,0.0,0.0,0.0,0.0,0.0,0.0,0.0,0.0,0.0,0.0,0.0,0.0,0.0,0.0,0.0,0.0,0.0,0.0,0.0,0.0,0.0,0.0,0.0,0.0,0.0,0.0,0.0,0.0,0.0,0.0,0.0,0.0,0.0,0.0,0.0,0.0,0.0,0.0,0.0,0.0,0.0,0.0,0.0,0.0,0.0,0.0,0.0,0.0,0.0,0.0,0.0,0.0,0.0,0.0,0.0,0.0,0.0,0.0,0.0,0.0,0.0,0.0,0.0,0.0,0.0,0.0,0.0,0.0,0.0,0.0,0.0,0.0,0.0,0.0,0.0,0.0,0.0,0.0,0.0,0.0,0.0,0.0,0.0,0.0,-1.7175,-1.7891,-1.8045,-1.7548,-1.6677,-1.526,-1.3264,0.0,0.0,0.0,0.0,0.0,0.0,0.0,0.0,0.0,0.0,0.0,0.0,0.0,0.0,0.0,0.0,0.0,0.0,0.0,0.0,0.0,0.0,0.0,0.0,0.0,0.0,0.0,0.0,0.0,0.0,0.0,0.0,0.0,0.0,0.0,0.0,0.0,0.0,0.0,0.0,0.0,0.0,0.0,0.0,0.0,0.0,0.0,0.0,0.0,0.0,0.0,0.0,0.0,0.0,0.0,0.0,0.0,0.0,0.0,0.0,0.0,0.0,0.0,0.0,0.0,0.0,0.0,0.0,0.0,0.0,0.0,0.0,0.0,0.0,0.0,0.0,0.0,0.0,0.0,0.0,0.0,0.0,0.0,0.0,0.0,0.0,0.0,0.0,0.0,0.0,0.0,0.0,0.0,0.0,0.0,0.0,0.0,0.0,0.0,0.0,0.0,0.0,0.0,0.0,0.0,0.0,0.0,0.0,-2.0437,-1.9767,-1.936,-1.9225,-1.8413,-1.673,0.0,0.0,0.0,0.0,0.0,0.0,0.0,0.0,0.0,0.0,0.0,0.0,0.0,0.0,0.0,0.0,0.0,0.0,0.0,0.0,0.0,0.0,0.0,0.0,0.0,0.0,0.0,0.0,0.0,0.0,0.0,0.0,0.0,0.0,0.0,0.0,0.0,0.0,0.0,0.0,0.0,0.0,0.0,0.0,0.0,0.0,0.0,0.0,0.0,0.0,0.0,0.0,0.0,0.0,0.0,0.0,0.0,0.0,0.0,0.0,0.0,0.0,0.0,0.0,0.0,0.0,0.0,0.0,0.0,0.0,0.0,0.0,0.0,0.0,0.0,0.0,0.0,0.0,0.0,0.0,0.0,0.0,0.0,0.0,0.0,0.0,0.0,0.0,0.0,0.0,0.0,0.0,0.0,0.0,0.0,0.0,0.0,0.0,0.0,0.0,0.0,0.0,0.0,0.0,0.0,0.0,0.0,0.0,0.0,-2.1275,-2.2339,-2.2281,-2.1069,-2.0173,-1.8523,0.0,0.0,0.0,0.0,0.0,0.0,0.0,0.0,0.0,0.0,0.0,0.0,0.0,0.0,0.0,0.0,0.0,0.0,0.0,0.0,0.0,0.0,0.0,0.0,0.0,0.0,0.0,0.0,0.0,0.0,0.0,0.0,0.0,0.0,0.0,0.0,0.0,0.0,0.0,0.0,0.0,0.0,0.0,0.0,0.0,0.0,0.0,0.0,0.0,0.0,0.0,0.0,0.0,0.0,0.0,0.0,0.0,0.0,0.0,0.0,0.0,0.0,0.0,0.0,0.0,0.0,0.0,0.0,0.0,0.0,0.0,0.0,0.0,0.0,0.0,0.0,0.0,0.0,0.0,0.0,0.0,0.0,0.0,0.0,0.0,0.0,0.0,0.0,0.0,0.0,0.0,0.0,0.0,0.0,0.0,0.0,0.0,0.0,0.0,0.0,0.0,0.0,0.0,0.0,0.0,0.0,0.0,0.0,-2.0334,-2.2172,-2.3867,-2.4292,-2.3306,-2.1778,-1.9747,0.0,0.0,0.0,0.0,0.0,0.0,0.0,0.0,0.0,0.0,0.0,0.0,0.0,0.0,0.0,0.0,0.0,0.0,0.0,0.0,0.0,0.0,0.0,0.0,0.0,0.0,0.0,0.0,0.0,0.0,0.0,0.0,0.0,0.0,0.0,0.0,0.0,0.0,0.0,0.0,0.0,0.0,0.0,0.0,0.0,0.0,0.0,0.0,0.0,0.0,0.0,0.0,0.0,0.0,0.0,0.0,0.0,0.0,0.0,0.0,0.0,0.0,0.0,0.0,0.0,0.0,0.0,0.0,0.0,0.0,0.0,0.0,0.0,0.0,0.0,0.0,0.0,0.0,0.0,0.0,0.0,0.0,0.0,0.0,0.0,0.0,0.0,0.0,0.0,0.0,0.0,0.0,0.0,0.0,0.0,0.0,0.0,0.0,0.0,0.0,0.0,0.0,0.0,0.0,0.0,0.0,0.0,0.0,-2.2133,-2.3035,-2.4641,-2.5511,-2.5453,-2.319,-2.0779,0.0,0.0,0.0,0.0,0.0,0.0,0.0,0.0,0.0,0.0,0.0,0.0,0.0,0.0,0.0,0.0,0.0,0.0,0.0,0.0,0.0,0.0,0.0,0.0,0.0,0.0,0.0,0.0,0.0,0.0,0.0,0.0,0.0,0.0,0.0,0.0,0.0,0.0,0.0,0.0,0.0,0.0,0.0,0.0,0.0,0.0,0.0,0.0,0.0,0.0,0.0,0.0,0.0,0.0,0.0,0.0,0.0,0.0,0.0,0.0,0.0,0.0,0.0,0.0,0.0,0.0,0.0,0.0,0.0,0.0,0.0,0.0,0.0,0.0,0.0,0.0,0.0,0.0,0.0,0.0,0.0,0.0,0.0,0.0,0.0,0.0,0.0,0.0,0.0,0.0,0.0,0.0,0.0,0.0,0.0,0.0,0.0,0.0,0.0,0.0,0.0,0.0,0.0,0.0,0.0,0.0,0.0,0.0,-2.2423,-2.3886,-2.4969,-2.5511,-2.5492,-2.4312,-2.2803,0.0,0.0,0.0,0.0,0.0,0.0,0.0,0.0,0.0,0.0,0.0,0.0,0.0,0.0,0.0,0.0,0.0,0.0,0.0,0.0,0.0,0.0,0.0,0.0,0.0,0.0,0.0,0.0,0.0,0.0,0.0,0.0,0.0,0.0,0.0,0.0,0.0,0.0,0.0,0.0,0.0,0.0,0.0,0.0,0.0,0.0,0.0,0.0,-1.2239,0.0,0.0,0.0,0.0,0.0,0.0,0.0,0.0,0.0,0.0,0.0,0.0,0.0,0.0,0.0,0.0,0.0,0.0,0.0,0.0,0.0,0.0,0.0,0.0,0.0,0.0,0.0,0.0,0.0,0.0,0.0,0.0,0.0,0.0,0.0,0.0,0.0,0.0,0.0,0.0,0.0,0.0,0.0,0.0,0.0,0.0,0.0,0.0,0.0,0.0,0.0,0.0,0.0,0.0,0.0,0.0,0.0,0.0,0.0,-2.31,-2.4757,-2.5627,-2.6052,-2.6033,-2.524,-2.3821,0.0,0.0,0.0,0.0,0.0,0.0,0.0,0.0,0.0,0.0,0.0,0.0,0.0,0.0,0.0,0.0,0.0,0.0,0.0,0.0,0.0,0.0,0.0,0.0,0.0,0.0,0.0,0.0,0.0,0.0,0.0,0.0,0.0,0.0,0.0,0.0,0.0,0.0,0.0,0.0,0.0,0.0,0.0,0.0,0.0,0.0,0.0,0.0,0.0,0.0,0.0,0.0,0.0,0.0,0.0,0.0,0.0,0.0,0.0,0.0,0.0,0.0,0.0,0.0,0.0,0.0,0.0,0.0,0.0,0.0,0.0,0.0,0.0,0.0,0.0,0.0,0.0,0.0,0.0,0.0,0.0,0.0,0.0,0.0,0.0,0.0,0.0,0.0,0.0,0.0,0.0,0.0,0.0,0.0,0.0,0.0,0.0,0.0,0.0,0.0,0.0,0.0,0.0,0.0,0.0,0.0,0.0,-2.1681,-2.379,-2.5627,-2.6354,-2.6702,-2.6683,-2.5801,-2.4169,-2.1751,0.0,0.0,0.0,0.0,0.0,0.0,0.0,0.0,0.0,0.0,0.0,0.0,0.0,0.0,0.0,0.0,0.0,0.0,0.0,0.0,0.0,0.0,0.0,0.0,0.0,0.0,0.0,0.0,0.0,0.0,0.0,0.0,0.0,0.0,0.0,0.0,0.0,0.0,-1.1953,-1.3947,0.0,0.0,0.0,0.0,0.0,0.0,0.0,0.0,-1.3779,0.0,0.0,0.0,0.0,0.0,0.0,0.0,0.0,0.0,0.0,0.0,0.0,0.0,0.0,0.0,0.0,0.0,0.0,0.0,0.0,0.0,0.0,0.0,0.0,0.0,0.0,0.0,0.0,0.0,0.0,0.0,0.0,0.0,0.0,0.0,0.0,0.0,0.0,0.0,0.0,0.0,0.0,0.0,0.0,0.0,0.0,0.0,0.0,0.0,0.0,0.0,0.0,0.0,0.0,0.0,0.0,-2.0147,-2.1991,-2.406,-2.6431,-2.6625,-2.6702,-2.6663,-2.5221,-2.3565,-2.1772,0.0,0.0,0.0,0.0,0.0,0.0,0.0,0.0,0.0,0.0,0.0,0.0,0.0,0.0,0.0,0.0,0.0,0.0,0.0,0.0,0.0,0.0,0.0,0.0,0.0,0.0,0.0,0.0,0.0,0.0,0.0,0.0,0.0,0.0,0.0,0.0,0.0,0.0,0.0,-1.5028,-1.5757,0.0,0.0,0.0,0.0,0.0,0.0,0.0,0.0,-1.4839,0.0,0.0,0.0,0.0,0.0,0.0,0.0,0.0,0.0,0.0,0.0,0.0,0.0,0.0,0.0,0.0,0.0,0.0,0.0,0.0,0.0,0.0,0.0,0.0,0.0,0.0,0.0,0.0,0.0,0.0,0.0,0.0,0.0,0.0,0.0,0.0,0.0,0.0,0.0,0.0,0.0,0.0,0.0,0.0,0.0,0.0,0.0,0.0,0.0,0.0,0.0,0.0,0.0,0.0,0.0,-2.0302,-2.2049,-2.435,-2.7252,-2.7368,-2.7359,-2.7331,-2.5735,-2.3874,0.0,0.0,0.0,0.0,0.0,0.0,0.0,0.0,0.0,0.0,0.0,0.0,0.0,0.0,0.0,0.0,0.0,0.0,0.0,0.0,0.0,0.0,0.0,0.0,0.0,0.0,0.0,0.0,0.0,0.0,0.0,0.0,0.0,0.0,0.0,0.0,0.0,0.0,0.0,0.0,-1.6416,-1.7404,-1.774,0.0,0.0,0.0,0.0,0.0,0.0,-1.7747,-1.693,0.0,0.0,0.0,0.0,0.0,0.0,0.0,0.0,0.0,0.0,0.0,0.0,0.0,0.0,0.0,0.0,0.0,0.0,0.0,0.0,0.0,0.0,0.0,0.0,0.0,0.0,0.0,0.0,0.0,0.0,0.0,0.0,0.0,0.0,0.0,0.0,0.0,0.0,0.0,0.0,0.0,0.0,0.0,0.0,0.0,0.0,0.0,0.0,0.0,0.0,0.0,0.0,0.0,0.0,0.0,-2.0341,-2.2223,-2.4718,-2.784,-2.818,-2.818,-2.7989,-2.6381,-2.4222,0.0,0.0,0.0,0.0,0.0,0.0,0.0,0.0,0.0,0.0,0.0,0.0,0.0,0.0,0.0,0.0,0.0,0.0,0.0,0.0,0.0,0.0,0.0,0.0,0.0,0.0,0.0,0.0,0.0,0.0,0.0,0.0,0.0,0.0,0.0,0.0,0.0,0.0,0.0,0.0,0.0,-1.9155,-1.8648,-1.9104,0.0,0.0,0.0,0.0,-1.9708,-1.9468,0.0,0.0,0.0,0.0,0.0,0.0,0.0,0.0,0.0,0.0,0.0,0.0,0.0,0.0,0.0,0.0,0.0,0.0,0.0,0.0,0.0,0.0,0.0,0.0,0.0,0.0,0.0,0.0,0.0,0.0,0.0,0.0,0.0,0.0,0.0,0.0,0.0,0.0,0.0,0.0,0.0,0.0,0.0,0.0,0.0,0.0,0.0,0.0,0.0,0.0,0.0,0.0,0.0,0.0,0.0,0.0,-2.0341,-2.2823,-2.5337,-2.7879,-2.875,-2.878,-2.8006,-2.6378,-2.3946,0.0,0.0,0.0,0.0,0.0,0.0,0.0,0.0,0.0,0.0,0.0,0.0,0.0,0.0,0.0,0.0,0.0,0.0,0.0,0.0,0.0,0.0,0.0,0.0,0.0,0.0,0.0,0.0,0.0,0.0,0.0,0.0,0.0,0.0,0.0,0.0,0.0,0.0,0.0,0.0,0.0,-2.0476,-2.1074,-2.1178,-2.1438,0.0,0.0,-2.1462,-2.2162,-2.1089,0.0,0.0,0.0,0.0,0.0,0.0,0.0,0.0,0.0,0.0,0.0,0.0,0.0,0.0,0.0,0.0,0.0,0.0,0.0,0.0,0.0,0.0,0.0,0.0,0.0,0.0,0.0,0.0,0.0,0.0,0.0,0.0,0.0,0.0,0.0,0.0,0.0,0.0,0.0,0.0,0.0,0.0,0.0,0.0,0.0,0.0,0.0,0.0,0.0,0.0,0.0,0.0,0.0,0.0,0.0,-1.749,-2.0379,-2.3383,-2.5936,-2.7937,-2.8838,-2.8904,-2.8004,-2.6366,-2.3895,0.0,0.0,0.0,0.0,0.0,0.0,0.0,0.0,0.0,0.0,0.0,0.0,0.0,0.0,0.0,0.0,0.0,0.0,0.0,0.0,0.0,0.0,0.0,0.0,0.0,0.0,0.0,0.0,0.0,0.0,0.0,0.0,0.0,0.0,0.0,0.0,0.0,0.0,0.0,0.0,0.0,0.0,-2.2221,-2.2273,0.0,0.0,0.0,-2.2863,-2.2719,0.0,0.0,0.0,0.0,0.0,0.0,0.0,0.0,0.0,0.0,0.0,0.0,0.0,0.0,0.0,0.0,0.0,0.0,0.0,0.0,0.0,0.0,0.0,0.0,0.0,0.0,0.0,0.0,0.0,0.0,0.0,0.0,0.0,0.0,0.0,0.0,0.0,0.0,0.0,0.0,0.0,0.0,0.0,0.0,0.0,0.0,0.0,0.0,0.0,0.0,0.0,0.0,0.0,0.0,0.0,0.0,0.0,-2.0714,-2.408,-2.6633,-2.8285,-2.9166,-2.9098,-2.802,-2.6587,0.0,0.0,0.0,0.0,0.0,0.0,0.0,0.0,0.0,0.0,0.0,0.0,0.0,0.0,0.0,0.0,0.0,0.0,0.0,0.0,0.0,0.0,0.0,0.0,0.0,0.0,0.0,-1.0188,0.0,0.0,0.0,0.0,0.0,0.0,0.0,0.0,0.0,0.0,0.0,0.0,0.0,0.0,-2.23,-2.3118,-2.3361,-2.3454,0.0,0.0,-2.4111,-2.3467,-2.3783,-2.3443,0.0,0.0,0.0,0.0,0.0,0.0,0.0,0.0,0.0,0.0,0.0,0.0,0.0,0.0,0.0,0.0,0.0,0.0,0.0,0.0,0.0,0.0,0.0,0.0,0.0,0.0,0.0,0.0,0.0,0.0,0.0,0.0,0.0,0.0,0.0,0.0,0.0,0.0,0.0,0.0,0.0,0.0,0.0,0.0,0.0,0.0,0.0,0.0,0.0,0.0,0.0,0.0,0.0,0.0,0.0,-2.1591,-2.4911,-2.7464,-2.9147,-3.0056,-2.9698,-2.8059,-2.7156,-2.5098,0.0,0.0,0.0,0.0,0.0,0.0,0.0,0.0,0.0,0.0,0.0,0.0,0.0,0.0,0.0,0.0,0.0,0.0,0.0,0.0,0.0,0.0,0.0,0.0,0.0,0.0,0.0,0.0,0.0,0.0,0.0,0.0,0.0,0.0,0.0,0.0,0.0,0.0,0.0,0.0,0.0,-2.3132,-2.4002,-2.4759,-2.5234,0.0,0.0,-2.5216,-2.5216,-2.4578,-2.4028,-2.3857,0.0,0.0,0.0,0.0,0.0,0.0,0.0,0.0,0.0,0.0,0.0,0.0,0.0,0.0,0.0,0.0,0.0,0.0,0.0,0.0,0.0,0.0,0.0,0.0,0.0,0.0,0.0,0.0,0.0,0.0,0.0,0.0,0.0,0.0,0.0,0.0,0.0,0.0,0.0,0.0,0.0,0.0,0.0,0.0,0.0,0.0,0.0,0.0,0.0,0.0,0.0,0.0,0.0,-1.9554,-2.2416,-2.5782,-2.8103,-2.9263,-3.0152,-3.0034,-2.8885,-2.7523,-2.5473,0.0,0.0,0.0,0.0,0.0,0.0,0.0,0.0,0.0,0.0,0.0,0.0,0.0,0.0,0.0,0.0,0.0,0.0,0.0,0.0,0.0,0.0,0.0,0.0,0.0,0.0,0.0,0.0,-1.1017,-1.1223,-1.1776,0.0,0.0,0.0,0.0,0.0,0.0,0.0,0.0,0.0,0.0,-2.4795,-2.5627,-2.6464,0.0,0.0,-2.6911,-2.6709,-2.6208,-2.5888,-2.5327,-2.4259,-2.3287,0.0,0.0,0.0,0.0,0.0,0.0,0.0,0.0,0.0,0.0,0.0,0.0,0.0,0.0,0.0,0.0,0.0,0.0,0.0,0.0,0.0,0.0,0.0,0.0,0.0,0.0,0.0,0.0,0.0,0.0,0.0,0.0,0.0,0.0,0.0,0.0,0.0,0.0,0.0,0.0,0.0,0.0,0.0,0.0,0.0,0.0,0.0,0.0,0.0,0.0,0.0,0.0,-2.0469,-2.3267,-2.6428,-2.8565,-2.9687,-3.0313,-3.0242,-2.9407,-2.7984,-2.6149,0.0,0.0,0.0,0.0,0.0,0.0,0.0,0.0,0.0,0.0,0.0,0.0,0.0,0.0,0.0,0.0,0.0,0.0,0.0,0.0,0.0,0.0,0.0,0.0,0.0,0.0,0.0,0.0,-1.1904,-1.2124,-1.273,0.0,0.0,0.0,0.0,0.0,0.0,0.0,0.0,0.0,0.0,-2.5878,-2.6934,-2.7593,-2.799,-2.7942,-2.7933,-2.7711,-2.7113,-2.7054,-2.6666,-2.547,0.0,0.0,0.0,0.0,0.0,0.0,0.0,0.0,0.0,0.0,0.0,0.0,0.0,0.0,0.0,0.0,0.0,0.0,0.0,0.0,0.0,0.0,0.0,0.0,0.0,0.0,0.0,-1.3883,0.0,0.0,-1.1643,0.0,0.0,0.0,0.0,0.0,0.0,0.0,0.0,0.0,0.0,0.0,0.0,0.0,0.0,0.0,0.0,0.0,0.0,0.0,0.0,0.0,0.0,-2.0836,-2.4157,-2.6812,-2.8911,-3.0488,-3.0637,-3.03,-2.9447,-2.8598,-2.7342,-2.5526,0.0,0.0,0.0,0.0,0.0,0.0,0.0,0.0,0.0,0.0,0.0,0.0,0.0,0.0,0.0,0.0,0.0,0.0,0.0,0.0,0.0,0.0,0.0,0.0,0.0,0.0,-1.2709,-1.2771,-1.281,0.0,0.0,0.0,0.0,0.0,0.0,0.0,0.0,0.0,0.0,-2.5472,-2.613,-2.7744,-2.8008,-2.8076,-2.8045,-2.8046,-2.8018,-2.7987,-2.7976,-2.7967,0.0,0.0,0.0,0.0,0.0,0.0,0.0,0.0,0.0,0.0,0.0,0.0,0.0,0.0,0.0,0.0,0.0,0.0,0.0,0.0,0.0,0.0,0.0,0.0,0.0,0.0,0.0,-1.6333,-1.6498,0.0,0.0,0.0,0.0,0.0,0.0,0.0,0.0,0.0,0.0,0.0,-2.4989,-2.4482,0.0,0.0,0.0,0.0,0.0,0.0,0.0,0.0,0.0,0.0,0.0,0.0,-2.3089,-2.589,-2.7915,-2.952,-3.0626,-3.071,-3.0549,-3.0275,-2.9499,-2.7725,-2.4895,0.0,0.0,0.0,0.0,0.0,0.0,0.0,0.0,0.0,0.0,0.0,0.0,0.0,0.0,0.0,0.0,0.0,0.0,0.0,0.0,0.0,0.0,0.0,0.0,0.0,-1.2097,0.0,0.0,0.0,0.0,0.0,0.0,0.0,0.0,0.0,0.0,0.0,-2.3837,-2.6061,-2.736,-2.8284,-2.8869,-2.9395,-2.9735,0.0,0.0,0.0,0.0,0.0,0.0,0.0,0.0,0.0,0.0,0.0,0.0,0.0,0.0,-2.5534,-2.3487,-2.3064,-2.3023,-2.3023,0.0,0.0,0.0,0.0,0.0,0.0,0.0,0.0,0.0,0.0,0.0,0.0,0.0,0.0,-1.9837,0.0,-1.9192,0.0,0.0,0.0,0.0,0.0,0.0,0.0,0.0,-2.6204,-2.7462,-2.8479,-2.7967,-2.7987,0.0,-2.7094,-2.4822,0.0,0.0,0.0,0.0,0.0,0.0,0.0,0.0,-2.4691,-2.7198,-2.8662,-2.9809,-3.0651,-3.073,-3.0734,-3.0711,-2.9959,-2.8203,-2.541,-2.3419,-2.1567,0.0,0.0,0.0,0.0,0.0,0.0,0.0,0.0,0.0,0.0,0.0,0.0,0.0,0.0,0.0,0.0,0.0,0.0,0.0,0.0,0.0,0.0,0.0,-1.3761,0.0,0.0,0.0,0.0,0.0,0.0,0.0,0.0,0.0,-2.2649,-2.4127,-2.5832,-2.7485,-2.8683,-2.9511,-2.9819,0.0,0.0,0.0,0.0,0.0,0.0,0.0,-3.054,-2.9959,-3.0319,-3.0651,-3.0671,-3.1088,-3.1255,-3.0753,0.0,0.0,-2.6381,-2.5746,-2.5707,-2.5687,-2.5687,-2.5783,-2.6091,-2.6184,-2.6231,0.0,0.0,0.0,0.0,0.0,0.0,0.0,0.0,-2.3605,-2.374,0.0,-2.3585,0.0,0.0,0.0,0.0,0.0,-2.577,0.0,0.0,-3.0789,-3.2028,-3.2048,-3.1951,-3.197,-3.197,-3.1069,-3.0122,-2.904,-2.4397,0.0,0.0,0.0,0.0,0.0,0.0,-2.5602,-2.8152,-2.913,-2.9965,-3.0781,-3.087,-3.0886,-3.0843,-3.004,-2.8795,-2.7145,-2.617,-2.492,-2.3239,-2.0721,0.0,0.0,0.0,0.0,0.0,0.0,0.0,0.0,0.0,0.0,0.0,0.0,0.0,0.0,0.0,0.0,0.0,0.0,0.0,0.0,-1.5225,0.0,0.0,0.0,0.0,0.0,0.0,0.0,0.0,0.0,0.0,-2.4787,-2.6052,-2.7644,-2.931,0.0,0.0,0.0,0.0,-3.1953,-3.193,-3.2652,-3.3178,-3.3158,-3.3158,-3.3158,-3.3139,0.0,0.0,-3.3264,-3.3283,-3.3264,-3.3236,-3.3082,-3.1825,-2.7759,-2.7112,-2.7043,-2.6968,-2.7045,-2.7151,-2.7875,-2.8309,-2.8299,-3.1363,0.0,0.0,0.0,0.0,-2.7201,-2.7712,-2.7958,-2.8353,-2.8637,-2.8824,-2.7944,0.0,0.0,0.0,0.0,0.0,0.0,-3.0909,-3.1831,-3.3731,-3.4952,-3.5485,-3.4303,-3.4061,-3.4545,-3.3149,-3.2016,-3.1116,-2.9691,-2.7602,-2.4923,0.0,0.0,0.0,0.0,-2.8586,-2.9952,-3.1473,-3.2372,-3.2622,-3.2649,-3.2358,-3.1724,-3.0328,-2.9345,-2.8867,-2.7419,-2.6108,-2.4979,-2.2519,0.0,0.0,0.0,0.0,0.0,0.0,0.0,0.0,0.0,0.0,0.0,0.0,0.0,0.0,0.0,0.0,0.0,0.0,0.0,-1.4508,-1.7008,-1.8549,0.0,0.0,0.0,0.0,0.0,0.0,0.0,0.0,0.0,-2.9739,-2.9751,-3.033,0.0,0.0,-3.2327,-3.2522,-3.2764,-3.2888,-3.2889,-3.3121,0.0,-3.3208,-3.3239,-3.3266,-3.3281,-3.3786,-3.4377,-3.496,-3.5041,-3.485,-3.4259,-3.4104,-3.3483,-3.1918,-3.1374,-3.1319,-3.1327,-3.1305,-3.1371,-3.1615,-3.1693,-3.1673,-3.677,-3.3798,-3.1926,-3.0955,-3.071,-3.1584,-3.1933,-3.1972,-3.2497,-3.273,-3.2695,-3.2171,-3.1736,-3.1387,-3.0882,0.0,0.0,0.0,-3.4251,-3.4796,-3.6124,-3.7007,-3.7415,-3.6484,-3.6251,-3.6678,-3.5717,-3.4951,-3.4429,-3.3731,-3.2374,-3.0283,0.0,0.0,-2.8856,-2.9901,-3.0879,-3.1767,-3.2844,-3.3395,-3.3384,-3.3395,-3.298,-3.2106,-3.1129,-3.0448,-3.0097,-2.8431,-2.7274,-2.6731,-2.427,-2.1888,0.0,0.0,0.0,0.0,0.0,0.0,0.0,0.0,0.0,0.0,0.0,-1.332,0.0,0.0,0.0,0.0,-1.4474,-1.5694,-1.775,-1.9681,0.0,0.0,0.0,0.0,0.0,0.0,0.0,-2.9491,-3.0879,-3.2128,-3.3454,-3.3496,-3.339,-3.3406,-3.3395,-3.3379,-3.3353,0.0,-3.3862,-3.3857,-3.4127,-3.4445,-3.4731,-3.4814,-3.495,-3.5281,-3.5728,-3.6234,-3.672,-3.6841,-3.6651,-3.6184,-3.6056,-3.5889,-3.5424,-3.5305,-3.4758,-3.3522,-3.3257,-3.3245,-3.3245,-3.3232,-3.3232,-4.1102,-4.083,-3.7722,-3.5877,-3.51,-3.5877,-3.6207,-3.6207,-3.6207,-3.6207,-3.6179,-3.6129,-3.5624,-3.4808,-3.4808,0.0,-3.4866,-3.6537,-3.7305,-3.7346,-3.8141,-3.851,-3.851,-3.8433,-3.8413,-3.8413,-3.8336,-3.8307,-3.8161,-3.6678,-3.595,-3.5918,-3.2815,-3.153,-3.2065,-3.2163,-3.2641,-3.3487,-3.357,-3.3614,-3.3607,-3.3535,-3.3085,-3.2222,-3.2143,-3.1714,-3.0894,-2.9292,-2.8372,-2.8225,-2.5885,-2.3757,-2.2039,0.0,0.0,0.0,0.0,0.0,0.0,0.0,0.0,0.0,0.0,0.0,0.0,0.0,0.0,0.0,-1.7401,0.0,-2.1796,-2.2929,0.0,0.0,0.0,-2.6777,-2.8437,-2.9355,-3.0566,-3.2206,0.0,0.0,-3.6091,-3.6891,-3.6511,-3.4121,-3.3808,-3.3806,-3.3799,-3.4576,-3.4995,-3.5116,-3.5656,-3.6381,-3.7005,-3.7144,-3.7365,-3.7975,-3.8396,-3.8279,-3.8291,-3.8303,-3.8362,-3.824,-3.8369,-3.8323,-3.8364,-3.8195,-3.7501,-3.4413,-3.3764,-3.3667,-3.3784,-3.3731,-3.3685,-4.2889,-4.2811,-4.2015,-4.0771,-3.9392,-3.9587,-3.9684,-3.9684,-3.9703,-3.9703,-3.9664,-3.9062,-3.8285,-3.7489,-3.7469,-3.7469,-3.7508,-3.8596,-3.9072,-3.9131,-3.9908,-4.0276,-4.0238,-3.9655,-3.9364,-3.9325,-3.8684,-3.8363,-3.8372,-3.7964,-3.7794,-3.7805,-3.7024,-3.5403,-3.3101,-3.364,-3.413,-3.439,-3.5044,-3.5386,-3.5351,-3.472,-3.3968,-3.3109,-3.2446,-3.1723,-3.0903,-2.9869,-2.8971,-2.8303,-2.6449,-2.4614,-2.2878,-2.1022,0.0,0.0,0.0,0.0,0.0,0.0,0.0,0.0,0.0,-1.8066,-1.8085,0.0,-2.0019,0.0,-2.0898,-2.2401,-2.3669,-2.5759,0.0,0.0,-2.8737,-3.0066,-3.1081,-3.1958,-3.3168,-3.4869,-3.6018,-3.7009,-3.7799,-3.8092,-3.7995,-3.737,-3.7287,-3.7276,-3.73,-3.744,-3.7597,-3.7556,-3.7678,-3.7964,-3.812,-3.819,-3.8279,-3.8455,-3.8494,-3.8474,-3.8488,-3.8429,-3.8396,-3.839,-3.8383,-3.8422,-3.852,-3.8481,-3.8293,-3.7395,-3.6737,-3.6284,-3.6264,-3.5788,-3.5364,-4.4617,-4.4617,-4.4617,-4.4054,-4.3102,-4.2384,-4.2073,-4.2073,-4.2073,-4.2053,-4.2034,-4.1568,-4.1102,-4.0694,-4.0674,-4.0674,-4.0713,-4.1179,-4.1179,-4.0849,-4.1276,-4.1257,-4.0888,-4.0441,-4.0256,-4.0265,-3.9779,-3.9563,-3.9529,-3.9171,-3.9011,-3.9072,-3.8689,-3.7539,-3.5758,-3.6114,-3.6196,-3.5855,-3.5937,-3.6011,-3.5987,-3.5528,-3.4683,-3.3456,-3.2929,-3.1934,-3.0392,-2.9474,-2.8615,-2.7735,-2.6429,-2.5082,-2.3755,-2.2428,-2.1139,0.0,0.0,0.0,0.0,0.0,0.0,0.0,0.0,0.0,0.0,0.0,-2.3667,-2.3994,-2.4873,-2.6082,-2.7676,-2.9123,-3.0292,-3.1077,-3.2014,-3.3071,-3.4222,-3.4788,-3.5627,-3.6957,-3.7874,-3.8573,-3.9017,-3.9427,-3.9657,-3.9653,-3.9642,-3.9376,-3.8639,-3.8521,-3.8509,-3.8506,-3.8515,-3.8669,-3.8993,-3.9406,-3.9661,-3.9663,-3.9658,-3.9647,-3.9649,-3.9637,-3.9611,-3.9598,-3.9617,-3.9624,-3.9655,-3.9661,-3.9666,-3.9541,-3.8946,-3.8263,-3.7849,-3.7444,-3.7117,-4.5977,-4.5977,-4.5977,-4.5977,-4.588,-4.4443,-4.3821,-4.3821,-4.3821,-4.3763,-4.3666,-4.3666,-4.3607,-4.3491,-4.3491,-4.3491,-4.3491,-4.3491,-4.3083,-4.2374,-4.2364,-4.1975,-4.1256,-4.1256,-4.1265,-4.133,-4.1232,-4.1171,-4.1149,-4.0303,-3.9916,-3.9939,-3.9204,-3.885,-3.8903,-3.8864,-3.8377,-3.748,-3.6608,-3.6166,-3.6166,-3.6049,-3.5232,-3.3671,-3.3456,-3.2324,-3.0023,-2.8967,-2.8127,-2.7364,-2.6507,-2.5687,-2.4924,-2.4087,-2.3287,0.0,-2.1745,0.0,0.0,0.0,0.0,0.0,0.0,0.0,0.0,-2.5351,-2.7047,-2.8652,-2.8892,-2.9926,-3.2221,-3.2611,-3.3349,-3.4811,-3.5123,-3.5767,-3.7171,-3.7464,-3.7815,-3.8575,-3.9438,-3.9984,-3.9979,-4.0643,-4.1091,-4.0989,-4.095,-4.0462,-3.9204,-3.8934,-3.8984,-3.8826,-3.8834,-3.9261,-3.9863,-4.0565,-4.1008,-4.1046,-4.0972,-4.1111,-4.1006,-4.1019,-4.1058,-4.1039,-4.0972,-4.1022,-4.11,-4.1067,-4.1052,-4.0959,-4.0364,-3.9646,-3.8877,-3.8487,-3.851,-4.5977,-4.5977,-4.5977,-4.5977,-4.5958,-4.5647,-4.553,-4.553,-4.553,-4.5161,-4.4559,-4.4559,-4.4171,-4.353,-4.3491,-4.3491,-4.3491,-4.3491,-4.3423,-4.3248,-4.3311,-4.3249,-4.3094,-4.3089,-4.3104,-4.3065,-4.2388,-4.2077,-4.2124,-4.126,-4.0852,-4.0848,-4.0691,-4.0619,-4.0625,0.0,0.0,0.0,-3.7499,-3.7048,-3.7028,-3.6362,-3.5506,-3.4471,-3.3749,0.0,-3.166,-3.0157,-2.9279,-2.9103,-2.8283,0.0,0.0,0.0,0.0,0.0,0.0,0.0,0.0,0.0,0.0,0.0,-2.9198,-2.9533,-2.7569,-2.885,-3.0271,-3.1285,-3.2026,-3.2923,-3.4109,-3.5455,-3.6352,-3.6684,-3.7366,-3.7912,-3.8263,-3.8868,-3.9399,-3.9535,-4.0316,-4.0857,-4.0866,-4.1022,-4.1134,-4.1201,-4.1117,-4.098,-4.0688,-4.0565,-4.0571,-4.0613,-4.0486,-4.0617,-4.0823,-4.0988,-4.1112,-4.1108,-4.1116,-4.1104,-4.1115,-4.1106,-4.1106,-4.1106,-4.1111,-4.1111,-4.1111,-4.1111,-4.11,-4.1109,-4.0976,-4.0586,-3.9724,-3.9029,-3.8567,-4.5977,-4.5977,-4.5977,-4.5977,0.0,-4.5977,-4.5977,-4.5977,-4.5977,-4.5763,-4.5394,-4.5394,-4.5142,-4.4734,-4.4764,-4.4793,-4.4793,-4.4792,-4.4567,-4.4199,-4.4222,-4.4012,-4.3617,-4.3604,-4.3611,-4.3591,-4.315,-4.2746,-4.2385,-4.1952,-4.1523,-4.1112,-4.1113,-4.1111,-4.1107,-4.1116,-4.0483,-3.9214,-3.8375,-3.7731,-3.7301,-3.6872,-3.6033,-3.4744,-3.4276,0.0,0.0,0.0,0.0,0.0,0.0,0.0,0.0,0.0,0.0,-2.8235,-2.8232,-2.8229,-2.8265,-2.9435,-3.0154,-3.017,-3.2506,-3.3076,-3.0977,-3.1987,-3.3076,-3.391,-3.4768,-3.5622,-3.6489,-3.7347,-3.8015,-3.8444,-3.8873,-3.9296,-3.9744,-4.0159,-4.0452,-4.053,-4.1173,-4.1694,-4.1688,-4.2117,-4.2305,-4.2338,-4.2318,-4.2299,-4.2241,-4.1598,-4.111,-4.1103,-4.1103,-4.1114,-4.1115,-4.1117,-4.1116,-4.1112,-4.1112,-4.1103,-4.1101,-4.1113,-4.1113,-4.1113,-4.1109,-4.1105,-4.1105,-4.1109,-4.1117,-4.1101,-4.1101,-4.0984,-4.0516,-4.0109,-3.9819,-4.6026,-4.6026,-4.6017,-4.6017,-4.6017,-4.6017,-4.6017,-4.6017,0.0,0.0,0.0,-4.6017,-4.6027,-4.6027,-4.6085,-4.6114,-4.6114,-4.6119,-4.5749,-4.514,-4.5149,-4.4754,-4.4083,-4.407,-4.407,-4.407,-4.3927,-4.3513,-4.2868,-4.2557,-4.2031,-4.1366,-4.1177,-4.1108,-4.1108,-4.1108,-4.0737,-4.0034,-3.9234,-3.8473,-3.775,-3.7458,-3.6618,-3.5174,-3.4861,-3.369,-3.1582,-3.1346,-3.0623,-2.9296,-2.921,-2.9201,-2.9211,-2.9819,-3.0189,-3.0228,-3.0852,-3.1281,-3.1278,-3.2062,-3.2686,-3.2955,-3.4915,-3.548,-3.3953,-3.4788,-3.5661,-3.6294,-3.7152,-3.7965,-3.8675,-3.8889,-3.924,-3.9961,-4.0039,-4.037,-4.1149,-4.1325,-4.1383,-4.1559,-4.2143,-4.2533,-4.2552,-4.3098,-4.3617,-4.3585,-4.3448,-4.3604,-4.3448,-4.2455,-4.1714,-4.1714,-4.1773,-4.1617,-4.1584,-4.1632,-4.1542,-4.1702,-4.1636,-4.1562,-4.155,-4.1565,-4.1565,-4.1713,-4.1569,-4.1624,-4.1585,-4.1667,-4.1557,-4.1557,-4.142,-4.1325,-4.1306,-4.1192,-4.1016,-4.6076,-4.6076,-4.6075,-4.6084,-4.6084,-4.6084,-4.6074,-4.6091,-4.6095,-4.6095,-4.6076,-4.6083,-4.608,-4.608,-4.6135,-4.6174,-4.6169,-4.6181,-4.6111,-4.602,-4.6062,-4.6026,-4.5911,-4.5914,-4.5916,-4.5876,-4.5167,-4.4739,-4.4473,-4.3118,-4.2327,-4.2129,-4.1462,-4.1108,-4.1108,-4.1108,-4.1049,-4.0893,-4.0073,-3.9566,-3.9429,-3.8043,-3.7184,-3.6891,-3.5486,-3.4569,-3.4159,-3.3409,-3.2937,-3.27,-3.2674,-3.2686,-3.2678,-3.276,-3.2861,-3.2842,-3.2978,-3.3033,-3.3063,-3.3843,-3.4969,-3.6323,-3.683,-3.6596,-3.5714,-3.703,-3.7999,-3.8149,-3.8895,-3.9474,-3.9649,-4.0253,-4.0701,-4.0896,-4.0916,-4.1247,-4.2026,-4.2117,-4.239,-4.3039,-4.3344,-4.3422,-4.3448,-4.3585,-4.3753,-4.3682,-4.389,-4.3695,-4.3714,-4.341,-4.3254,-4.3234,-4.3254,-4.3247,-4.3078,-4.3227,-4.31,-4.3259,-4.3173,-4.3115,-4.3104,-4.3123,-4.3123,-4.3264,-4.3144,-4.318,-4.3196,-4.3333,-4.318,-4.3105,-4.2656,-4.2226,-4.2197,-4.1693,-4.1183,-4.6122,-4.6122,-4.6141,-4.6158,-4.6146,-4.6149,-4.6149,-4.6158,-4.6164,-4.6142,-4.6162,-4.6149,-4.6157,-4.6162,-4.6187,-4.6206,-4.6195,-4.623,-4.6257,-4.6261,-4.6303,-4.6289,-4.6305,-4.6301,-4.63,-4.6282,-4.5894,-4.5465,-4.4952,-4.4181,-4.3567,-4.3079,-4.224,-4.1576,-4.1127,-4.1104,-4.1101,-4.1081,-4.0711,-4.0281,-3.9809,-3.9045,-3.8436,-3.7948,-3.67,-3.5845,-3.5419,-3.4573,-3.389,-3.3431,-3.3392,-3.3395,-3.34,-3.3799,-3.4053,-3.4096,-3.493,-3.5456,-3.5466,-3.6264,-3.7083,-3.7837,-3.8344,-3.8441,-3.8063,-3.8733,-3.9201,-3.924,-4.0,-4.0526,-4.0506,-4.0877,-4.1286,-4.1714,-4.1753,-4.2104,-4.2825,-4.302,-4.3169,-4.3585,-4.4033,-4.4306,-4.4306,-4.4715,-4.4988,-4.5027,-4.5,-4.4986,-4.4939,-4.4947,-4.4642,-4.3812,-4.3598,-4.3598,-4.3643,-4.3604,-4.3604,-4.3607,-4.3626,-4.3665,-4.3679,-4.3718,-4.3727,-4.3711,-4.371,-4.3708,-4.3727,-4.3706,-4.3706,-4.3667,-4.3452,-4.3141,-4.3006,-4.2422,-4.1699,-4.6123,-4.6125,-4.6183,-4.6209,-4.6209,-4.6209,-4.6203,-4.6216,-4.6195,-4.6214,-4.6209,-4.6196,-4.6211,-4.6212,-4.6198,-4.62,-4.6202,-4.6249,-4.6269,-4.6289,-4.6287,-4.63,-4.6296,-4.6296,-4.63,-4.63,-4.63,-4.5948,-4.5343,-4.509,-4.4563,-4.372,-4.3017,-4.2373,-4.1686,-4.1484,-4.1402,-4.1382,-4.1207,-4.0773,-4.011,-3.9911,-3.9477,-3.8794,-3.7951,-3.7195,-3.6559,-3.5908,-3.5248,-3.4599,-3.4558,-3.4569,-3.4592,-3.5124,-3.548,-3.5597,-3.6727,-3.7487,-3.7545,-3.8129,-3.8597,-3.8792,-3.9415,-3.9883,-4.0078,-4.0097,-4.0097,-4.0156,-4.0682,-4.1149,-4.1325,-4.1383,-4.1695,-4.2468,-4.2591,-4.2961,-4.3721,-4.3877,-4.4014,-4.4189,-4.4773,-4.5202,-4.5319,-4.5787,-4.6072,-4.6064,-4.6185,-4.6149,-4.6122,-4.6149,-4.5543,-4.4674,-4.4182,-4.4286,-4.4189,-4.4267,-4.4293,-4.4189,-4.4234,-4.4364,-4.4387,-4.4319,-4.4294,-4.439,-4.4343,-4.4407,-4.4313,-4.4315,-4.4373,-4.4413,-4.4218,-4.3924,-4.3626,-4.3156,-4.2417,-4.6183,-4.6195,-4.6206,-4.6215,-4.62,-4.6198,-4.6204,-4.6209,-4.621,-4.621,-4.6209,-4.6211,-4.621,-4.6211,-4.6209,-4.6205,-4.6204,-4.6202,-4.6212,-4.6225,-4.6284,-4.6299,-4.6294,-4.6292,-4.63,-4.63,-4.63,-4.6241,-4.6066,-4.5382,-4.4579,-4.379,-4.3611,-4.3509,-4.3344,-4.2641,-4.2271,-4.2271,-4.1496,-4.1067,-4.094,-4.0199,-3.9754,-3.9681,-3.8833,-3.8346,-3.8233,-3.82,-3.8098,-3.8044,-3.7932,-3.7974,-3.7974,-3.8071,-3.811,-3.8071,-3.8285,-3.8383,-3.8402,-3.8441,-3.8889,-3.9571,-3.9766,-4.0156,-4.0838,-4.0974,-4.0994,-4.1013,-4.1071,-4.1435,-4.2078,-4.2195,-4.2546,-4.3344,-4.3481,-4.3819,-4.4579,-4.4773,-4.5066,-4.5884,-4.5903,-4.6079,-4.6001,-4.6123,-4.6166,-4.613,-4.6132,-4.6104,-4.6104,-4.6093,-4.6102,-4.5838,-4.5862,-4.5838,-4.5806,-4.5942,-4.5728,-4.5793,-4.5884,-4.5774,-4.5683,-4.5742,-4.5917,-4.5474,-4.5757,-4.5722,-4.5773,-4.5955,-4.5841,-4.5536,-4.5184,-4.4669,-4.3977,-4.366,-4.3248,-4.6228,-4.6207,-4.625,-4.6247,-4.62,-4.6208,-4.6207,-4.62,-4.6209,-4.621,-4.6197,-4.6214,-4.6199,-4.621,-4.621,-4.6206,-4.6206,-4.621,-4.6206,-4.6206,-4.6231,-4.6231,-4.6255,-4.626,-4.6245,-4.6249,-4.6238,-4.6234,-4.6186,-4.587,-4.5265,-4.4499,-4.4417,-4.4163,-4.3729,-4.3309,-4.3114,-4.3075,-4.2259,-4.1805,-4.1713,-4.0992,-4.0583,-4.0471,-3.9725,-3.9277,-3.9218,-3.8803,-3.8505,-3.8505,-3.8519,-3.8519,-3.8513,-3.8519,-3.8519,-3.8519,-3.8987,-3.9493,-4.0,-4.0039,-4.0195,-4.0565,-4.0533,-4.0688,-4.1039,-4.1493,-4.1816,-4.1816,-4.1804,-4.2155,-4.2926,-4.3062,-4.3413,-4.4129,-4.4343,-4.4701,-4.5572,-4.567,-4.5845,-4.6157,-4.6208,-4.6201,-4.6201,-4.6166,-4.6141,-4.6123,-4.6105,-4.6076,-4.6056,-4.6066,-4.6095,-4.6114,-4.6132,-4.6138,-4.6174,-4.6201,-4.6208,-4.6215,-4.6196,-4.6196,-4.6196,-4.6196,-4.6176,-4.6196,-4.6196,-4.6201,-4.6123,-4.6201,-4.6186,-4.612,-4.6078,-4.5562,-4.5231,-4.4757,-4.428,-4.6247,-4.6205,-4.6254,-4.6253,-4.6211,-4.6199,-4.6202,-4.621,-4.6201,-4.6196,-4.6203,-4.6196,-4.6216,-4.6203,-4.6216,-4.6203,-4.6203,-4.6209,-4.6195,-4.6195,-4.6201,-4.6201,-4.6201,-4.6206,-4.6206,-4.6206,-4.6201,-4.6201,-4.6206,-4.6206,-4.5874,-4.5343,-4.5245,-4.4967,-4.4421,-4.4136,-4.3955,-4.3877,-4.3104,-4.2546,-4.226,-4.1734,-4.1325,-4.1071,-4.0487,-4.0156,-4.013,-3.9526,-3.9195,-3.9208,-3.9214,-3.9221,-3.9214,-3.9214,-3.9221,-3.926,-3.9786,-4.0403,-4.1046,-4.1065,-4.1059,-4.1071,-4.1025,-4.1116,-4.1408,-4.1937,-4.2494,-4.3011,-4.298,-4.3311,-4.3797,-4.3925,-4.4284,-4.5029,-4.5204,-4.5504,-4.6045,-4.6181,-4.6142,-4.6181,-4.6166,-4.6177,-4.6169,-4.6141,-4.6095,-4.6066,-4.6075,-4.6046,-4.6005,-4.6016,-4.6056,-4.6075,-4.6085,-4.6085,-4.6149,-4.6158,-4.6185,-4.6193,-4.6181,-4.6208,-4.6196,-4.6196,-4.6196,-4.6196,-4.6209,-4.6196,-4.6209,-4.6195,-4.6195,-4.6195,-4.6176,-4.6137,-4.5975,-4.5565,-4.5325,-4.6211,-4.6216,-4.6211,-4.6211,-4.6206,-4.6211,-4.6206,-4.6195,-4.6209,-4.6216,-4.6203,-4.6203,-4.6196,-4.6196,-4.6203,-4.6203,-4.6203,-4.6203,-4.6203,-4.6203,-4.6196,-4.6196,-4.6203,-4.6215,-4.6209,-4.6209,-4.6209,-4.6215,-4.6209,-4.6201,-4.6181,-4.6125,-4.6066,-4.6079,-4.5852,-4.5189,-4.4832,-4.4761,-4.3975,-4.3176,-4.2468,-4.2299,-4.1909,-4.1305,-4.1071,-4.0994,-4.0994,-4.0994,-4.0935,-4.0955,-4.0877,-4.0896,-4.0935,-4.0916,-4.0857,-4.0916,-4.0968,-4.1,-4.0993,-4.1006,-4.1038,-4.1062,-4.1112,-4.1385,-4.2163,-4.2427,-4.31,-4.4462,-4.4521,-4.4646,-4.4714,-4.4742,-4.5062,-4.5791,-4.6005,-4.6044,-4.6091,-4.613,-4.6122,-4.6122,-4.6122,-4.6123,-4.6105,-4.6105,-4.6075,-4.6025,-4.5991,-4.598,-4.5929,-4.5917,-4.596,-4.5991,-4.6003,-4.6035,-4.6095,-4.6113,-4.6122,-4.613,-4.6166,-4.6201,-4.6208,-4.6196,-4.6196,-4.6196,-4.6203,-4.6203,-4.6203,-4.6203,-4.6203,-4.6203,-4.6183,-4.6183,-4.6203,-4.6203,-4.6001,-4.6708,-4.6209,-4.6203,-4.6196,-4.6196,-4.6196,-4.6216,-4.6209,-4.6209,-4.6203,-4.6196,-4.6196,-4.6196,-4.6196,-4.6196,-4.6196,-4.6196,-4.6196,-4.6196,-4.6196,-4.6203,-4.6203,-4.6203,-4.6209,-4.6209,-4.6203,-4.6209,-4.6209,-4.6209,-4.6196,-4.6216,-4.6209,-4.6209,-4.6203,-4.6137,-4.5884,-4.5728,-4.565,-4.4871,-4.4286,-4.3916,-4.3429,-4.2961,-4.2669,-4.1656,-4.111,-4.111,-4.111,-4.111,-4.111,-4.111,-4.111,-4.111,-4.1059,-4.1032,-4.1032,-4.1045,-4.103,-4.1011,-4.0984,-4.1256,-4.1774,-4.1796,-4.2138,-4.2955,-4.353,-4.4112,-4.4685,-4.5246,-4.5479,-4.5509,-4.5541,-4.5697,-4.594,-4.6066,-4.6105,-4.6105,-4.6114,-4.6113,-4.6113,-4.6104,-4.6076,-4.6046,-4.6025,-4.6014,-4.596,-4.5917,-4.5937,-4.5905,-4.5893,-4.5893,-4.5937,-4.5937,-4.5937,-4.5964,-4.6066,-4.6114,-4.6113,-4.613,-4.6154,-4.6142,-4.6189,-4.6189,-4.6196,-4.6196,-4.6196,-4.6215,-4.6208,-4.6208,-4.6201,-4.6193,-4.6174,-4.6193,-4.6181,-4.6181,-4.6989,-4.6274,-4.6203,-4.6196,-4.6196,-4.6196,-4.6196,-4.6196,-4.6196,-4.6196,-4.6196,-4.6196,-4.6196,-4.6196,-4.6196,-4.6196,-4.6196,-4.6196,-4.6196,-4.6196,-4.6196,-4.6196,-4.6196,-4.6196,-4.6196,-4.6196,-4.6196,-4.6196,-4.6196,-4.6196,-4.6196,-4.6196,-4.6196,-4.6196,-4.6196,-4.6196,-4.6196,-4.6079,-4.5611,-4.5202,-4.489,-4.4345,-4.3877,-4.3481,-4.2494,-4.1753,-4.15,-4.15,-4.1344,-4.1149,-4.1085,-4.1078,-4.1071,-4.1025,-4.0979,-4.0991,-4.0984,-4.0988,-4.1046,-4.1241,-4.1641,-4.2207,-4.248,-4.2957,-4.3802,-4.4381,-4.4777,-4.5115,-4.551,-4.5905,-4.5905,-4.5941,-4.5956,-4.5977,-4.6007,-4.6065,-4.6085,-4.6056,-4.6066,-4.6056,-4.6066,-4.6035,-4.5991,-4.596,-4.5949,-4.5893,-4.5893,-4.5893,-4.588,-4.5887,-4.5887,-4.5912,-4.5899,-4.5912,-4.5917,-4.5994,-4.6046,-4.6047,-4.6104,-4.6111,-4.6119,-4.6146,-4.6181,-4.6189,-4.6215,-4.6208,-4.6208,-4.6201,-4.6212,-4.6205,-4.6177,-4.613,-4.6138,-4.6127,-4.6119,-4.7014,-4.632,-4.6196,-4.6196,-4.6196,-4.6196,-4.6196,-4.6196,-4.6196,-4.6196,-4.6196,-4.6196,-4.6196,-4.6196,-4.6196,-4.6196,-4.6196,-4.6196,-4.6196,-4.6196,-4.6196,-4.6196,-4.6196,-4.6196,-4.6196,-4.6196,-4.6196,-4.6196,-4.6196,-4.6196,-4.6196,-4.6196,-4.6196,-4.6196,-4.6196,-4.6196,-4.6196,-4.6176,-4.6098,-4.5748,-4.5027,-4.4929,-4.4559,-4.3897,-4.3656,-4.3247,-4.2409,-4.2338,-4.2026,-4.1357,-4.1208,-4.1057,-4.1237,-4.1249,-4.1132,-4.121,-4.1104,-4.1077,-4.1196,-4.1809,-4.2228,-4.2577,-4.3022,-4.3788,-4.4552,-4.4761,-4.5072,-4.5634,-4.5828,-4.5893,-4.5887,-4.5893,-4.5891,-4.5908,-4.5975,-4.6014,-4.6005,-4.5997,-4.5986,-4.6003,-4.6003,-4.596,-4.5917,-4.5905,-4.5912,-4.5887,-4.5893,-4.5874,-4.5827,-4.5833,-4.5827,-4.5893,-4.5874,-4.5867,-4.588,-4.5917,-4.5929,-4.5972,-4.6046,-4.6085,-4.6085,-4.6114,-4.616,-4.6169,-4.6166,-4.6166,-4.6174,-4.6166,-4.6177,-4.6169,-4.6141,-4.6113,-4.6093,-4.6102,-4.6102,-4.7345,-4.7033,-4.6449,-4.6196,-4.6196,-4.6196,-4.6196,-4.6196,-4.6196,-4.6196,-4.6196,-4.6196,-4.6196,-4.6196,-4.6196,-4.6196,-4.6196,-4.6196,-4.6196,-4.6196,-4.6196,-4.6196,-4.6196,-4.6196,-4.6196,-4.6196,-4.6196,-4.6196,-4.6196,-4.6196,-4.6196,-4.6196,-4.6196,-4.6196,-4.6196,-4.6196,-4.6196,-4.6196,-4.6196,-4.604,-4.5806,-4.5787,-4.5631,-4.5416,-4.5397,-4.4981,-4.4129,-4.352,-4.3091,-4.2785,-4.2797,-4.2782,-4.2766,-4.2749,-4.2721,-4.2721,-4.2665,-4.2646,-4.2655,-4.2867,-4.3303,-4.3784,-4.4153,-4.4676,-4.5382,-4.5493,-4.5609,-4.5867,-4.5854,-4.5827,-4.5827,-4.5827,-4.5854,-4.5906,-4.5925,-4.5929,-4.5941,-4.5922,-4.5929,-4.5949,-4.5949,-4.5905,-4.5899,-4.5899,-4.5887,-4.5847,-4.5847,-4.5833,-4.5814,-4.58,-4.58,-4.5833,-4.5827,-4.5827,-4.5854,-4.5867,-4.5899,-4.5937,-4.5983,-4.6056,-4.6065,-4.6075,-4.6115,-4.6134,-4.6132,-4.6141,-4.6138,-4.6149,-4.616,-4.6143,-4.6085,-4.6085,-4.6085,-4.6075,-4.6066,-4.7793,-4.7404,-4.6546,-4.6196,-4.6196,-4.6196,-4.6196,-4.6196,-4.6196,-4.6196,-4.6196,-4.6196,-4.6196,-4.6196,-4.6196,-4.6196,-4.6196,-4.6196,-4.6196,-4.6196,-4.6196,-4.6196,-4.6196,-4.6196,-4.6196,-4.6196,-4.6196,-4.6196,-4.6196,-4.6196,-4.6196,-4.6196,-4.6196,-4.6196,-4.6196,-4.6196,-4.6196,-4.6196,-4.6196,-4.6196,-4.6196,-4.6196,-4.6196,-4.6196,-4.6208,-4.5928,-4.5367,-4.4822,-4.423,-4.3736,-4.3572,-4.3556,-4.352,-4.3462,-4.3452,-4.3461,-4.341,-4.3369,-4.3427,-4.3649,-4.4071,-4.4594,-4.4962,-4.5299,-4.5751,-4.5874,-4.588,-4.586,-4.5827,-4.58,-4.58,-4.58,-4.5819,-4.5858,-4.5874,-4.5893,-4.5905,-4.5898,-4.5905,-4.5893,-4.5912,-4.5899,-4.5874,-4.586,-4.5847,-4.5814,-4.58,-4.58,-4.58,-4.58,-4.58,-4.58,-4.5814,-4.5814,-4.5814,-4.5847,-4.586,-4.5899,-4.5949,-4.5994,-4.6016,-4.6046,-4.6056,-4.6105,-4.6123,-4.6132,-4.6122,-4.6123,-4.6124,-4.6085,-4.6056,-4.6037,-4.6027,-4.6017,-4.6017,-4.828,-4.7423,-4.6566,-4.6196,-4.6196,-4.6196,-4.6196,-4.6196,-4.6196,-4.6196,-4.6196,-4.6196,-4.6196,-4.6196,-4.6196,-4.6196,-4.6196,-4.6196,-4.6196,-4.6196,-4.6196,-4.6196,-4.6196,-4.6196,-4.6196,-4.6196,-4.6196,-4.6196,-4.6196,-4.6196,-4.6196,-4.6196,-4.6196,-4.6196,-4.6196,-4.6196,-4.6196,-4.6196,-4.6196,-4.6196,-4.6196,-4.6196,-4.6196,-4.6215,-4.6193,-4.6138,-4.6041,-4.587,-4.5239,-4.4003,-4.3908,-4.3889,-4.3654,-4.3555,-4.3718,-4.3784,-4.3586,-4.3683,-4.378,-4.4362,-4.4756,-4.4828,-4.5389,-4.588,-4.5794,-4.5814,-4.5833,-4.5814,-4.58,-4.58,-4.58,-4.58,-4.58,-4.5814,-4.5841,-4.5887,-4.5893,-4.5905,-4.588,-4.5906,-4.5893,-4.586,-4.5814,-4.5814,-4.5814,-4.58,-4.58,-4.58,-4.58,-4.58,-4.58,-4.58,-4.58,-4.58,-4.58,-4.5847,-4.586,-4.5887,-4.5925,-4.5953,-4.5975,-4.6005,-4.6016,-4.6066,-4.6095,-4.6085,-4.6095,-4.6076,-4.6085,-4.6066,-4.6037,-4.6007,-4.5977,-4.5977,-4.5986,-4.828,-4.7423,-4.6566,-4.6196,-4.6196,-4.6196,-4.6196,-4.6196,-4.6196,-4.6196,-4.6196,-4.6196,-4.6196,-4.6196,-4.6196,-4.6196,-4.6196,-4.6196,-4.6196,-4.6196,-4.6196,-4.6196,-4.6196,-4.6196,-4.6196,-4.6196,-4.6196,-4.6196,-4.6196,-4.6196,-4.6196,-4.6196,-4.6196,-4.6196,-4.6196,-4.6196,-4.6196,-4.6196,-4.6196,-4.6196,-4.6196,-4.6196,-4.6208,-4.6193,-4.6205,-4.6169,-4.6123,-4.6065,-4.5929,-4.5531,-4.5405,-4.5354,-4.5215,-4.5173,-4.5103,-4.5091,-4.5144,-4.5189,-4.5228,-4.5357,-4.546,-4.5485,-4.5673,-4.5794,-4.58,-4.58,-4.58,-4.58,-4.58,-4.58,-4.58,-4.58,-4.58,-4.58,-4.5814,-4.5827,-4.5841,-4.5827,-4.5827,-4.5827,-4.5847,-4.5814,-4.5814,-4.58,-4.58,-4.58,-4.58,-4.58,-4.58,-4.58,-4.58,-4.58,-4.58,-4.58,-4.5814,-4.5847,-4.5874,-4.5887,-4.5925,-4.596,-4.5972,-4.598,-4.5983,-4.6016,-4.6016,-4.6035,-4.6026,-4.6026,-4.6026,-4.6046,-4.6026,-4.5997,-4.5997,-4.5997,-4.5986,-4.7949,-4.7423,-4.6566,-4.6196,-4.6196,-4.6196,-4.6196,-4.6196,-4.6196,-4.6196,-4.6196,-4.6196,-4.6196,-4.6196,-4.6196,-4.6196,-4.6196,-4.6196,-4.6196,-4.6196,-4.6196,-4.6196,-4.6196,-4.6196,-4.6196,-4.6196,-4.6196,-4.6196,-4.6196,-4.6196,-4.6196,-4.6196,-4.6196,-4.6196,-4.6196,-4.6196,-4.6196,-4.6196,-4.6196,-4.6196,-4.6196,-4.6208,-4.6201,-4.6205,-4.6169,-4.6114,-4.6046,-4.6014,-4.6014,-4.6016,-4.5983,-4.5949,-4.5937,-4.5925,-4.5899,-4.5848,-4.586,-4.5822,-4.586,-4.5833,-4.58,-4.58,-4.58,-4.58,-4.58,-4.58,-4.58,-4.58,-4.58,-4.58,-4.58,-4.58,-4.58,-4.58,-4.58,-4.58,-4.58,-4.5814,-4.58,-4.58,-4.58,-4.58,-4.58,-4.58,-4.58,-4.58,-4.58,-4.58,-4.58,-4.58,-4.58,-4.58,-4.58,-4.58,-4.5833,-4.586,-4.5887,-4.5899,-4.5925,-4.596,-4.596,-4.5968,-4.5968,-4.5991,-4.596,-4.596,-4.5953,-4.5964,-4.5994,-4.5994,-4.5975,-4.5986,-4.5997,-4.5958,-4.5966,-4.7443,-4.7306,-4.6507,-4.6196,-4.6196,-4.6196,-4.6196,-4.6196,-4.6196,-4.6196,-4.6196,-4.6196,-4.6196,-4.6196,-4.6196,-4.6196,-4.6196,-4.6196,-4.6196,-4.6196,-4.6196,-4.6196,-4.6196,-4.6196,-4.6196,-4.6196,-4.6196,-4.6196,-4.6196,-4.6196,-4.6196,-4.6196,-4.6196,-4.6196,-4.6196,-4.6196,-4.6196,-4.6196,-4.6215,-4.6208,-4.6208,-4.6193,-4.6177,-4.6169,-4.6114,-4.6075,-4.6014,-4.5991,-4.5991,-4.598,-4.5937,-4.5912,-4.5906,-4.5906,-4.586,-4.5827,-4.5814,-4.5814,-4.58,-4.58,-4.58,-4.58,-4.58,-4.58,-4.58,-4.58,-4.58,-4.58,-4.58,-4.58,-4.58,-4.58,-4.58,-4.58,-4.58,-4.58,-4.58,-4.58,-4.58,-4.58,-4.58,-4.58,-4.58,-4.58,-4.58,-4.58,-4.58,-4.58,-4.58,-4.58,-4.58,-4.58,-4.58,-4.58,-4.5847,-4.586,-4.5887,-4.5932,-4.5968,-4.5972,-4.5983,-4.5991,-4.5987,-4.5976,-4.5956,-4.5925,-4.5912,-4.5925,-4.5949,-4.596,-4.5953,-4.5964,-4.5986,-4.5938,-4.5928,-4.7111,-4.6468,-4.6293,-4.6196,-4.6196,-4.6196,-4.6196,-4.6196,-4.6196,-4.6196,-4.6196,-4.6196,-4.6196,-4.6196,-4.6196,-4.6196,-4.6196,-4.6196,-4.6196,-4.6196,-4.6196,-4.6196,-4.6196,-4.6196,-4.6196,-4.6196,-4.6196,-4.6196,-4.6196,-4.6196,-4.6196,-4.6196,-4.6196,-4.6196,-4.6196,-4.6215,-4.6196,-4.6215,-4.6201,-4.6212,-4.6193,-4.6158,-4.6132,-4.6114,-4.6046,-4.6014,-4.5991,-4.5963,-4.5938,-4.5919,-4.5899,-4.5887,-4.5893,-4.586,-4.5814,-4.5814,-4.58,-4.58,-4.58,-4.58,-4.58,-4.58,-4.58,-4.58,-4.58,-4.58,-4.58,-4.58,-4.58,-4.58,-4.58,-4.58,-4.58,-4.58,-4.58,-4.58,-4.58,-4.58,-4.58,-4.58,-4.58,-4.58,-4.58,-4.58,-4.58,-4.58,-4.58,-4.58,-4.58,-4.58,-4.58,-4.58,-4.58,-4.58,-4.5827,-4.5854,-4.5912,-4.5937,-4.5972,-4.5983,-4.5994,-4.5972,-4.5956,-4.5932,-4.5899,-4.5887,-4.5874,-4.588,-4.5905,-4.5917,-4.5917,-4.5929,-4.5933,-4.5917,-4.5897,-4.6605,-4.6215,-4.6196,-4.6196,-4.6196,-4.6196,-4.6196,-4.6196,-4.6196,-4.6196,-4.6196,-4.6196,-4.6196,-4.6196,-4.6196,-4.6196,-4.6196,-4.6196,-4.6196,-4.6196,-4.6196,-4.6196,-4.6215,-4.6208,-4.6201,-4.6201,-4.6174,-4.6154,-4.6154,-4.6181,-4.6201,-4.6208,-4.6215,-4.6208,-4.6201,-4.6201,-4.6174,-4.6146,-4.6149,-4.616,-4.6149,-4.6132,-4.6076,-4.6046,-4.6014,-4.5991,-4.5944,-4.5919,-4.5874,-4.586,-4.586,-4.586,-4.5847,-4.5833,-4.58,-4.58,-4.58,-4.58,-4.58,-4.58,-4.58,-4.58,-4.58,-4.58,-4.58,-4.58,-4.58,-4.58,-4.58,-4.58,-4.58,-4.58,-4.58,-4.58,-4.58,-4.58,-4.58,-4.58,-4.58,-4.58,-4.58,-4.58,-4.58,-4.58,-4.58,-4.58,-4.58,-4.58,-4.58,-4.58,-4.58,-4.58,-4.58,-4.5814,-4.5808,-4.5835,-4.5917,-4.5953,-4.5994,-4.5986,-4.5997,-4.5953,-4.5912,-4.588,-4.5899,-4.5841,-4.5827,-4.5835,-4.588,-4.5899,-4.5912,-4.5893,-4.5905,-4.5891,-4.591,-4.6196,-4.6196,-4.6196,-4.6196,-4.6196,-4.6196,-4.6196,-4.6196,-4.6196,-4.6196,-4.6196,-4.6196,-4.6196,-4.6196,-4.6215,-4.6208,-4.6181,-4.6181,-4.6174,-4.6146,-4.6174,-4.6174,-4.6174,-4.6166,-4.6149,-4.6169,-4.6141,-4.6113,-4.6104,-4.6141,-4.6149,-4.6177,-4.6193,-4.6166,-4.6177,-4.6177,-4.6141,-4.6095,-4.6085,-4.6076,-4.6066,-4.6066,-4.6016,-4.6003,-4.598,-4.5956,-4.5919,-4.5893,-4.586,-4.5814,-4.58,-4.58,-4.58,-4.58,-4.58,-4.58,-4.58,-4.58,-4.58,-4.58,-4.58,-4.58,-4.58,-4.58,-4.58,-4.58,-4.58,-4.58,-4.58,-4.58,-4.58,-4.58,-4.58,-4.58,-4.58,-4.58,-4.58,-4.58,-4.58,-4.58,-4.58,-4.58,-4.58,-4.58,-4.58,-4.58,-4.58,-4.58,-4.58,-4.58,-4.58,-4.58,-4.58,-4.5847,-4.5841,-4.5848,-4.5917,-4.5953,-4.5975,-4.5986,-4.5977,-4.5933,-4.5886,-4.5893,-4.5867,-4.5827,-4.58,-4.5827,-4.5841,-4.5893,-4.5874,-4.5854,-4.5867,-4.5893,-4.5899,-4.6196,-4.6196,-4.6196,-4.6196,-4.6196,-4.6196,-4.6196,-4.6196,-4.6196,-4.6196,-4.6196,-4.6196,-4.6196,-4.6189,-4.6201,-4.6177,-4.6132,-4.6104,-4.6066,-4.6056,-4.6085,-4.6095,-4.6095,-4.6047,-4.6027,-4.6046,-4.6026,-4.6026,-4.6025,-4.6035,-4.6066,-4.6085,-4.6114,-4.6114,-4.6114,-4.6113,-4.6076,-4.6005,-4.5994,-4.5994,-4.5953,-4.5941,-4.5929,-4.5905,-4.5912,-4.5887,-4.5893,-4.5847,-4.5814,-4.58,-4.58,-4.58,-4.58,-4.58,-4.58,-4.58,-4.58,-4.58,-4.58,-4.58,-4.58,-4.58,-4.58,-4.58,-4.58,-4.58,-4.58,-4.58,-4.58,-4.58,-4.58,-4.58,-4.58,-4.58,-4.58,-4.58,-4.58,-4.58,-4.58,-4.58,-4.58,-4.58,-4.58,-4.58,-4.58,-4.58,-4.58,-4.58,-4.58,-4.58,-4.58,-4.58,-4.58,-4.5847,-4.5893,-4.588,-4.5917,-4.5941,-4.5964,-4.5966,-4.5956,-4.5914,-4.5891,-4.5886,-4.5867,-4.5814,-4.58,-4.58,-4.5814,-4.5847,-4.5827,-4.5794,-4.5841,-4.5854,-4.5841,-4.6196,-4.6196,-4.6196,-4.6196,-4.6196,-4.6196,-4.6196,-4.6196,-4.6196,-4.6208,-4.6208,-4.6201,-4.6193,-4.6169,-4.616,-4.6105,-4.6046,-4.6005,-4.5964,-4.5983,-4.5994,-4.5994,-4.5983,-4.5933,-4.5866,-4.5829,-4.5803,-4.5835,-4.5887,-4.5912,-4.5937,-4.5972,-4.5983,-4.5983,-4.5972,-4.5953,-4.591,-4.5848,-4.5854,-4.5822,-4.5808,-4.5822,-4.5854,-4.5854,-4.5841,-4.5847,-4.5827,-4.5833,-4.58,-4.58,-4.58,-4.58,-4.58,-4.58,-4.58,-4.58,-4.58,-4.58,-4.58,-4.58,-4.58,-4.58,-4.58,-4.58,-4.58,-4.58,-4.58,-4.58,-4.58,-4.58,-4.58,-4.58,-4.58,-4.58,-4.58,-4.58,-4.58,-4.58,-4.58,-4.58,-4.58,-4.58,-4.58,-4.58,-4.58,-4.58,-4.58,-4.58,-4.58,-4.58,-4.58,-4.58,-4.58,-4.5833,-4.588,-4.5887,-4.5893,-4.5937,-4.5941,-4.5944,-4.5933,-4.591,-4.5898,-4.5886,-4.5867,-4.5814,-4.58,-4.58,-4.58,-4.58,-4.5814,-4.5814,-4.5814,-4.58,-4.58,-4.6196,-4.6208,-4.6208,-4.6208,-4.6169,-4.6169,-4.6189,-4.6169,-4.6181,-4.6193,-4.6177,-4.6169,-4.6123,-4.6085,-4.6035,-4.5983,-4.5925,-4.5854,-4.5808,-4.5794,-4.5808,-4.5802,-4.5808,-4.578,-4.5703,-4.5658,-4.5539,-4.5549,-4.5708,-4.5708,-4.5737,-4.578,-4.5808,-4.5822,-4.58,-4.5766,-4.5688,-4.5661,-4.5651,-4.5651,-4.5677,-4.5708,-4.5737,-4.5737,-4.5771,-4.5771,-4.5757,-4.5771,-4.5786,-4.5805,-4.5805,-4.5819,-4.58,-4.58,-4.58,-4.58,-4.58,-4.58,-4.58,-4.58,-4.58,-4.58,-4.58,-4.58,-4.58,-4.58,-4.58,-4.58,-4.58,-4.58,-4.58,-4.58,-4.58,-4.58,-4.58,-4.58,-4.58,-4.58,-4.58,-4.58,-4.58,-4.58,-4.58,-4.58,-4.58,-4.58,-4.58,-4.58,-4.58,-4.58,-4.58,-4.58,-4.58,-4.58,-4.5847,-4.586,-4.5887,-4.5899,-4.5925,-4.591,-4.5917,-4.5905,-4.5893,-4.588,-4.5854,-4.58,-4.58,-4.58,-4.58,-4.58,-4.58,-4.58,-4.58,-4.58,-4.58,-4.6208,-4.6212,-4.6212,-4.6158,-4.6102,-4.6102,-4.6102,-4.6102,-4.6102,-4.6113,-4.6105,-4.6066,-4.6016,-4.5991,-4.5867,-4.5786,-4.5677,-4.5594,-4.5543,-4.5528,-4.5543,-4.5577,-4.5541,-4.5541,-4.5528,-4.5475,-4.532,-4.536,-4.5476,-4.5475,-4.5491,-4.5543,-4.556,-4.5541,-4.556,-4.5543,-4.5454,-4.5381,-4.5399,-4.5457,-4.5513,-4.5549,-4.5547,-4.5582,-4.5616,-4.5629,-4.5648,-4.568,-4.5731,-4.5795,-4.5795,-4.5791,-4.5819,-4.58,-4.58,-4.58,-4.58,-4.58,-4.58,-4.58,-4.58,-4.58,-4.58,-4.58,-4.58,-4.58,-4.58,-4.58,-4.58,-4.58,-4.58,-4.58,-4.58,-4.58,-4.58,-4.58,-4.58,-4.58,-4.58,-4.58,-4.58,-4.58,-4.58,-4.58,-4.58,-4.58,-4.58,-4.58,-4.58,-4.58,-4.58,-4.58,-4.58,-4.58,-4.5814,-4.5847,-4.586,-4.5893,-4.5887,-4.5873,-4.5861,-4.5867,-4.5893,-4.586,-4.5833,-4.58,-4.58,-4.58,-4.58,-4.58,-4.58,-4.58,-4.58,-4.58,-4.58,-4.6166,-4.6149,-4.6123,-4.6076,-4.6056,-4.6056,-4.6056,-4.6046,-4.6026,-4.6016,-4.5983,-4.596,-4.5899,-4.58,-4.5661,-4.5563,-4.5475,-4.54,-4.5361,-4.5341,-4.5361,-4.54,-4.5381,-4.5361,-4.5341,-4.53,-4.5194,-4.5129,-4.5197,-4.5297,-4.5317,-4.5381,-4.54,-4.5381,-4.5362,-4.5361,-4.5301,-4.5258,-4.5275,-4.5297,-4.5339,-4.5361,-4.54,-4.5419,-4.5438,-4.5475,-4.553,-4.5565,-4.5616,-4.5665,-4.568,-4.5708,-4.5752,-4.5786,-4.5805,-4.58,-4.58,-4.58,-4.58,-4.58,-4.58,-4.58,-4.58,-4.58,-4.58,-4.58,-4.58,-4.58,-4.58,-4.58,-4.58,-4.58,-4.58,-4.58,-4.58,-4.58,-4.58,-4.58,-4.58,-4.58,-4.58,-4.58,-4.58,-4.58,-4.58,-4.58,-4.58,-4.58,-4.58,-4.58,-4.58,-4.58,-4.58,-4.58,-4.58,-4.5814,-4.5833,-4.5847,-4.5847,-4.5841,-4.5822,-4.5827,-4.5847,-4.5852,-4.5833,-4.58,-4.58,-4.58,-4.58,-4.58,-4.58,-4.58,-4.58,-4.58,-4.58,-4.6132,-4.6066,-4.6026,-4.5983,-4.5949,-4.5956,-4.5956,-4.5937,-4.5937,-4.5912,-4.5854,-4.5805,-4.5715,-4.5601,-4.5438,-4.5342,-4.5341,-4.5256,-4.5213,-4.5192,-4.5213,-4.5213,-4.5194,-4.5151,-4.517,-4.5148,-4.5042,-4.4995,-4.5029,-4.509,-4.516,-4.5233,-4.5235,-4.5213,-4.5213,-4.5192,-4.5148,-4.5106,-4.5125,-4.5125,-4.517,-4.5173,-4.5237,-4.526,-4.5262,-4.5302,-4.5419,-4.5438,-4.5475,-4.5507,-4.5563,-4.5594,-4.5669,-4.5723,-4.5795,-4.5791,-4.5819,-4.58,-4.58,-4.58,-4.58,-4.58,-4.58,-4.58,-4.58,-4.58,-4.58,-4.58,-4.58,-4.58,-4.58,-4.58,-4.58,-4.58,-4.58,-4.58,-4.58,-4.58,-4.58,-4.58,-4.58,-4.58,-4.58,-4.58,-4.58,-4.58,-4.58,-4.58,-4.58,-4.58,-4.58,-4.58,-4.58,-4.58,-4.58,-4.58,-4.58,-4.58,-4.58,-4.58,-4.5814,-4.5814,-4.5814,-4.58,-4.58,-4.58,-4.58,-4.58,-4.58,-4.58,-4.58,-4.58,-4.58,-4.58,-4.58,-4.6075,-4.6003,-4.6003,-4.5905,-4.5833,-4.5814,-4.5814,-4.58,-4.5794,-4.5771,-4.568,-4.5547,-4.5458,-4.5397,-4.5277,-4.5173,-4.5148,-4.5057,-4.5033,-4.501,-4.501,-4.5057,-4.5038,-4.5014,-4.5033,-4.5033,-4.4948,-4.4919,-4.4938,-4.4938,-4.4986,-4.5014,-4.5057,-4.5014,-4.5014,-4.5057,-4.4991,-4.4967,-4.4967,-4.4986,-4.501,-4.5038,-4.5061,-4.5106,-4.517,-4.5213,-4.5213,-4.5277,-4.5301,-4.5342,-4.5381,-4.5456,-4.556,-4.5629,-4.57,-4.5746,-4.5771,-4.5786,-4.5786,-4.58,-4.58,-4.58,-4.58,-4.58,-4.58,-4.58,-4.58,-4.58,-4.58,-4.58,-4.58,-4.58,-4.58,-4.58,-4.58,-4.58,-4.58,-4.58,-4.58,-4.58,-4.58,-4.58,-4.58,-4.58,-4.58,-4.58,-4.58,-4.58,-4.58,-4.58,-4.58,-4.58,-4.58,-4.58,-4.58,-4.58,-4.58,-4.58,-4.58,-4.58,-4.5814,-4.58,-4.58,-4.58,-4.58,-4.58,-4.58,-4.58,-4.58,-4.58,-4.58,-4.58,-4.58,-4.58,-4.58,-4.6025,-4.5932,-4.5847,-4.5761,-4.5668,-4.5651,-4.5616,-4.5616,-4.5616,-4.5584,-4.5514,-4.5361,-4.526,-4.5233,-4.5137,-4.5052,-4.5033,-4.4967,-4.4938,-4.4938,-4.4938,-4.4943,-4.4943,-4.4943,-4.4943,-4.4919,-4.4895,-4.4895,-4.4895,-4.4895,-4.4895,-4.4919,-4.4943,-4.4962,-4.4962,-4.4962,-4.4919,-4.4919,-4.4895,-4.4938,-4.4919,-4.4919,-4.4943,-4.4986,-4.501,-4.5057,-4.508,-4.5103,-4.5132,-4.5178,-4.5239,-4.5321,-4.5419,-4.5531,-4.5599,-4.5684,-4.5696,-4.5727,-4.5742,-4.5752,-4.58,-4.58,-4.58,-4.58,-4.58,-4.58,-4.58,-4.58,-4.58,-4.58,-4.58,-4.58,-4.58,-4.58,-4.58,-4.58,-4.58,-4.58,-4.58,-4.58,-4.58,-4.58,-4.58,-4.58,-4.58,-4.58,-4.58,-4.58,-4.58,-4.58,-4.58,-4.58,-4.58,-4.58,-4.58,-4.58,-4.58,-4.58,-4.58,-4.58,-4.58,-4.58,-4.58,-4.58,-4.58,-4.58,-4.58,-4.58,-4.58,-4.58,-4.58,-4.58,-4.58,-4.58,-4.58,-4.598,-4.5847,-4.568,-4.5601,-4.5568,-4.5495,-4.5477,-4.5477,-4.5438,-4.538,-4.5317,-4.5216,-4.5132,-4.508,-4.5024,-4.4976,-4.4962,-4.4919,-4.4895,-4.4895,-4.4895,-4.4895,-4.4895,-4.4895,-4.4895,-4.4895,-4.4895,-4.4895,-4.4895,-4.4895,-4.4895,-4.4895,-4.4895,-4.4895,-4.4895,-4.4895,-4.4895,-4.4895,-4.4895,-4.4895,-4.4895,-4.4895,-4.4895,-4.4895,-4.4919,-4.4938,-4.4986,-4.501,-4.501,-4.5061,-4.5084,-4.5167,-4.5254,-4.5339,-4.5419,-4.551,-4.5582,-4.5635,-4.5632,-4.5712,-4.5771,-4.5805,-4.5805,-4.5805,-4.58,-4.58,-4.58,-4.58,-4.58,-4.58,-4.58,-4.58,-4.58,-4.58,-4.58,-4.58,-4.58,-4.58,-4.58,-4.58,-4.58,-4.58,-4.58,-4.58,-4.58,-4.58,-4.58,-4.58,-4.58,-4.58,-4.58,-4.58,-4.58,-4.58,-4.58,-4.58,-4.58,-4.58,-4.58,-4.58,-4.58,-4.58,-4.58,-4.58,-4.58,-4.58,-4.58,-4.58,-4.58,-4.58,-4.58,-4.58,-4.58,-4.58,-4.58,-4.5848,-4.5766,-4.5547,-4.5438,-4.5476,-4.5438,-4.5379,-4.5379,-4.5319,-4.5275,-4.517,-4.5061,-4.501,-4.5,-4.4933,-4.4914,-4.4914,-4.4895,-4.4895,-4.4895,-4.4895,-4.4895,-4.4895,-4.4895,-4.4895,-4.4895,-4.4895,-4.4895,-4.4895,-4.4895,-4.4895,-4.4895,-4.4895,-4.4895,-4.4895,-4.4895,-4.4895,-4.4895,-4.4895,-4.4895,-4.4895,-4.4895,-4.4895,-4.4895,-4.4895,-4.4895,-4.4919,-4.4919,-4.4919,-4.4943,-4.4991,-4.5029,-4.5124,-4.5192,-4.5262,-4.5322,-4.54,-4.5419,-4.54,-4.5599,-4.57,-4.5746,-4.5746,-4.5776,-4.5805,-4.58,-4.58,-4.58,-4.58,-4.58,-4.58,-4.58,-4.58,-4.58,-4.58,-4.58,-4.58,-4.58,-4.58,-4.58,-4.58,-4.58,-4.58,-4.58,-4.58,-4.58,-4.58,-4.58,-4.58,-4.58,-4.58,-4.58,-4.58,-4.58,-4.58,-4.58,-4.58,-4.58,-4.58,-4.58,-4.58,-4.58,-4.58,-4.58,-4.58,-4.58,-4.58,-4.58,-4.58,-4.58,-4.58,-4.58,-4.58,-4.58,-4.58,-4.5794,-4.5594,-4.5456,-4.5361,-4.5279,-4.5235,-4.5192,-4.5192,-4.5125,-4.508,-4.5057,-4.4986,-4.4938,-4.4914,-4.4914,-4.4895,-4.4895,-4.4895,-4.4895,-4.4895,-4.4895,-4.4895,-4.4895,-4.4895,-4.4895,-4.4895,-4.4895,-4.4895,-4.4895,-4.4895,-4.4895,-4.4895,-4.4895,-4.4895,-4.4895,-4.4895,-4.4895,-4.4895,-4.4895,-4.4895,-4.4895,-4.4895,-4.4895,-4.4895,-4.4895,-4.4895,-4.4895,-4.4895,-4.4895,-4.4895,-4.4943,-4.4957,-4.5033,-4.5084,-4.5154,-4.5237,-4.5279,-4.532,-4.532,-4.5438,-4.5514,-4.5603,-4.5668,-4.568,-4.5727,-4.5776,-4.5791,-4.58,-4.58,-4.58,-4.58,-4.58,-4.58,-4.58,-4.58,-4.58,-4.58,-4.58,-4.58,-4.58,-4.58,-4.58,-4.58,-4.58,-4.58,-4.58,-4.58,-4.58,-4.58,-4.58,-4.58,-4.58,-4.58,-4.58,-4.58,-4.58,-4.58,-4.58,-4.58,-4.58,-4.58,-4.58,-4.58,-4.58,-4.58,-4.58,-4.58,-4.58,-4.58,-4.58,-4.58,-4.58,-4.58,-4.58,-4.58,-4.5673,-4.5473,-4.5361,-4.5237,-4.5148,-4.508,-4.5057,-4.5033,-4.4986,-4.4967,-4.4943,-4.4919,-4.4895,-4.4895,-4.4895,-4.4895,-4.4895,-4.4895,-4.4895,-4.4895,-4.4895,-4.4895,-4.4895,-4.4895,-4.4895,-4.4895,-4.4895,-4.4895,-4.4895,-4.4895,-4.4895,-4.4895,-4.4895,-4.4895,-4.4895,-4.4895,-4.4895,-4.4895,-4.4895,-4.4895,-4.4895,-4.4895,-4.4895,-4.4895,-4.4895,-4.4895,-4.4895,-4.4895,-4.4895,-4.4895,-4.4895,-4.4914,-4.4957,-4.5005,-4.5038,-4.5103,-4.5125,-4.517,-4.5192,-4.5192,-4.5298,-4.54,-4.5475,-4.5563,-4.5648,-4.5731,-4.5757,-4.5786,-4.58,-4.58,-4.58,-4.58,-4.58,-4.58,-4.58,-4.58,-4.58,-4.58,-4.58,-4.58,-4.58,-4.58,-4.58,-4.58,-4.58,-4.58,-4.58,-4.58,-4.58,-4.58,-4.58,-4.58,-4.58,-4.58,-4.58,-4.58,-4.58,-4.58,-4.58,-4.58,-4.58,-4.58,-4.58,-4.58,-4.58,-4.58,-4.58,-4.58,-4.58,-4.58,-4.58,-4.58,-4.58,-4.58,-4.58,-4.5565,-4.5457,-4.5216,-4.5061,-4.501,-4.501,-4.4967,-4.4895,-4.4895,-4.4895,-4.4895,-4.4895,-4.4895,-4.4895,-4.4895,-4.4895,-4.4895,-4.4895,-4.4895,-4.4895,-4.4895,-4.4895,-4.4895,-4.4895,-4.4895,-4.4895,-4.4895,-4.4895,-4.4895,-4.4895,-4.4895,-4.4895,-4.4895,-4.4895,-4.4895,-4.4895,-4.4895,-4.4895,-4.4895,-4.4895,-4.4895,-4.4895,-4.4895,-4.4895,-4.4895,-4.4895,-4.4895,-4.4895,-4.4895,-4.4895,-4.4895,-4.4895,-4.4895,-4.4895,-4.4895,-4.4895,-4.4919,-4.4986,-4.501,-4.5033,-4.5057,-4.5192,-4.532,-4.5438,-4.5563,-4.5648,-4.5727,-4.5771,-4.58,-4.58,-4.58,-4.58,-4.58,-4.58,-4.58,-4.58,-4.58,-4.58,-4.58,-4.58,-4.58,-4.58,-4.58,-4.58,-4.58,-4.58,-4.58,-4.58,-4.58,-4.58,-4.58,-4.58,-4.58,-4.58,-4.58,-4.58,-4.58,-4.58,-4.58,-4.58,-4.58,-4.58,-4.58,-4.58,-4.58,-4.58,-4.58,-4.58,-4.58,-4.58,-4.58,-4.58,-4.58,-4.58,-4.58,-4.5438,-4.5297,-4.5148,-4.5014,-4.4919,-4.4919,-4.4938,-4.4895,-4.4895,-4.4895,-4.4895,-4.4895,-4.4895,-4.4895,-4.4895,-4.4895,-4.4895,-4.4895,-4.4895,-4.4895,-4.4895,-4.4895,-4.4895,-4.4895,-4.4895,-4.4895,-4.4895,-4.4895,-4.4895,-4.4895,-4.4895,-4.4895,-4.4895,-4.4895,-4.4895,-4.4895,-4.4895,-4.4895,-4.4895,-4.4895,-4.4895,-4.4895,-4.4895,-4.4895,-4.4895,-4.4895,-4.4895,-4.4895,-4.4895,-4.4895,-4.4895,-4.4895,-4.4895,-4.4895,-4.4895,-4.4895,-4.4895,-4.4895,-4.4919,-4.4919,-4.4943,-4.501,-4.5151,-4.5341,-4.5475,-4.5596,-4.5677,-4.5737,-4.58,-4.58,-4.58,-4.58,-4.58,-4.58,-4.58,-4.58,-4.58,-4.58,-4.58,-4.58,-4.58,-4.58,-4.58,-4.58,-4.58,-4.58,-4.58,-4.58,-4.58,-4.58,-4.58,-4.58,-4.58,-4.58,-4.58,-4.58,-4.58,-4.58,-4.58,-4.58,-4.58,-4.58,-4.58,-4.58,-4.58,-4.58,-4.58,-4.58,-4.58,-4.58,-4.58,-4.58,-4.58,-4.58,-4.58,-4.5298,-4.5148,-4.5057,-4.4986,-4.4895,-4.4895,-4.4895,-4.4895,-4.4895,-4.4895,-4.4895,-4.4895,-4.4895,-4.4895,-4.4895,-4.4895,-4.4895,-4.4895,-4.4895,-4.4895,-4.4895,-4.4895,-4.4895,-4.4895,-4.4895,-4.4895,-4.4895,-4.4895,-4.4895,-4.4895,-4.4895,-4.4895,-4.4895,-4.4895,-4.4895,-4.4895,-4.4895,-4.4895,-4.4895,-4.4895,-4.4895,-4.4895,-4.4895,-4.4895,-4.4895,-4.4895,-4.4895,-4.4895,-4.4895,-4.4895,-4.4895,-4.4895,-4.4895,-4.4895,-4.4895,-4.4895,-4.4895,-4.4895,-4.4895,-4.4895,-4.4919,-4.4967,-4.5103,-4.5279,-4.5457,-4.5582,-4.5677,-4.5752,-4.5786,-4.58,-4.58,-4.58,-4.58,-4.58,-4.58,-4.58,-4.58,-4.58,-4.58,-4.58,-4.58,-4.58,-4.58,-4.58,-4.58,-4.58,-4.58,-4.58,-4.58,-4.58,-4.58,-4.58,-4.58,-4.58,-4.58,-4.58,-4.58,-4.58,-4.58,-4.58,-4.58,-4.58,-4.58,-4.58,-4.58,-4.58,-4.58,-4.58,-4.58,-4.58,-4.58,-4.58,-4.58,-4.58,-4.58,-4.5148,-4.508,-4.4943,-4.4895,-4.4895,-4.4895,-4.4895,-4.4895,-4.4895,-4.4895,-4.4895,-4.4895,-4.4895,-4.4895,-4.4895,-4.4895,-4.4895,-4.4895,-4.4895,-4.4895,-4.4895,-4.4895,-4.4895,-4.4895,-4.4895,-4.4895,-4.4895,-4.4895,-4.4895,-4.4895,-4.4895,-4.4895,-4.4895,-4.4895,-4.4895,-4.4895,-4.4895,-4.4895,-4.4895,-4.4895,-4.4895,-4.4895,-4.4895,-4.4895,-4.4895,-4.4895,-4.4895,-4.4895,-4.4895,-4.4895,-4.4895,-4.4895,-4.4895,-4.4895,-4.4895,-4.4895,-4.4895,-4.4895,-4.4895,-4.4895,-4.4943,-4.5033,-4.5144,-4.5319,-4.5457,-4.5565,-4.5661,-4.5752,-4.58,-4.58,-4.58,-4.58,-4.58,-4.58,-4.58,-4.58,-4.58,-4.58,-4.58,-4.58,-4.58,-4.58,-4.58,-4.58,-4.58,-4.58,-4.58,-4.58,-4.58,-4.58,-4.58,-4.58,-4.58,-4.58,-4.58,-4.58,-4.58,-4.58,-4.58,-4.58,-4.58,-4.58,-4.58,-4.58,-4.58,-4.58,-4.58,-4.58,-4.58,-4.58,-4.58,-4.58,-4.58,-4.58,-4.58,-4.5052,-4.5,-4.4957,-4.4895,-4.4895,-4.4895,-4.4895,-4.4895,-4.4895,-4.4895,-4.4895,-4.4895,-4.4895,-4.4895,-4.4895,-4.4895,-4.4895,-4.4895,-4.4895,-4.4895,-4.4895,-4.4895,-4.4895,-4.4895,-4.4895,-4.4895,-4.4895,-4.4895,-4.4895,-4.4895,-4.4895,-4.4895,-4.4895,-4.4895,-4.4895,-4.4895,-4.4895,-4.4895,-4.4895,-4.4895,-4.4895,-4.4895,-4.4895,-4.4895,-4.4895,-4.4895,-4.4895,-4.4895,-4.4895,-4.4895,-4.4895,-4.4895,-4.4895,-4.4895,-4.4895,-4.4895,-4.4895,-4.4895,-4.4895,-4.4895,-4.4943,-4.5057,-4.517,-4.532,-4.5457,-4.5545,-4.5645,-4.5757,-4.58,-4.58,-4.58,-4.58,-4.58,-4.58,-4.58,-4.58,-4.58,-4.58,-4.58,-4.58,-4.58,-4.58,-4.58,-4.58,-4.58,-4.58,-4.58,-4.58,-4.58,-4.58,-4.58,-4.58,-4.58,-4.58,-4.58,-4.58,-4.58,-4.58,-4.58,-4.58,-4.58,-4.58,-4.58,-4.58,-4.58,-4.58,-4.58,-4.58,-4.58,-4.58,-4.58,-4.58,-4.58,-4.58,-4.58,-4.4938,-4.4952,-4.4914,-4.4895,-4.4895,-4.4895,-4.4895,-4.4895,-4.4895,-4.4895,-4.4895,-4.4895,-4.4895,-4.4895,-4.4895,-4.4895,-4.4895,-4.4895,-4.4895,-4.4895,-4.4895,-4.4895,-4.4895,-4.4895,-4.4895,-4.4895,-4.4895,-4.4895,-4.4895,-4.4895,-4.4895,-4.4895,-4.4895,-4.4895,-4.4895,-4.4895,-4.4895,-4.4895,-4.4895,-4.4895,-4.4895,-4.4895,-4.4895,-4.4895,-4.4895,-4.4895,-4.4895,-4.4895,-4.4895,-4.4895,-4.4895,-4.4895,-4.4895,-4.4895,-4.487,-4.487,-4.487,-4.4889,-4.4889,-4.4914,-4.4943,-4.508,-4.5211,-4.536,-4.5419,-4.551,-4.5665,-4.5757,-4.58,-4.58,-4.58,-4.58,-4.58,-4.58,-4.58,-4.58,-4.58,-4.58,-4.58,-4.58,-4.58,-4.58,-4.58,-4.58,-4.58,-4.58,-4.58,-4.58,-4.58,-4.58,-4.58,-4.58,-4.58,-4.58,-4.58,-4.58,-4.58,-4.58,-4.58,-4.58,-4.58,-4.58,-4.58,-4.58,-4.58,-4.58,-4.58,-4.58,-4.58,-4.58,-4.58,-4.58,-4.58,-4.58,-4.58,-4.4895,-4.4895,-4.4895,-4.4895,-4.4895,-4.4895,-4.4895,-4.4895,-4.4895,-4.4895,-4.4895,-4.4895,-4.4895,-4.4895,-4.4895,-4.4895,-4.4895,-4.4895,-4.4895,-4.4895,-4.4895,-4.4895,-4.4895,-4.4895,-4.4895,-4.4895,-4.4895,-4.4895,-4.4895,-4.4895,-4.4895,-4.4895,-4.4895,-4.4895,-4.4895,-4.4895,-4.4895,-4.4895,-4.4895,-4.4895,-4.4895,-4.4895,-4.4895,-4.4895,-4.4895,-4.4895,-4.4895,-4.4895,-4.4895,-4.4895,-4.4895,-4.4895,-4.487,-4.487,-4.4865,-4.484,-4.4846,-4.4865,-4.4865,-4.4914,-4.4986,-4.5084,-4.5233,-4.5319,-4.5381,-4.5475,-4.5616,-4.5696,-4.5742,-4.5786,-4.5786,-4.58,-4.58,-4.58,-4.58,-4.58,-4.58,-4.58,-4.58,-4.58,-4.58,-4.58,-4.58,-4.58,-4.58,-4.58,-4.58,-4.58,-4.58,-4.58,-4.58,-4.58,-4.58,-4.58,-4.58,-4.58,-4.58,-4.58,-4.58,-4.58,-4.58,-4.58,-4.58,-4.58,-4.58,-4.58,-4.58,-4.58,-4.58,-4.58,-4.58,-4.58,-4.58,-4.58,-4.58,-4.4895,-4.4895,-4.4895,-4.4895,-4.4895,-4.4895,-4.4895,-4.4895,-4.4895,-4.4895,-4.4895,-4.4895,-4.4895,-4.4895,-4.4895,-4.4895,-4.4895,-4.4895,-4.4895,-4.4895,-4.4895,-4.4895,-4.4895,-4.4895,-4.4895,-4.4895,-4.4895,-4.4895,-4.4895,-4.4895,-4.4895,-4.4895,-4.4895,-4.4895,-4.4895,-4.4895,-4.4895,-4.4895,-4.4895,-4.4895,-4.4895,-4.4895,-4.4895,-4.4895,-4.4895,-4.4895,-4.4895,-4.4895,-4.4895,-4.4895,-4.4895,-4.4895,-4.487,-4.4846,-4.4815,-4.4789,-4.4796,-4.4796,-4.4815,-4.487,-4.4943,-4.4991,-4.5103,-4.5173,-4.5239,-4.5282,-4.5419,-4.5549,-4.5599,-4.5746,-4.5776,-4.5805,-4.5819,-4.58,-4.58,-4.58,-4.58,-4.58,-4.58,-4.58,-4.58,-4.58,-4.58,-4.58,-4.58,-4.58,-4.58,-4.58,-4.58,-4.58,-4.58,-4.58,-4.58,-4.58,-4.58,-4.58,-4.58,-4.58,-4.58,-4.58,-4.58,-4.58,-4.58,-4.58,-4.58,-4.58,-4.58,-4.58,-4.58,-4.58,-4.58,-4.58,-4.58,-4.58,-4.58]}]]